PWSweather.com
Personal Weather Stations
Station Observations
GHWX1
Golden Heights, Sturgeon County, AB T0A1N5

Golden HeightsSturgeon County, AB T0A1N5

Lat: 53.919, Lon: -113.37

Elevation: 2159

Station Type:

http://www.ghwx.ca

High Low Average
Temperature 7.9°F-13.4°C -27.7°F-33.2°C -4.0°F-20.0°C
Dew Point -6.1°F-21.2°C -31.6°F-35.3°C -11.7°F-24.3°C
Winds 7.0 mph 11.3 kmh Calm Calm 2.0 mph WSW3.2 kmh WSW
Wind Gusts -- -- --
Humidity 88% 50% 70%
Pressure 30.45 in1031.2 mb 30.31 in1026.4 mb -
Precipitation 0.00 in0.0 mm - -
Hour Temp Dew Point Humidity Winds Wind Gusts Pressure Precip Precip Rate Daily Precip Total
12:00 AM -3.5°F-19.7°C -7.9°F-22.2°C 81% 2.0 mph WNW3.2 kmh WNW -- 30.44 in1030.8 mb 0.00 in0.0 mm 0.00 in0.0 mm 0.00 in0.0 mm
12:01 AM -3.2°F-19.6°C -7.7°F-22.1°C 81% 2.0 mph NW3.2 kmh NW -- 30.44 in1030.8 mb 0.00 in0.0 mm 0.00 in0.0 mm 0.00 in0.0 mm
12:02 AM -3.2°F-19.6°C -7.7°F-22.1°C 81% 4.0 mph 6.4 kmh -- 30.44 in1030.8 mb 0.00 in0.0 mm 0.00 in0.0 mm 0.00 in0.0 mm
12:03 AM -3.2°F-19.6°C -7.7°F-22.1°C 81% 2.0 mph WNW3.2 kmh WNW -- 30.44 in1030.8 mb 0.00 in0.0 mm 0.00 in0.0 mm 0.00 in0.0 mm
12:05 AM -3.2°F-19.6°C -7.7°F-22.1°C 81% 1.0 mph WNW1.6 kmh WNW -- 30.44 in1030.8 mb 0.00 in0.0 mm 0.00 in0.0 mm 0.00 in0.0 mm
12:07 AM -3.2°F-19.6°C -7.7°F-22.1°C 81% 2.0 mph NNW3.2 kmh NNW -- 30.44 in1030.8 mb 0.00 in0.0 mm 0.00 in0.0 mm 0.00 in0.0 mm
12:08 AM -3.2°F-19.6°C -7.7°F-22.1°C 81% 1.0 mph NNE1.6 kmh NNE -- 30.44 in1030.8 mb 0.00 in0.0 mm 0.00 in0.0 mm 0.00 in0.0 mm
12:09 AM -3.2°F-19.6°C -7.7°F-22.1°C 81% 1.0 mph 1.6 kmh -- 30.44 in1030.8 mb 0.00 in0.0 mm 0.00 in0.0 mm 0.00 in0.0 mm
12:10 AM -3.2°F-19.6°C -7.7°F-22.1°C 81% Calm Calm -- 30.44 in1030.8 mb 0.00 in0.0 mm 0.00 in0.0 mm 0.00 in0.0 mm
12:12 AM -3.2°F-19.6°C -7.7°F-22.1°C 81% 2.0 mph NNW3.2 kmh NNW -- 30.44 in1030.8 mb 0.00 in0.0 mm 0.00 in0.0 mm 0.00 in0.0 mm
12:13 AM -3.2°F-19.6°C -7.7°F-22.1°C 81% 3.0 mph WNW4.8 kmh WNW -- 30.44 in1030.8 mb 0.00 in0.0 mm 0.00 in0.0 mm 0.00 in0.0 mm
12:14 AM -3.2°F-19.6°C -7.7°F-22.1°C 81% 2.0 mph WNW3.2 kmh WNW -- 30.44 in1030.8 mb 0.00 in0.0 mm 0.00 in0.0 mm 0.00 in0.0 mm
12:15 AM -3.2°F-19.6°C -7.7°F-22.1°C 81% 2.0 mph W3.2 kmh W -- 30.44 in1030.8 mb 0.00 in0.0 mm 0.00 in0.0 mm 0.00 in0.0 mm
12:17 AM -3.2°F-19.6°C -7.7°F-22.1°C 81% 2.0 mph WNW3.2 kmh WNW -- 30.44 in1030.8 mb 0.00 in0.0 mm 0.00 in0.0 mm 0.00 in0.0 mm
12:18 AM -3.2°F-19.6°C -7.7°F-22.1°C 81% 2.0 mph W3.2 kmh W -- 30.44 in1030.8 mb 0.00 in0.0 mm 0.00 in0.0 mm 0.00 in0.0 mm
12:19 AM -3.0°F-19.4°C -7.3°F-21.8°C 81% 3.0 mph NW4.8 kmh NW -- 30.44 in1030.8 mb 0.00 in0.0 mm 0.00 in0.0 mm 0.00 in0.0 mm
12:20 AM -3.0°F-19.4°C -7.3°F-21.8°C 81% 2.0 mph WNW3.2 kmh WNW -- 30.44 in1030.8 mb 0.00 in0.0 mm 0.00 in0.0 mm 0.00 in0.0 mm
12:21 AM -3.0°F-19.4°C -7.3°F-21.8°C 81% 3.0 mph WNW4.8 kmh WNW -- 30.44 in1030.8 mb 0.00 in0.0 mm 0.00 in0.0 mm 0.00 in0.0 mm
12:22 AM -2.9°F-19.4°C -7.3°F-21.8°C 81% 1.0 mph NW1.6 kmh NW -- 30.44 in1030.8 mb 0.00 in0.0 mm 0.00 in0.0 mm 0.00 in0.0 mm
12:23 AM -2.9°F-19.4°C -7.3°F-21.8°C 81% 2.0 mph W3.2 kmh W -- 30.44 in1030.8 mb 0.00 in0.0 mm 0.00 in0.0 mm 0.00 in0.0 mm
12:26 AM -2.9°F-19.4°C -7.3°F-21.8°C 81% 1.0 mph WNW1.6 kmh WNW -- 30.44 in1030.8 mb 0.00 in0.0 mm 0.00 in0.0 mm 0.00 in0.0 mm
12:28 AM -2.9°F-19.4°C -7.3°F-21.8°C 81% 3.0 mph W4.8 kmh W -- 30.44 in1030.8 mb 0.00 in0.0 mm 0.00 in0.0 mm 0.00 in0.0 mm
12:29 AM -2.9°F-19.4°C -7.3°F-21.8°C 81% 3.0 mph WNW4.8 kmh WNW -- 30.44 in1030.8 mb 0.00 in0.0 mm 0.00 in0.0 mm 0.00 in0.0 mm
12:30 AM -2.9°F-19.4°C -7.3°F-21.8°C 81% 2.0 mph W3.2 kmh W -- 30.44 in1030.8 mb 0.00 in0.0 mm 0.00 in0.0 mm 0.00 in0.0 mm
12:31 AM -2.7°F-19.3°C -7.2°F-21.8°C 81% 3.0 mph NW4.8 kmh NW -- 30.44 in1030.8 mb 0.00 in0.0 mm 0.00 in0.0 mm 0.00 in0.0 mm
12:32 AM -2.7°F-19.3°C -7.2°F-21.8°C 81% 3.0 mph WNW4.8 kmh WNW -- 30.44 in1030.8 mb 0.00 in0.0 mm 0.00 in0.0 mm 0.00 in0.0 mm
12:34 AM -2.7°F-19.3°C -7.4°F-21.9°C 80% 3.0 mph NW4.8 kmh NW -- 30.44 in1030.8 mb 0.00 in0.0 mm 0.00 in0.0 mm 0.00 in0.0 mm
12:35 AM -2.7°F-19.3°C -7.4°F-21.9°C 80% 3.0 mph WNW4.8 kmh WNW -- 30.44 in1030.8 mb 0.00 in0.0 mm 0.00 in0.0 mm 0.00 in0.0 mm
12:36 AM -2.7°F-19.3°C -7.4°F-21.9°C 80% 4.0 mph WNW6.4 kmh WNW -- 30.44 in1030.8 mb 0.00 in0.0 mm 0.00 in0.0 mm 0.00 in0.0 mm
12:37 AM -2.7°F-19.3°C -7.4°F-21.9°C 80% 4.0 mph NNW6.4 kmh NNW -- 30.44 in1030.8 mb 0.00 in0.0 mm 0.00 in0.0 mm 0.00 in0.0 mm
12:38 AM -2.5°F-19.2°C -7.2°F-21.8°C 80% 2.0 mph NW3.2 kmh NW -- 30.44 in1030.8 mb 0.00 in0.0 mm 0.00 in0.0 mm 0.00 in0.0 mm
12:39 AM -2.5°F-19.2°C -7.2°F-21.8°C 80% 4.0 mph NNW6.4 kmh NNW -- 30.43 in1030.5 mb 0.00 in0.0 mm 0.00 in0.0 mm 0.00 in0.0 mm
12:40 AM -2.5°F-19.2°C -7.2°F-21.8°C 80% 3.0 mph NNW4.8 kmh NNW -- 30.44 in1030.8 mb 0.00 in0.0 mm 0.00 in0.0 mm 0.00 in0.0 mm
12:41 AM -2.5°F-19.2°C -7.2°F-21.8°C 80% 2.0 mph NNW3.2 kmh NNW -- 30.44 in1030.8 mb 0.00 in0.0 mm 0.00 in0.0 mm 0.00 in0.0 mm
12:42 AM -2.5°F-19.2°C -7.2°F-21.8°C 80% 4.0 mph NW6.4 kmh NW -- 30.44 in1030.8 mb 0.00 in0.0 mm 0.00 in0.0 mm 0.00 in0.0 mm
12:43 AM -2.5°F-19.2°C -7.2°F-21.8°C 80% 3.0 mph NW4.8 kmh NW -- 30.44 in1030.8 mb 0.00 in0.0 mm 0.00 in0.0 mm 0.00 in0.0 mm
12:45 AM -2.5°F-19.2°C -7.2°F-21.8°C 80% 4.0 mph NW6.4 kmh NW -- 30.44 in1030.8 mb 0.00 in0.0 mm 0.00 in0.0 mm 0.00 in0.0 mm
12:46 AM -2.5°F-19.2°C -7.2°F-21.8°C 80% 2.0 mph NW3.2 kmh NW -- 30.44 in1030.8 mb 0.00 in0.0 mm 0.00 in0.0 mm 0.00 in0.0 mm
12:47 AM -2.6°F-19.2°C -7.2°F-21.8°C 80% 2.0 mph WNW3.2 kmh WNW -- 30.44 in1030.8 mb 0.00 in0.0 mm 0.00 in0.0 mm 0.00 in0.0 mm
12:48 AM -2.5°F-19.2°C -7.2°F-21.8°C 80% 2.0 mph WNW3.2 kmh WNW -- 30.44 in1030.8 mb 0.00 in0.0 mm 0.00 in0.0 mm 0.00 in0.0 mm
12:49 AM -2.5°F-19.2°C -7.2°F-21.8°C 80% 3.0 mph WNW4.8 kmh WNW -- 30.44 in1030.8 mb 0.00 in0.0 mm 0.00 in0.0 mm 0.00 in0.0 mm
12:50 AM -2.5°F-19.2°C -7.2°F-21.8°C 80% 2.0 mph WNW3.2 kmh WNW -- 30.44 in1030.8 mb 0.00 in0.0 mm 0.00 in0.0 mm 0.00 in0.0 mm
12:51 AM -2.7°F-19.3°C -7.4°F-21.9°C 80% 1.0 mph W1.6 kmh W -- 30.44 in1030.8 mb 0.00 in0.0 mm 0.00 in0.0 mm 0.00 in0.0 mm
12:52 AM -2.7°F-19.3°C -7.4°F-21.9°C 80% 2.0 mph NW3.2 kmh NW -- 30.44 in1030.8 mb 0.00 in0.0 mm 0.00 in0.0 mm 0.00 in0.0 mm
12:53 AM -2.7°F-19.3°C -7.4°F-21.9°C 80% 2.0 mph W3.2 kmh W -- 30.44 in1030.8 mb 0.00 in0.0 mm 0.00 in0.0 mm 0.00 in0.0 mm
12:54 AM -2.7°F-19.3°C -7.4°F-21.9°C 80% 1.0 mph W1.6 kmh W -- 30.44 in1030.8 mb 0.00 in0.0 mm 0.00 in0.0 mm 0.00 in0.0 mm
12:55 AM -2.7°F-19.3°C -7.4°F-21.9°C 80% 2.0 mph W3.2 kmh W -- 30.44 in1030.8 mb 0.00 in0.0 mm 0.00 in0.0 mm 0.00 in0.0 mm
12:56 AM -2.7°F-19.3°C -7.4°F-21.9°C 80% 4.0 mph WNW6.4 kmh WNW -- 30.44 in1030.8 mb 0.00 in0.0 mm 0.00 in0.0 mm 0.00 in0.0 mm
12:57 AM -2.7°F-19.3°C -7.4°F-21.9°C 80% 3.0 mph WNW4.8 kmh WNW -- 30.44 in1030.8 mb 0.00 in0.0 mm 0.00 in0.0 mm 0.00 in0.0 mm
12:58 AM -2.7°F-19.3°C -7.4°F-21.9°C 80% 2.0 mph WNW3.2 kmh WNW -- 30.44 in1030.8 mb 0.00 in0.0 mm 0.00 in0.0 mm 0.00 in0.0 mm
12:59 AM -2.7°F-19.3°C -7.4°F-21.9°C 80% 2.0 mph W3.2 kmh W -- 30.44 in1030.8 mb 0.00 in0.0 mm 0.00 in0.0 mm 0.00 in0.0 mm
01:00 AM -2.7°F-19.3°C -7.2°F-21.8°C 81% 1.0 mph W1.6 kmh W -- 30.43 in1030.5 mb 0.00 in0.0 mm 0.00 in0.0 mm 0.00 in0.0 mm
01:01 AM -2.7°F-19.3°C -7.2°F-21.8°C 81% 2.0 mph WNW3.2 kmh WNW -- 30.44 in1030.8 mb 0.00 in0.0 mm 0.00 in0.0 mm 0.00 in0.0 mm
01:02 AM -2.7°F-19.3°C -7.2°F-21.8°C 81% 2.0 mph W3.2 kmh W -- 30.44 in1030.8 mb 0.00 in0.0 mm 0.00 in0.0 mm 0.00 in0.0 mm
01:03 AM -2.7°F-19.3°C -7.2°F-21.8°C 81% Calm Calm -- 30.44 in1030.8 mb 0.00 in0.0 mm 0.00 in0.0 mm 0.00 in0.0 mm
01:04 AM -2.7°F-19.3°C -7.2°F-21.8°C 81% 3.0 mph NNW4.8 kmh NNW -- 30.44 in1030.8 mb 0.00 in0.0 mm 0.00 in0.0 mm 0.00 in0.0 mm
01:05 AM -2.7°F-19.3°C -7.2°F-21.8°C 81% 4.0 mph WNW6.4 kmh WNW -- 30.44 in1030.8 mb 0.00 in0.0 mm 0.00 in0.0 mm 0.00 in0.0 mm
01:06 AM -2.7°F-19.3°C -7.2°F-21.8°C 81% 2.0 mph NW3.2 kmh NW -- 30.44 in1030.8 mb 0.00 in0.0 mm 0.00 in0.0 mm 0.00 in0.0 mm
01:08 AM -2.7°F-19.3°C -7.2°F-21.8°C 81% 3.0 mph NW4.8 kmh NW -- 30.44 in1030.8 mb 0.00 in0.0 mm 0.00 in0.0 mm 0.00 in0.0 mm
01:09 AM -2.7°F-19.3°C -7.2°F-21.8°C 81% 2.0 mph NNW3.2 kmh NNW -- 30.44 in1030.8 mb 0.00 in0.0 mm 0.00 in0.0 mm 0.00 in0.0 mm
01:10 AM -2.7°F-19.3°C -7.2°F-21.8°C 81% 3.0 mph NW4.8 kmh NW -- 30.44 in1030.8 mb 0.00 in0.0 mm 0.00 in0.0 mm 0.00 in0.0 mm
01:12 AM -2.7°F-19.3°C -7.2°F-21.8°C 81% 2.0 mph WNW3.2 kmh WNW -- 30.44 in1030.8 mb 0.00 in0.0 mm 0.00 in0.0 mm 0.00 in0.0 mm
01:14 AM -2.7°F-19.3°C -7.2°F-21.8°C 81% 1.0 mph W1.6 kmh W -- 30.44 in1030.8 mb 0.00 in0.0 mm 0.00 in0.0 mm 0.00 in0.0 mm
01:15 AM -2.7°F-19.3°C -7.2°F-21.8°C 81% 2.0 mph WNW3.2 kmh WNW -- 30.44 in1030.8 mb 0.00 in0.0 mm 0.00 in0.0 mm 0.00 in0.0 mm
01:16 AM -2.7°F-19.3°C -7.2°F-21.8°C 81% 3.0 mph W4.8 kmh W -- 30.44 in1030.8 mb 0.00 in0.0 mm 0.00 in0.0 mm 0.00 in0.0 mm
01:17 AM -2.7°F-19.3°C -7.2°F-21.8°C 81% 2.0 mph W3.2 kmh W -- 30.44 in1030.8 mb 0.00 in0.0 mm 0.00 in0.0 mm 0.00 in0.0 mm
01:18 AM -2.9°F-19.4°C -7.3°F-21.8°C 81% 3.0 mph WNW4.8 kmh WNW -- 30.44 in1030.8 mb 0.00 in0.0 mm 0.00 in0.0 mm 0.00 in0.0 mm
01:19 AM -2.9°F-19.4°C -7.3°F-21.8°C 81% 2.0 mph W3.2 kmh W -- 30.44 in1030.8 mb 0.00 in0.0 mm 0.00 in0.0 mm 0.00 in0.0 mm
01:23 AM -2.9°F-19.4°C -7.3°F-21.8°C 81% 2.0 mph WNW3.2 kmh WNW -- 30.44 in1030.8 mb 0.00 in0.0 mm 0.00 in0.0 mm 0.00 in0.0 mm
01:24 AM -3.0°F-19.4°C -7.3°F-21.8°C 81% 2.0 mph W3.2 kmh W -- 30.44 in1030.8 mb 0.00 in0.0 mm 0.00 in0.0 mm 0.00 in0.0 mm
01:25 AM -3.0°F-19.4°C -7.3°F-21.8°C 81% 2.0 mph WNW3.2 kmh WNW -- 30.44 in1030.8 mb 0.00 in0.0 mm 0.00 in0.0 mm 0.00 in0.0 mm
01:26 AM -3.0°F-19.4°C -7.3°F-21.8°C 81% 1.0 mph W1.6 kmh W -- 30.44 in1030.8 mb 0.00 in0.0 mm 0.00 in0.0 mm 0.00 in0.0 mm
01:27 AM -3.0°F-19.4°C -6.8°F-21.6°C 83% Calm Calm -- 30.44 in1030.8 mb 0.00 in0.0 mm 0.00 in0.0 mm 0.00 in0.0 mm
01:31 AM -3.0°F-19.4°C -6.8°F-21.6°C 83% 1.0 mph WNW1.6 kmh WNW -- 30.44 in1030.8 mb 0.00 in0.0 mm 0.00 in0.0 mm 0.00 in0.0 mm
01:32 AM -3.0°F-19.4°C -6.8°F-21.6°C 83% 2.0 mph W3.2 kmh W -- 30.44 in1030.8 mb 0.00 in0.0 mm 0.00 in0.0 mm 0.00 in0.0 mm
01:33 AM -3.2°F-19.6°C -7.2°F-21.8°C 83% 2.0 mph W3.2 kmh W -- 30.44 in1030.8 mb 0.00 in0.0 mm 0.00 in0.0 mm 0.00 in0.0 mm
01:34 AM -3.2°F-19.6°C -7.2°F-21.8°C 83% 1.0 mph WNW1.6 kmh WNW -- 30.44 in1030.8 mb 0.00 in0.0 mm 0.00 in0.0 mm 0.00 in0.0 mm
01:35 AM -3.2°F-19.6°C -7.2°F-21.8°C 83% 1.0 mph W1.6 kmh W -- 30.44 in1030.8 mb 0.00 in0.0 mm 0.00 in0.0 mm 0.00 in0.0 mm
01:37 AM -3.2°F-19.6°C -7.2°F-21.8°C 83% Calm Calm -- 30.44 in1030.8 mb 0.00 in0.0 mm 0.00 in0.0 mm 0.00 in0.0 mm
01:39 AM -3.5°F-19.7°C -7.4°F-21.9°C 83% Calm Calm -- 30.44 in1030.8 mb 0.00 in0.0 mm 0.00 in0.0 mm 0.00 in0.0 mm
01:42 AM -3.5°F-19.7°C -7.4°F-21.9°C 83% Calm Calm -- 30.44 in1030.8 mb 0.00 in0.0 mm 0.00 in0.0 mm 0.00 in0.0 mm
01:43 AM -3.5°F-19.7°C -7.4°F-21.9°C 83% 2.0 mph W3.2 kmh W -- 30.44 in1030.8 mb 0.00 in0.0 mm 0.00 in0.0 mm 0.00 in0.0 mm
01:44 AM -3.5°F-19.7°C -7.4°F-21.9°C 83% 2.0 mph WNW3.2 kmh WNW -- 30.44 in1030.8 mb 0.00 in0.0 mm 0.00 in0.0 mm 0.00 in0.0 mm
01:45 AM -3.7°F-19.8°C -7.5°F-21.9°C 83% 2.0 mph W3.2 kmh W -- 30.44 in1030.8 mb 0.00 in0.0 mm 0.00 in0.0 mm 0.00 in0.0 mm
01:47 AM -3.8°F-19.9°C -7.7°F-22.1°C 83% 2.0 mph W3.2 kmh W -- 30.44 in1030.8 mb 0.00 in0.0 mm 0.00 in0.0 mm 0.00 in0.0 mm
01:48 AM -3.7°F-19.8°C -7.5°F-21.9°C 83% 2.0 mph W3.2 kmh W -- 30.44 in1030.8 mb 0.00 in0.0 mm 0.00 in0.0 mm 0.00 in0.0 mm
01:49 AM -3.7°F-19.8°C -7.5°F-21.9°C 83% 1.0 mph W1.6 kmh W -- 30.44 in1030.8 mb 0.00 in0.0 mm 0.00 in0.0 mm 0.00 in0.0 mm
01:51 AM -3.7°F-19.8°C -7.5°F-21.9°C 83% 2.0 mph W3.2 kmh W -- 30.44 in1030.8 mb 0.00 in0.0 mm 0.00 in0.0 mm 0.00 in0.0 mm
01:52 AM -3.7°F-19.8°C -7.5°F-21.9°C 83% 1.0 mph W1.6 kmh W -- 30.43 in1030.5 mb 0.00 in0.0 mm 0.00 in0.0 mm 0.00 in0.0 mm
01:53 AM -3.7°F-19.8°C -7.5°F-21.9°C 83% 1.0 mph WNW1.6 kmh WNW -- 30.44 in1030.8 mb 0.00 in0.0 mm 0.00 in0.0 mm 0.00 in0.0 mm
01:54 AM -3.7°F-19.8°C -7.5°F-21.9°C 83% 2.0 mph WNW3.2 kmh WNW -- 30.44 in1030.8 mb 0.00 in0.0 mm 0.00 in0.0 mm 0.00 in0.0 mm
01:55 AM -3.7°F-19.8°C -7.5°F-21.9°C 83% Calm Calm -- 30.44 in1030.8 mb 0.00 in0.0 mm 0.00 in0.0 mm 0.00 in0.0 mm
01:56 AM -3.7°F-19.8°C -7.5°F-21.9°C 83% 2.0 mph W3.2 kmh W -- 30.44 in1030.8 mb 0.00 in0.0 mm 0.00 in0.0 mm 0.00 in0.0 mm
01:57 AM -3.7°F-19.8°C -7.5°F-21.9°C 83% 1.0 mph W1.6 kmh W -- 30.44 in1030.8 mb 0.00 in0.0 mm 0.00 in0.0 mm 0.00 in0.0 mm
02:02 AM -3.7°F-19.8°C -7.5°F-21.9°C 83% 1.0 mph WNW1.6 kmh WNW -- 30.44 in1030.8 mb 0.00 in0.0 mm 0.00 in0.0 mm 0.00 in0.0 mm
02:03 AM -3.7°F-19.8°C -7.5°F-21.9°C 83% Calm Calm -- 30.44 in1030.8 mb 0.00 in0.0 mm 0.00 in0.0 mm 0.00 in0.0 mm
02:06 AM -4.0°F-20.0°C -7.9°F-22.2°C 83% Calm Calm -- 30.44 in1030.8 mb 0.00 in0.0 mm 0.00 in0.0 mm 0.00 in0.0 mm
02:10 AM -4.0°F-20.0°C -7.9°F-22.2°C 83% Calm Calm -- 30.44 in1030.8 mb 0.00 in0.0 mm 0.00 in0.0 mm 0.00 in0.0 mm
02:11 AM -4.0°F-20.0°C -7.9°F-22.2°C 83% Calm Calm -- 30.44 in1030.8 mb 0.00 in0.0 mm 0.00 in0.0 mm 0.00 in0.0 mm
02:12 AM -4.1°F-20.1°C -8.1°F-22.3°C 83% Calm Calm -- 30.44 in1030.8 mb 0.00 in0.0 mm 0.00 in0.0 mm 0.00 in0.0 mm
02:13 AM -4.1°F-20.1°C -8.1°F-22.3°C 83% Calm Calm -- 30.44 in1030.8 mb 0.00 in0.0 mm 0.00 in0.0 mm 0.00 in0.0 mm
02:17 AM -4.1°F-20.1°C -8.1°F-22.3°C 83% Calm Calm -- 30.44 in1030.8 mb 0.00 in0.0 mm 0.00 in0.0 mm 0.00 in0.0 mm
02:22 AM -4.1°F-20.1°C -8.1°F-22.3°C 83% Calm Calm -- 30.44 in1030.8 mb 0.00 in0.0 mm 0.00 in0.0 mm 0.00 in0.0 mm
02:23 AM -4.1°F-20.1°C -8.1°F-22.3°C 83% Calm Calm -- 30.44 in1030.8 mb 0.00 in0.0 mm 0.00 in0.0 mm 0.00 in0.0 mm
02:28 AM -4.1°F-20.1°C -8.6°F-22.6°C 81% Calm Calm -- 30.44 in1030.8 mb 0.00 in0.0 mm 0.00 in0.0 mm 0.00 in0.0 mm
02:32 AM -4.4°F-20.2°C -8.8°F-22.7°C 81% Calm Calm -- 30.44 in1030.8 mb 0.00 in0.0 mm 0.00 in0.0 mm 0.00 in0.0 mm
02:33 AM -4.4°F-20.2°C -8.8°F-22.7°C 81% 1.0 mph 1.6 kmh -- 30.44 in1030.8 mb 0.00 in0.0 mm 0.00 in0.0 mm 0.00 in0.0 mm
02:34 AM -4.4°F-20.2°C -8.8°F-22.7°C 81% Calm Calm -- 30.44 in1030.8 mb 0.00 in0.0 mm 0.00 in0.0 mm 0.00 in0.0 mm
02:35 AM -4.4°F-20.2°C -8.8°F-22.7°C 81% Calm Calm -- 30.44 in1030.8 mb 0.00 in0.0 mm 0.00 in0.0 mm 0.00 in0.0 mm
02:36 AM -4.4°F-20.2°C -8.8°F-22.7°C 81% Calm Calm -- 30.44 in1030.8 mb 0.00 in0.0 mm 0.00 in0.0 mm 0.00 in0.0 mm
02:37 AM -4.4°F-20.2°C -8.8°F-22.7°C 81% Calm Calm -- 30.45 in1031.2 mb 0.00 in0.0 mm 0.00 in0.0 mm 0.00 in0.0 mm
02:38 AM -4.4°F-20.2°C -8.8°F-22.7°C 81% Calm Calm -- 30.45 in1031.2 mb 0.00 in0.0 mm 0.00 in0.0 mm 0.00 in0.0 mm
02:39 AM -4.4°F-20.2°C -8.8°F-22.7°C 81% 2.0 mph W3.2 kmh W -- 30.44 in1030.8 mb 0.00 in0.0 mm 0.00 in0.0 mm 0.00 in0.0 mm
02:41 AM -4.4°F-20.2°C -8.8°F-22.7°C 81% 1.0 mph WSW1.6 kmh WSW -- 30.44 in1030.8 mb 0.00 in0.0 mm 0.00 in0.0 mm 0.00 in0.0 mm
02:43 AM -4.4°F-20.2°C -8.8°F-22.7°C 81% Calm Calm -- 30.44 in1030.8 mb 0.00 in0.0 mm 0.00 in0.0 mm 0.00 in0.0 mm
02:47 AM -4.4°F-20.2°C -8.8°F-22.7°C 81% Calm Calm -- 30.44 in1030.8 mb 0.00 in0.0 mm 0.00 in0.0 mm 0.00 in0.0 mm
02:50 AM -4.4°F-20.2°C -8.8°F-22.7°C 81% Calm Calm -- 30.44 in1030.8 mb 0.00 in0.0 mm 0.00 in0.0 mm 0.00 in0.0 mm
02:54 AM -4.4°F-20.2°C -8.8°F-22.7°C 81% Calm Calm -- 30.45 in1031.2 mb 0.00 in0.0 mm 0.00 in0.0 mm 0.00 in0.0 mm
02:55 AM -4.4°F-20.2°C -8.8°F-22.7°C 81% Calm Calm -- 30.44 in1030.8 mb 0.00 in0.0 mm 0.00 in0.0 mm 0.00 in0.0 mm
02:57 AM -4.4°F-20.2°C -8.8°F-22.7°C 81% Calm Calm -- 30.45 in1031.2 mb 0.00 in0.0 mm 0.00 in0.0 mm 0.00 in0.0 mm
02:59 AM -4.4°F-20.2°C -8.8°F-22.7°C 81% Calm Calm -- 30.44 in1030.8 mb 0.00 in0.0 mm 0.00 in0.0 mm 0.00 in0.0 mm
03:00 AM -4.5°F-20.3°C -8.9°F-22.7°C 81% Calm Calm -- 30.44 in1030.8 mb 0.00 in0.0 mm 0.00 in0.0 mm 0.00 in0.0 mm
03:07 AM -4.5°F-20.3°C -8.9°F-22.7°C 81% Calm Calm -- 30.44 in1030.8 mb 0.00 in0.0 mm 0.00 in0.0 mm 0.00 in0.0 mm
03:09 AM -4.6°F-20.3°C -8.9°F-22.7°C 81% Calm Calm -- 30.45 in1031.2 mb 0.00 in0.0 mm 0.00 in0.0 mm 0.00 in0.0 mm
03:10 AM -4.6°F-20.3°C -8.9°F-22.7°C 81% Calm Calm -- 30.45 in1031.2 mb 0.00 in0.0 mm 0.00 in0.0 mm 0.00 in0.0 mm
03:12 AM -4.6°F-20.3°C -8.4°F-22.4°C 83% 2.0 mph NW3.2 kmh NW -- 30.44 in1030.8 mb 0.00 in0.0 mm 0.00 in0.0 mm 0.00 in0.0 mm
03:13 AM -4.6°F-20.3°C -8.4°F-22.4°C 83% 1.0 mph W1.6 kmh W -- 30.44 in1030.8 mb 0.00 in0.0 mm 0.00 in0.0 mm 0.00 in0.0 mm
03:14 AM -4.6°F-20.3°C -8.4°F-22.4°C 83% 1.0 mph W1.6 kmh W -- 30.45 in1031.2 mb 0.00 in0.0 mm 0.00 in0.0 mm 0.00 in0.0 mm
03:15 AM -4.6°F-20.3°C -8.4°F-22.4°C 83% 1.0 mph WSW1.6 kmh WSW -- 30.44 in1030.8 mb 0.00 in0.0 mm 0.00 in0.0 mm 0.00 in0.0 mm
03:16 AM -4.6°F-20.3°C -8.4°F-22.4°C 83% Calm Calm -- 30.45 in1031.2 mb 0.00 in0.0 mm 0.00 in0.0 mm 0.00 in0.0 mm
03:17 AM -4.6°F-20.3°C -8.4°F-22.4°C 83% 2.0 mph WSW3.2 kmh WSW -- 30.44 in1030.8 mb 0.00 in0.0 mm 0.00 in0.0 mm 0.00 in0.0 mm
03:18 AM -4.6°F-20.3°C -8.4°F-22.4°C 83% 2.0 mph SW3.2 kmh SW -- 30.45 in1031.2 mb 0.00 in0.0 mm 0.00 in0.0 mm 0.00 in0.0 mm
03:19 AM -4.6°F-20.3°C -8.4°F-22.4°C 83% 1.0 mph SW1.6 kmh SW -- 30.44 in1030.8 mb 0.00 in0.0 mm 0.00 in0.0 mm 0.00 in0.0 mm
03:20 AM -4.6°F-20.3°C -8.4°F-22.4°C 83% Calm Calm -- 30.44 in1030.8 mb 0.00 in0.0 mm 0.00 in0.0 mm 0.00 in0.0 mm
03:22 AM -4.6°F-20.3°C -8.4°F-22.4°C 83% Calm Calm -- 30.45 in1031.2 mb 0.00 in0.0 mm 0.00 in0.0 mm 0.00 in0.0 mm
03:23 AM -4.6°F-20.3°C -8.4°F-22.4°C 83% Calm Calm -- 30.44 in1030.8 mb 0.00 in0.0 mm 0.00 in0.0 mm 0.00 in0.0 mm
03:26 AM -4.6°F-20.3°C -8.4°F-22.4°C 83% Calm Calm -- 30.44 in1030.8 mb 0.00 in0.0 mm 0.00 in0.0 mm 0.00 in0.0 mm
03:27 AM -4.7°F-20.4°C -8.6°F-22.6°C 83% Calm Calm -- 30.44 in1030.8 mb 0.00 in0.0 mm 0.00 in0.0 mm 0.00 in0.0 mm
03:28 AM -4.6°F-20.3°C -8.4°F-22.4°C 83% 1.0 mph SW1.6 kmh SW -- 30.44 in1030.8 mb 0.00 in0.0 mm 0.00 in0.0 mm 0.00 in0.0 mm
03:29 AM -4.6°F-20.3°C -8.4°F-22.4°C 83% Calm Calm -- 30.44 in1030.8 mb 0.00 in0.0 mm 0.00 in0.0 mm 0.00 in0.0 mm
03:48 AM -4.6°F-20.3°C -8.4°F-22.4°C 83% 1.0 mph WSW1.6 kmh WSW -- 30.44 in1030.8 mb 0.00 in0.0 mm 0.00 in0.0 mm 0.00 in0.0 mm
03:49 AM -4.6°F-20.3°C -8.4°F-22.4°C 83% Calm Calm -- 30.44 in1030.8 mb 0.00 in0.0 mm 0.00 in0.0 mm 0.00 in0.0 mm
03:54 AM -4.9°F-20.5°C -8.8°F-22.7°C 83% Calm Calm -- 30.44 in1030.8 mb 0.00 in0.0 mm 0.00 in0.0 mm 0.00 in0.0 mm
03:55 AM -4.9°F-20.5°C -8.8°F-22.7°C 83% 2.0 mph WSW3.2 kmh WSW -- 30.44 in1030.8 mb 0.00 in0.0 mm 0.00 in0.0 mm 0.00 in0.0 mm
03:56 AM -4.9°F-20.5°C -8.8°F-22.7°C 83% 2.0 mph W3.2 kmh W -- 30.44 in1030.8 mb 0.00 in0.0 mm 0.00 in0.0 mm 0.00 in0.0 mm
03:57 AM -4.9°F-20.5°C -8.8°F-22.7°C 83% 1.0 mph SW1.6 kmh SW -- 30.44 in1030.8 mb 0.00 in0.0 mm 0.00 in0.0 mm 0.00 in0.0 mm
03:58 AM -4.9°F-20.5°C -8.8°F-22.7°C 83% Calm Calm -- 30.44 in1030.8 mb 0.00 in0.0 mm 0.00 in0.0 mm 0.00 in0.0 mm
04:00 AM -4.9°F-20.5°C -8.8°F-22.7°C 83% 2.0 mph W3.2 kmh W -- 30.44 in1030.8 mb 0.00 in0.0 mm 0.00 in0.0 mm 0.00 in0.0 mm
04:01 AM -4.9°F-20.5°C -8.8°F-22.7°C 83% 4.0 mph W6.4 kmh W -- 30.44 in1030.8 mb 0.00 in0.0 mm 0.00 in0.0 mm 0.00 in0.0 mm
04:02 AM -4.9°F-20.5°C -8.8°F-22.7°C 83% 2.0 mph WSW3.2 kmh WSW -- 30.44 in1030.8 mb 0.00 in0.0 mm 0.00 in0.0 mm 0.00 in0.0 mm
04:03 AM -4.9°F-20.5°C -8.8°F-22.7°C 83% 1.0 mph WNW1.6 kmh WNW -- 30.44 in1030.8 mb 0.00 in0.0 mm 0.00 in0.0 mm 0.00 in0.0 mm
04:04 AM -4.9°F-20.5°C -8.8°F-22.7°C 83% Calm Calm -- 30.44 in1030.8 mb 0.00 in0.0 mm 0.00 in0.0 mm 0.00 in0.0 mm
04:05 AM -4.9°F-20.5°C -8.8°F-22.7°C 83% Calm Calm -- 30.44 in1030.8 mb 0.00 in0.0 mm 0.00 in0.0 mm 0.00 in0.0 mm
04:07 AM -4.9°F-20.5°C -8.8°F-22.7°C 83% 1.0 mph W1.6 kmh W -- 30.44 in1030.8 mb 0.00 in0.0 mm 0.00 in0.0 mm 0.00 in0.0 mm
04:09 AM -4.9°F-20.5°C -8.8°F-22.7°C 83% Calm Calm -- 30.44 in1030.8 mb 0.00 in0.0 mm 0.00 in0.0 mm 0.00 in0.0 mm
04:10 AM -4.9°F-20.5°C -8.8°F-22.7°C 83% 1.0 mph W1.6 kmh W -- 30.44 in1030.8 mb 0.00 in0.0 mm 0.00 in0.0 mm 0.00 in0.0 mm
04:11 AM -4.6°F-20.3°C -8.4°F-22.4°C 83% Calm Calm -- 30.44 in1030.8 mb 0.00 in0.0 mm 0.00 in0.0 mm 0.00 in0.0 mm
04:12 AM -4.7°F-20.4°C -8.6°F-22.6°C 83% Calm Calm -- 30.44 in1030.8 mb 0.00 in0.0 mm 0.00 in0.0 mm 0.00 in0.0 mm
04:13 AM -4.6°F-20.3°C -8.4°F-22.4°C 83% 1.0 mph WNW1.6 kmh WNW -- 30.44 in1030.8 mb 0.00 in0.0 mm 0.00 in0.0 mm 0.00 in0.0 mm
04:14 AM -4.6°F-20.3°C -8.4°F-22.4°C 83% Calm Calm -- 30.44 in1030.8 mb 0.00 in0.0 mm 0.00 in0.0 mm 0.00 in0.0 mm
04:21 AM -4.6°F-20.3°C -8.4°F-22.4°C 83% Calm Calm -- 30.43 in1030.5 mb 0.00 in0.0 mm 0.00 in0.0 mm 0.00 in0.0 mm
04:22 AM -4.6°F-20.3°C -8.4°F-22.4°C 83% 2.0 mph W3.2 kmh W -- 30.44 in1030.8 mb 0.00 in0.0 mm 0.00 in0.0 mm 0.00 in0.0 mm
04:23 AM -4.6°F-20.3°C -8.4°F-22.4°C 83% 2.0 mph WNW3.2 kmh WNW -- 30.44 in1030.8 mb 0.00 in0.0 mm 0.00 in0.0 mm 0.00 in0.0 mm
04:24 AM -4.6°F-20.3°C -8.4°F-22.4°C 83% 2.0 mph NW3.2 kmh NW -- 30.44 in1030.8 mb 0.00 in0.0 mm 0.00 in0.0 mm 0.00 in0.0 mm
04:25 AM -4.5°F-20.3°C -8.4°F-22.4°C 83% 3.0 mph W4.8 kmh W -- 30.44 in1030.8 mb 0.00 in0.0 mm 0.00 in0.0 mm 0.00 in0.0 mm
04:26 AM -4.5°F-20.3°C -8.4°F-22.4°C 83% 1.0 mph W1.6 kmh W -- 30.44 in1030.8 mb 0.00 in0.0 mm 0.00 in0.0 mm 0.00 in0.0 mm
04:27 AM -4.5°F-20.3°C -8.4°F-22.4°C 83% 2.0 mph W3.2 kmh W -- 30.43 in1030.5 mb 0.00 in0.0 mm 0.00 in0.0 mm 0.00 in0.0 mm
04:29 AM -4.5°F-20.3°C -8.4°F-22.4°C 83% 1.0 mph W1.6 kmh W -- 30.43 in1030.5 mb 0.00 in0.0 mm 0.00 in0.0 mm 0.00 in0.0 mm
04:30 AM -4.5°F-20.3°C -8.4°F-22.4°C 83% Calm Calm -- 30.43 in1030.5 mb 0.00 in0.0 mm 0.00 in0.0 mm 0.00 in0.0 mm
04:31 AM -4.5°F-20.3°C -8.4°F-22.4°C 83% Calm Calm -- 30.43 in1030.5 mb 0.00 in0.0 mm 0.00 in0.0 mm 0.00 in0.0 mm
04:32 AM -4.4°F-20.2°C -8.2°F-22.3°C 83% Calm Calm -- 30.43 in1030.5 mb 0.00 in0.0 mm 0.00 in0.0 mm 0.00 in0.0 mm
04:35 AM -4.4°F-20.2°C -8.2°F-22.3°C 83% 2.0 mph W3.2 kmh W -- 30.43 in1030.5 mb 0.00 in0.0 mm 0.00 in0.0 mm 0.00 in0.0 mm
04:36 AM -4.4°F-20.2°C -8.2°F-22.3°C 83% 1.0 mph W1.6 kmh W -- 30.43 in1030.5 mb 0.00 in0.0 mm 0.00 in0.0 mm 0.00 in0.0 mm
04:38 AM -4.4°F-20.2°C -8.2°F-22.3°C 83% 3.0 mph WSW4.8 kmh WSW -- 30.42 in1030.1 mb 0.00 in0.0 mm 0.00 in0.0 mm 0.00 in0.0 mm
04:39 AM -4.4°F-20.2°C -8.2°F-22.3°C 83% Calm Calm -- 30.42 in1030.1 mb 0.00 in0.0 mm 0.00 in0.0 mm 0.00 in0.0 mm
04:40 AM -4.4°F-20.2°C -8.2°F-22.3°C 83% Calm Calm -- 30.43 in1030.5 mb 0.00 in0.0 mm 0.00 in0.0 mm 0.00 in0.0 mm
04:44 AM -4.5°F-20.3°C -8.4°F-22.4°C 83% 2.0 mph SW3.2 kmh SW -- 30.44 in1030.8 mb 0.00 in0.0 mm 0.00 in0.0 mm 0.00 in0.0 mm
04:45 AM -4.5°F-20.3°C -8.4°F-22.4°C 83% Calm Calm -- 30.43 in1030.5 mb 0.00 in0.0 mm 0.00 in0.0 mm 0.00 in0.0 mm
04:48 AM -4.5°F-20.3°C -8.4°F-22.4°C 83% 2.0 mph WSW3.2 kmh WSW -- 30.43 in1030.5 mb 0.00 in0.0 mm 0.00 in0.0 mm 0.00 in0.0 mm
04:49 AM -4.5°F-20.3°C -8.4°F-22.4°C 83% 1.0 mph W1.6 kmh W -- 30.43 in1030.5 mb 0.00 in0.0 mm 0.00 in0.0 mm 0.00 in0.0 mm
04:51 AM -4.5°F-20.3°C -8.4°F-22.4°C 83% 2.0 mph WSW3.2 kmh WSW -- 30.43 in1030.5 mb 0.00 in0.0 mm 0.00 in0.0 mm 0.00 in0.0 mm
04:52 AM -4.5°F-20.3°C -8.4°F-22.4°C 83% 1.0 mph W1.6 kmh W -- 30.43 in1030.5 mb 0.00 in0.0 mm 0.00 in0.0 mm 0.00 in0.0 mm
04:53 AM -4.5°F-20.3°C -8.4°F-22.4°C 83% 2.0 mph W3.2 kmh W -- 30.43 in1030.5 mb 0.00 in0.0 mm 0.00 in0.0 mm 0.00 in0.0 mm
04:54 AM -4.5°F-20.3°C -8.4°F-22.4°C 83% 1.0 mph WSW1.6 kmh WSW -- 30.43 in1030.5 mb 0.00 in0.0 mm 0.00 in0.0 mm 0.00 in0.0 mm
04:55 AM -4.6°F-20.3°C -8.4°F-22.4°C 83% 2.0 mph WSW3.2 kmh WSW -- 30.43 in1030.5 mb 0.00 in0.0 mm 0.00 in0.0 mm 0.00 in0.0 mm
04:56 AM -4.6°F-20.3°C -8.4°F-22.4°C 83% 1.0 mph W1.6 kmh W -- 30.43 in1030.5 mb 0.00 in0.0 mm 0.00 in0.0 mm 0.00 in0.0 mm
04:57 AM -4.6°F-20.3°C -8.4°F-22.4°C 83% 2.0 mph W3.2 kmh W -- 30.43 in1030.5 mb 0.00 in0.0 mm 0.00 in0.0 mm 0.00 in0.0 mm
04:59 AM -4.6°F-20.3°C -8.4°F-22.4°C 83% 1.0 mph W1.6 kmh W -- 30.43 in1030.5 mb 0.00 in0.0 mm 0.00 in0.0 mm 0.00 in0.0 mm
05:01 AM -4.6°F-20.3°C -8.4°F-22.4°C 83% 2.0 mph WSW3.2 kmh WSW -- 30.43 in1030.5 mb 0.00 in0.0 mm 0.00 in0.0 mm 0.00 in0.0 mm
05:02 AM -4.6°F-20.3°C -8.4°F-22.4°C 83% 2.0 mph W3.2 kmh W -- 30.43 in1030.5 mb 0.00 in0.0 mm 0.00 in0.0 mm 0.00 in0.0 mm
05:03 AM -4.6°F-20.3°C -8.4°F-22.4°C 83% 1.0 mph W1.6 kmh W -- 30.43 in1030.5 mb 0.00 in0.0 mm 0.00 in0.0 mm 0.00 in0.0 mm
05:04 AM -4.6°F-20.3°C -8.4°F-22.4°C 83% 2.0 mph W3.2 kmh W -- 30.43 in1030.5 mb 0.00 in0.0 mm 0.00 in0.0 mm 0.00 in0.0 mm
05:05 AM -4.6°F-20.3°C -8.4°F-22.4°C 83% 1.0 mph W1.6 kmh W -- 30.43 in1030.5 mb 0.00 in0.0 mm 0.00 in0.0 mm 0.00 in0.0 mm
05:06 AM -4.9°F-20.5°C -8.8°F-22.7°C 83% 1.0 mph W1.6 kmh W -- 30.43 in1030.5 mb 0.00 in0.0 mm 0.00 in0.0 mm 0.00 in0.0 mm
05:07 AM -4.9°F-20.5°C -8.8°F-22.7°C 83% Calm Calm -- 30.43 in1030.5 mb 0.00 in0.0 mm 0.00 in0.0 mm 0.00 in0.0 mm
05:08 AM -4.9°F-20.5°C -8.8°F-22.7°C 83% 2.0 mph WSW3.2 kmh WSW -- 30.43 in1030.5 mb 0.00 in0.0 mm 0.00 in0.0 mm 0.00 in0.0 mm
05:09 AM -4.9°F-20.5°C -8.8°F-22.7°C 83% 2.0 mph W3.2 kmh W -- 30.43 in1030.5 mb 0.00 in0.0 mm 0.00 in0.0 mm 0.00 in0.0 mm
05:11 AM -4.9°F-20.5°C -8.8°F-22.7°C 83% 1.0 mph W1.6 kmh W -- 30.43 in1030.5 mb 0.00 in0.0 mm 0.00 in0.0 mm 0.00 in0.0 mm
05:12 AM -4.9°F-20.5°C -8.8°F-22.7°C 83% 2.0 mph WSW3.2 kmh WSW -- 30.43 in1030.5 mb 0.00 in0.0 mm 0.00 in0.0 mm 0.00 in0.0 mm
05:13 AM -4.9°F-20.5°C -8.8°F-22.7°C 83% 1.0 mph W1.6 kmh W -- 30.43 in1030.5 mb 0.00 in0.0 mm 0.00 in0.0 mm 0.00 in0.0 mm
05:14 AM -4.9°F-20.5°C -8.8°F-22.7°C 83% 2.0 mph WSW3.2 kmh WSW -- 30.43 in1030.5 mb 0.00 in0.0 mm 0.00 in0.0 mm 0.00 in0.0 mm
05:15 AM -4.9°F-20.5°C -8.8°F-22.7°C 83% 1.0 mph W1.6 kmh W -- 30.43 in1030.5 mb 0.00 in0.0 mm 0.00 in0.0 mm 0.00 in0.0 mm
05:16 AM -4.9°F-20.5°C -8.8°F-22.7°C 83% 2.0 mph W3.2 kmh W -- 30.43 in1030.5 mb 0.00 in0.0 mm 0.00 in0.0 mm 0.00 in0.0 mm
05:17 AM -4.9°F-20.5°C -8.8°F-22.7°C 83% 2.0 mph WSW3.2 kmh WSW -- 30.43 in1030.5 mb 0.00 in0.0 mm 0.00 in0.0 mm 0.00 in0.0 mm
05:18 AM -4.9°F-20.5°C -8.8°F-22.7°C 83% 1.0 mph WSW1.6 kmh WSW -- 30.44 in1030.8 mb 0.00 in0.0 mm 0.00 in0.0 mm 0.00 in0.0 mm
05:19 AM -4.9°F-20.5°C -8.8°F-22.7°C 83% 1.0 mph W1.6 kmh W -- 30.43 in1030.5 mb 0.00 in0.0 mm 0.00 in0.0 mm 0.00 in0.0 mm
05:21 AM -4.9°F-20.5°C -8.8°F-22.7°C 83% 3.0 mph W4.8 kmh W -- 30.43 in1030.5 mb 0.00 in0.0 mm 0.00 in0.0 mm 0.00 in0.0 mm
05:22 AM -4.6°F-20.3°C -8.4°F-22.4°C 83% 2.0 mph W3.2 kmh W -- 30.44 in1030.8 mb 0.00 in0.0 mm 0.00 in0.0 mm 0.00 in0.0 mm
05:24 AM -4.6°F-20.3°C -8.4°F-22.4°C 83% 1.0 mph W1.6 kmh W -- 30.44 in1030.8 mb 0.00 in0.0 mm 0.00 in0.0 mm 0.00 in0.0 mm
05:25 AM -4.6°F-20.3°C -8.4°F-22.4°C 83% 1.0 mph W1.6 kmh W -- 30.43 in1030.5 mb 0.00 in0.0 mm 0.00 in0.0 mm 0.00 in0.0 mm
05:26 AM -4.6°F-20.3°C -8.4°F-22.4°C 83% 3.0 mph WNW4.8 kmh WNW -- 30.43 in1030.5 mb 0.00 in0.0 mm 0.00 in0.0 mm 0.00 in0.0 mm
05:27 AM -4.7°F-20.4°C -8.6°F-22.6°C 83% 1.0 mph WNW1.6 kmh WNW -- 30.43 in1030.5 mb 0.00 in0.0 mm 0.00 in0.0 mm 0.00 in0.0 mm
05:28 AM -4.6°F-20.3°C -8.4°F-22.4°C 83% Calm Calm -- 30.43 in1030.5 mb 0.00 in0.0 mm 0.00 in0.0 mm 0.00 in0.0 mm
05:29 AM -4.6°F-20.3°C -8.4°F-22.4°C 83% Calm Calm -- 30.43 in1030.5 mb 0.00 in0.0 mm 0.00 in0.0 mm 0.00 in0.0 mm
05:30 AM -4.6°F-20.3°C -8.4°F-22.4°C 83% 2.0 mph NNW3.2 kmh NNW -- 30.43 in1030.5 mb 0.00 in0.0 mm 0.00 in0.0 mm 0.00 in0.0 mm
05:31 AM -4.9°F-20.5°C -8.8°F-22.7°C 83% 2.0 mph 3.2 kmh -- 30.43 in1030.5 mb 0.00 in0.0 mm 0.00 in0.0 mm 0.00 in0.0 mm
05:32 AM -4.9°F-20.5°C -8.8°F-22.7°C 83% 2.0 mph NNW3.2 kmh NNW -- 30.43 in1030.5 mb 0.00 in0.0 mm 0.00 in0.0 mm 0.00 in0.0 mm
05:33 AM -4.9°F-20.5°C -8.8°F-22.7°C 83% 2.0 mph 3.2 kmh -- 30.43 in1030.5 mb 0.00 in0.0 mm 0.00 in0.0 mm 0.00 in0.0 mm
05:34 AM -4.9°F-20.5°C -8.8°F-22.7°C 83% Calm Calm -- 30.43 in1030.5 mb 0.00 in0.0 mm 0.00 in0.0 mm 0.00 in0.0 mm
05:35 AM -4.9°F-20.5°C -8.8°F-22.7°C 83% 1.0 mph 1.6 kmh -- 30.43 in1030.5 mb 0.00 in0.0 mm 0.00 in0.0 mm 0.00 in0.0 mm
05:36 AM -4.9°F-20.5°C -8.8°F-22.7°C 83% Calm Calm -- 30.43 in1030.5 mb 0.00 in0.0 mm 0.00 in0.0 mm 0.00 in0.0 mm
05:37 AM -4.9°F-20.5°C -8.8°F-22.7°C 83% 1.0 mph WNW1.6 kmh WNW -- 30.43 in1030.5 mb 0.00 in0.0 mm 0.00 in0.0 mm 0.00 in0.0 mm
05:38 AM -4.9°F-20.5°C -8.8°F-22.7°C 83% Calm Calm -- 30.43 in1030.5 mb 0.00 in0.0 mm 0.00 in0.0 mm 0.00 in0.0 mm
05:39 AM -4.9°F-20.5°C -8.8°F-22.7°C 83% Calm Calm -- 30.43 in1030.5 mb 0.00 in0.0 mm 0.00 in0.0 mm 0.00 in0.0 mm
05:40 AM -4.9°F-20.5°C -8.8°F-22.7°C 83% 1.0 mph W1.6 kmh W -- 30.43 in1030.5 mb 0.00 in0.0 mm 0.00 in0.0 mm 0.00 in0.0 mm
05:41 AM -5.0°F-20.6°C -9.0°F-22.8°C 83% 2.0 mph W3.2 kmh W -- 30.43 in1030.5 mb 0.00 in0.0 mm 0.00 in0.0 mm 0.00 in0.0 mm
05:42 AM -5.0°F-20.6°C -9.0°F-22.8°C 83% 2.0 mph WNW3.2 kmh WNW -- 30.42 in1030.1 mb 0.00 in0.0 mm 0.00 in0.0 mm 0.00 in0.0 mm
05:44 AM -5.0°F-20.6°C -9.0°F-22.8°C 83% 2.0 mph W3.2 kmh W -- 30.42 in1030.1 mb 0.00 in0.0 mm 0.00 in0.0 mm 0.00 in0.0 mm
05:45 AM -5.0°F-20.6°C -9.0°F-22.8°C 83% 1.0 mph WNW1.6 kmh WNW -- 30.43 in1030.5 mb 0.00 in0.0 mm 0.00 in0.0 mm 0.00 in0.0 mm
05:46 AM -5.0°F-20.6°C -9.0°F-22.8°C 83% 2.0 mph W3.2 kmh W -- 30.43 in1030.5 mb 0.00 in0.0 mm 0.00 in0.0 mm 0.00 in0.0 mm
05:47 AM -5.3°F-20.7°C -9.1°F-22.8°C 83% 2.0 mph W3.2 kmh W -- 30.43 in1030.5 mb 0.00 in0.0 mm 0.00 in0.0 mm 0.00 in0.0 mm
05:51 AM -5.3°F-20.7°C -9.1°F-22.8°C 83% 2.0 mph WSW3.2 kmh WSW -- 30.43 in1030.5 mb 0.00 in0.0 mm 0.00 in0.0 mm 0.00 in0.0 mm
05:52 AM -5.3°F-20.7°C -9.1°F-22.8°C 83% 2.0 mph W3.2 kmh W -- 30.43 in1030.5 mb 0.00 in0.0 mm 0.00 in0.0 mm 0.00 in0.0 mm
05:54 AM -5.3°F-20.7°C -9.1°F-22.8°C 83% 2.0 mph SW3.2 kmh SW -- 30.43 in1030.5 mb 0.00 in0.0 mm 0.00 in0.0 mm 0.00 in0.0 mm
05:55 AM -5.3°F-20.7°C -9.1°F-22.8°C 83% 2.0 mph WSW3.2 kmh WSW -- 30.43 in1030.5 mb 0.00 in0.0 mm 0.00 in0.0 mm 0.00 in0.0 mm
05:56 AM -5.3°F-20.7°C -9.1°F-22.8°C 83% 2.0 mph W3.2 kmh W -- 30.43 in1030.5 mb 0.00 in0.0 mm 0.00 in0.0 mm 0.00 in0.0 mm
05:58 AM -5.3°F-20.7°C -9.1°F-22.8°C 83% Calm Calm -- 30.43 in1030.5 mb 0.00 in0.0 mm 0.00 in0.0 mm 0.00 in0.0 mm
06:00 AM -5.3°F-20.7°C -9.1°F-22.8°C 83% 2.0 mph W3.2 kmh W -- 30.43 in1030.5 mb 0.00 in0.0 mm 0.00 in0.0 mm 0.00 in0.0 mm
06:01 AM -5.3°F-20.7°C -9.1°F-22.8°C 83% 1.0 mph SW1.6 kmh SW -- 30.43 in1030.5 mb 0.00 in0.0 mm 0.00 in0.0 mm 0.00 in0.0 mm
06:02 AM -5.3°F-20.7°C -9.1°F-22.8°C 83% 1.0 mph W1.6 kmh W -- 30.43 in1030.5 mb 0.00 in0.0 mm 0.00 in0.0 mm 0.00 in0.0 mm
06:03 AM -5.3°F-20.7°C -9.1°F-22.8°C 83% 2.0 mph W3.2 kmh W -- 30.43 in1030.5 mb 0.00 in0.0 mm 0.00 in0.0 mm 0.00 in0.0 mm
06:04 AM -5.3°F-20.7°C -9.1°F-22.8°C 83% 2.0 mph NNW3.2 kmh NNW -- 30.43 in1030.5 mb 0.00 in0.0 mm 0.00 in0.0 mm 0.00 in0.0 mm
06:05 AM -5.3°F-20.7°C -9.1°F-22.8°C 83% 2.0 mph 3.2 kmh -- 30.43 in1030.5 mb 0.00 in0.0 mm 0.00 in0.0 mm 0.00 in0.0 mm
06:06 AM -5.3°F-20.7°C -9.1°F-22.8°C 83% 3.0 mph 4.8 kmh -- 30.43 in1030.5 mb 0.00 in0.0 mm 0.00 in0.0 mm 0.00 in0.0 mm
06:07 AM -5.3°F-20.7°C -9.1°F-22.8°C 83% 4.0 mph NW6.4 kmh NW -- 30.43 in1030.5 mb 0.00 in0.0 mm 0.00 in0.0 mm 0.00 in0.0 mm
06:08 AM -5.3°F-20.7°C -9.1°F-22.8°C 83% 3.0 mph NNE4.8 kmh NNE -- 30.43 in1030.5 mb 0.00 in0.0 mm 0.00 in0.0 mm 0.00 in0.0 mm
06:09 AM -5.3°F-20.7°C -9.1°F-22.8°C 83% 1.0 mph NNE1.6 kmh NNE -- 30.43 in1030.5 mb 0.00 in0.0 mm 0.00 in0.0 mm 0.00 in0.0 mm
06:10 AM -5.3°F-20.7°C -9.1°F-22.8°C 83% Calm Calm -- 30.43 in1030.5 mb 0.00 in0.0 mm 0.00 in0.0 mm 0.00 in0.0 mm
06:11 AM -5.3°F-20.7°C -9.1°F-22.8°C 83% Calm Calm -- 30.43 in1030.5 mb 0.00 in0.0 mm 0.00 in0.0 mm 0.00 in0.0 mm
06:12 AM -5.3°F-20.7°C -9.1°F-22.8°C 83% 2.0 mph W3.2 kmh W -- 30.43 in1030.5 mb 0.00 in0.0 mm 0.00 in0.0 mm 0.00 in0.0 mm
06:14 AM -5.3°F-20.7°C -9.1°F-22.8°C 83% 1.0 mph W1.6 kmh W -- 30.43 in1030.5 mb 0.00 in0.0 mm 0.00 in0.0 mm 0.00 in0.0 mm
06:16 AM -5.3°F-20.7°C -9.1°F-22.8°C 83% Calm Calm -- 30.43 in1030.5 mb 0.00 in0.0 mm 0.00 in0.0 mm 0.00 in0.0 mm
06:17 AM -5.3°F-20.7°C -9.1°F-22.8°C 83% Calm Calm -- 30.43 in1030.5 mb 0.00 in0.0 mm 0.00 in0.0 mm 0.00 in0.0 mm
06:19 AM -5.3°F-20.7°C -9.1°F-22.8°C 83% 2.0 mph W3.2 kmh W -- 30.43 in1030.5 mb 0.00 in0.0 mm 0.00 in0.0 mm 0.00 in0.0 mm
06:20 AM -5.3°F-20.7°C -9.1°F-22.8°C 83% Calm Calm -- 30.43 in1030.5 mb 0.00 in0.0 mm 0.00 in0.0 mm 0.00 in0.0 mm
06:22 AM -5.3°F-20.7°C -9.1°F-22.8°C 83% Calm Calm -- 30.42 in1030.1 mb 0.00 in0.0 mm 0.00 in0.0 mm 0.00 in0.0 mm
06:23 AM -5.3°F-20.7°C -9.1°F-22.8°C 83% 1.0 mph W1.6 kmh W -- 30.43 in1030.5 mb 0.00 in0.0 mm 0.00 in0.0 mm 0.00 in0.0 mm
06:24 AM -5.4°F-20.8°C -9.3°F-22.9°C 83% 1.0 mph W1.6 kmh W -- 30.42 in1030.1 mb 0.00 in0.0 mm 0.00 in0.0 mm 0.00 in0.0 mm
06:25 AM -5.4°F-20.8°C -9.3°F-22.9°C 83% 1.0 mph W1.6 kmh W -- 30.43 in1030.5 mb 0.00 in0.0 mm 0.00 in0.0 mm 0.00 in0.0 mm
06:26 AM -5.4°F-20.8°C -9.3°F-22.9°C 83% 2.0 mph W3.2 kmh W -- 30.43 in1030.5 mb 0.00 in0.0 mm 0.00 in0.0 mm 0.00 in0.0 mm
06:27 AM -5.4°F-20.8°C -9.3°F-22.9°C 83% 2.0 mph W3.2 kmh W -- 30.42 in1030.1 mb 0.00 in0.0 mm 0.00 in0.0 mm 0.00 in0.0 mm
06:29 AM -5.4°F-20.8°C -9.3°F-22.9°C 83% 2.0 mph WNW3.2 kmh WNW -- 30.42 in1030.1 mb 0.00 in0.0 mm 0.00 in0.0 mm 0.00 in0.0 mm
06:31 AM -5.4°F-20.8°C -9.3°F-22.9°C 83% 1.0 mph WNW1.6 kmh WNW -- 30.42 in1030.1 mb 0.00 in0.0 mm 0.00 in0.0 mm 0.00 in0.0 mm
06:32 AM -5.4°F-20.8°C -9.3°F-22.9°C 83% 1.0 mph NW1.6 kmh NW -- 30.43 in1030.5 mb 0.00 in0.0 mm 0.00 in0.0 mm 0.00 in0.0 mm
06:33 AM -5.4°F-20.8°C -9.3°F-22.9°C 83% Calm Calm -- 30.43 in1030.5 mb 0.00 in0.0 mm 0.00 in0.0 mm 0.00 in0.0 mm
06:34 AM -5.4°F-20.8°C -9.3°F-22.9°C 83% Calm Calm -- 30.42 in1030.1 mb 0.00 in0.0 mm 0.00 in0.0 mm 0.00 in0.0 mm
06:35 AM -5.4°F-20.8°C -9.3°F-22.9°C 83% Calm Calm -- 30.43 in1030.5 mb 0.00 in0.0 mm 0.00 in0.0 mm 0.00 in0.0 mm
06:36 AM -5.5°F-20.8°C -9.3°F-22.9°C 83% Calm Calm -- 30.42 in1030.1 mb 0.00 in0.0 mm 0.00 in0.0 mm 0.00 in0.0 mm
06:38 AM -5.5°F-20.8°C -9.3°F-22.9°C 83% Calm Calm -- 30.43 in1030.5 mb 0.00 in0.0 mm 0.00 in0.0 mm 0.00 in0.0 mm
06:40 AM -5.8°F-21.0°C -9.7°F-23.2°C 83% 1.0 mph W1.6 kmh W -- 30.42 in1030.1 mb 0.00 in0.0 mm 0.00 in0.0 mm 0.00 in0.0 mm
06:41 AM -5.8°F-21.0°C -9.7°F-23.2°C 83% 1.0 mph WSW1.6 kmh WSW -- 30.42 in1030.1 mb 0.00 in0.0 mm 0.00 in0.0 mm 0.00 in0.0 mm
06:42 AM -5.8°F-21.0°C -9.7°F-23.2°C 83% Calm Calm -- 30.42 in1030.1 mb 0.00 in0.0 mm 0.00 in0.0 mm 0.00 in0.0 mm
06:43 AM -5.8°F-21.0°C -9.7°F-23.2°C 83% Calm Calm -- 30.42 in1030.1 mb 0.00 in0.0 mm 0.00 in0.0 mm 0.00 in0.0 mm
06:44 AM -5.8°F-21.0°C -9.7°F-23.2°C 83% 2.0 mph NW3.2 kmh NW -- 30.42 in1030.1 mb 0.00 in0.0 mm 0.00 in0.0 mm 0.00 in0.0 mm
06:45 AM -5.8°F-21.0°C -9.7°F-23.2°C 83% 1.0 mph WNW1.6 kmh WNW -- 30.42 in1030.1 mb 0.00 in0.0 mm 0.00 in0.0 mm 0.00 in0.0 mm
06:46 AM -5.8°F-21.0°C -9.7°F-23.2°C 83% 2.0 mph WNW3.2 kmh WNW -- 30.42 in1030.1 mb 0.00 in0.0 mm 0.00 in0.0 mm 0.00 in0.0 mm
06:47 AM -6.0°F-21.1°C -9.8°F-23.2°C 83% 2.0 mph WNW3.2 kmh WNW -- 30.42 in1030.1 mb 0.00 in0.0 mm 0.00 in0.0 mm 0.00 in0.0 mm
06:50 AM -6.0°F-21.1°C -9.8°F-23.2°C 83% 2.0 mph W3.2 kmh W -- 30.42 in1030.1 mb 0.00 in0.0 mm 0.00 in0.0 mm 0.00 in0.0 mm
06:51 AM -6.0°F-21.1°C -9.8°F-23.2°C 83% Calm Calm -- 30.42 in1030.1 mb 0.00 in0.0 mm 0.00 in0.0 mm 0.00 in0.0 mm
06:52 AM -6.0°F-21.1°C -9.8°F-23.2°C 83% 1.0 mph W1.6 kmh W -- 30.42 in1030.1 mb 0.00 in0.0 mm 0.00 in0.0 mm 0.00 in0.0 mm
06:53 AM -6.0°F-21.1°C -9.8°F-23.2°C 83% Calm Calm -- 30.42 in1030.1 mb 0.00 in0.0 mm 0.00 in0.0 mm 0.00 in0.0 mm
06:54 AM -6.0°F-21.1°C -9.8°F-23.2°C 83% 1.0 mph W1.6 kmh W -- 30.42 in1030.1 mb 0.00 in0.0 mm 0.00 in0.0 mm 0.00 in0.0 mm
06:55 AM -6.0°F-21.1°C -9.8°F-23.2°C 83% Calm Calm -- 30.42 in1030.1 mb 0.00 in0.0 mm 0.00 in0.0 mm 0.00 in0.0 mm
06:56 AM -6.0°F-21.1°C -9.8°F-23.2°C 83% Calm Calm -- 30.42 in1030.1 mb 0.00 in0.0 mm 0.00 in0.0 mm 0.00 in0.0 mm
06:57 AM -6.0°F-21.1°C -9.8°F-23.2°C 83% 2.0 mph W3.2 kmh W -- 30.42 in1030.1 mb 0.00 in0.0 mm 0.00 in0.0 mm 0.00 in0.0 mm
06:58 AM -6.0°F-21.1°C -9.8°F-23.2°C 83% Calm Calm -- 30.42 in1030.1 mb 0.00 in0.0 mm 0.00 in0.0 mm 0.00 in0.0 mm
06:59 AM -6.0°F-21.1°C -9.8°F-23.2°C 83% 1.0 mph W1.6 kmh W -- 30.42 in1030.1 mb 0.00 in0.0 mm 0.00 in0.0 mm 0.00 in0.0 mm
07:00 AM -6.0°F-21.1°C -9.8°F-23.2°C 83% 1.0 mph WNW1.6 kmh WNW -- 30.42 in1030.1 mb 0.00 in0.0 mm 0.00 in0.0 mm 0.00 in0.0 mm
07:02 AM -6.0°F-21.1°C -9.8°F-23.2°C 83% 2.0 mph WNW3.2 kmh WNW -- 30.42 in1030.1 mb 0.00 in0.0 mm 0.00 in0.0 mm 0.00 in0.0 mm
07:03 AM -6.0°F-21.1°C -9.8°F-23.2°C 83% 2.0 mph W3.2 kmh W -- 30.42 in1030.1 mb 0.00 in0.0 mm 0.00 in0.0 mm 0.00 in0.0 mm
07:04 AM -6.0°F-21.1°C -9.8°F-23.2°C 83% 1.0 mph WNW1.6 kmh WNW -- 30.42 in1030.1 mb 0.00 in0.0 mm 0.00 in0.0 mm 0.00 in0.0 mm
07:06 AM -6.0°F-21.1°C -9.8°F-23.2°C 83% 1.0 mph W1.6 kmh W -- 30.42 in1030.1 mb 0.00 in0.0 mm 0.00 in0.0 mm 0.00 in0.0 mm
07:07 AM -6.0°F-21.1°C -9.8°F-23.2°C 83% Calm Calm -- 30.42 in1030.1 mb 0.00 in0.0 mm 0.00 in0.0 mm 0.00 in0.0 mm
07:08 AM -6.0°F-21.1°C -9.8°F-23.2°C 83% 1.0 mph W1.6 kmh W -- 30.42 in1030.1 mb 0.00 in0.0 mm 0.00 in0.0 mm 0.00 in0.0 mm
07:09 AM -6.0°F-21.1°C -9.8°F-23.2°C 83% 1.0 mph WSW1.6 kmh WSW -- 30.42 in1030.1 mb 0.00 in0.0 mm 0.00 in0.0 mm 0.00 in0.0 mm
07:10 AM -6.0°F-21.1°C -9.8°F-23.2°C 83% Calm Calm -- 30.42 in1030.1 mb 0.00 in0.0 mm 0.00 in0.0 mm 0.00 in0.0 mm
07:15 AM -6.1°F-21.2°C -10.0°F-23.3°C 83% 2.0 mph NNW3.2 kmh NNW -- 30.42 in1030.1 mb 0.00 in0.0 mm 0.00 in0.0 mm 0.00 in0.0 mm
07:16 AM -6.1°F-21.2°C -10.0°F-23.3°C 83% 2.0 mph 3.2 kmh -- 30.41 in1029.8 mb 0.00 in0.0 mm 0.00 in0.0 mm 0.00 in0.0 mm
07:17 AM -6.1°F-21.2°C -10.0°F-23.3°C 83% 1.0 mph NNW1.6 kmh NNW -- 30.42 in1030.1 mb 0.00 in0.0 mm 0.00 in0.0 mm 0.00 in0.0 mm
07:18 AM -6.1°F-21.2°C -10.0°F-23.3°C 83% 1.0 mph 1.6 kmh -- 30.42 in1030.1 mb 0.00 in0.0 mm 0.00 in0.0 mm 0.00 in0.0 mm
07:19 AM -6.1°F-21.2°C -10.0°F-23.3°C 83% Calm Calm -- 30.42 in1030.1 mb 0.00 in0.0 mm 0.00 in0.0 mm 0.00 in0.0 mm
07:21 AM -6.1°F-21.2°C -10.0°F-23.3°C 83% Calm Calm -- 30.42 in1030.1 mb 0.00 in0.0 mm 0.00 in0.0 mm 0.00 in0.0 mm
07:23 AM -6.1°F-21.2°C -10.0°F-23.3°C 83% Calm Calm -- 30.42 in1030.1 mb 0.00 in0.0 mm 0.00 in0.0 mm 0.00 in0.0 mm
07:25 AM -6.1°F-21.2°C -10.0°F-23.3°C 83% Calm Calm -- 30.42 in1030.1 mb 0.00 in0.0 mm 0.00 in0.0 mm 0.00 in0.0 mm
07:27 AM -6.3°F-21.3°C -10.2°F-23.4°C 83% Calm Calm -- 30.42 in1030.1 mb 0.00 in0.0 mm 0.00 in0.0 mm 0.00 in0.0 mm
07:30 AM -6.5°F-21.4°C -10.4°F-23.6°C 83% 2.0 mph WNW3.2 kmh WNW -- 30.42 in1030.1 mb 0.00 in0.0 mm 0.00 in0.0 mm 0.00 in0.0 mm
07:31 AM -6.5°F-21.4°C -10.4°F-23.6°C 83% Calm Calm -- 30.42 in1030.1 mb 0.00 in0.0 mm 0.00 in0.0 mm 0.00 in0.0 mm
07:33 AM -6.5°F-21.4°C -10.4°F-23.6°C 83% Calm Calm -- 30.42 in1030.1 mb 0.00 in0.0 mm 0.00 in0.0 mm 0.00 in0.0 mm
07:34 AM -6.5°F-21.4°C -10.4°F-23.6°C 83% Calm Calm -- 30.42 in1030.1 mb 0.00 in0.0 mm 0.00 in0.0 mm 0.00 in0.0 mm
07:35 AM -6.5°F-21.4°C -10.4°F-23.6°C 83% Calm Calm -- 30.41 in1029.8 mb 0.00 in0.0 mm 0.00 in0.0 mm 0.00 in0.0 mm
07:36 AM -6.5°F-21.4°C -10.4°F-23.6°C 83% Calm Calm -- 30.42 in1030.1 mb 0.00 in0.0 mm 0.00 in0.0 mm 0.00 in0.0 mm
07:45 AM -6.6°F-21.4°C -10.4°F-23.6°C 83% Calm Calm -- 30.41 in1029.8 mb 0.00 in0.0 mm 0.00 in0.0 mm 0.00 in0.0 mm
07:47 AM -6.6°F-21.4°C -10.4°F-23.6°C 83% 2.0 mph SW3.2 kmh SW -- 30.41 in1029.8 mb 0.00 in0.0 mm 0.00 in0.0 mm 0.00 in0.0 mm
07:48 AM -6.6°F-21.4°C -10.4°F-23.6°C 83% 1.0 mph S1.6 kmh S -- 30.42 in1030.1 mb 0.00 in0.0 mm 0.00 in0.0 mm 0.00 in0.0 mm
07:49 AM -6.6°F-21.4°C -10.4°F-23.6°C 83% Calm Calm -- 30.42 in1030.1 mb 0.00 in0.0 mm 0.00 in0.0 mm 0.00 in0.0 mm
07:54 AM -6.6°F-21.4°C -10.4°F-23.6°C 83% Calm Calm -- 30.42 in1030.1 mb 0.00 in0.0 mm 0.00 in0.0 mm 0.00 in0.0 mm
07:55 AM -6.5°F-21.4°C -10.4°F-23.6°C 83% 1.0 mph NW1.6 kmh NW -- 30.42 in1030.1 mb 0.00 in0.0 mm 0.00 in0.0 mm 0.00 in0.0 mm
07:56 AM -6.6°F-21.4°C -10.4°F-23.6°C 83% Calm Calm -- 30.42 in1030.1 mb 0.00 in0.0 mm 0.00 in0.0 mm 0.00 in0.0 mm
07:57 AM -6.6°F-21.4°C -10.4°F-23.6°C 83% Calm Calm -- 30.41 in1029.8 mb 0.00 in0.0 mm 0.00 in0.0 mm 0.00 in0.0 mm
07:58 AM -6.6°F-21.4°C -10.4°F-23.6°C 83% 1.0 mph W1.6 kmh W -- 30.41 in1029.8 mb 0.00 in0.0 mm 0.00 in0.0 mm 0.00 in0.0 mm
07:59 AM -6.6°F-21.4°C -10.4°F-23.6°C 83% Calm Calm -- 30.41 in1029.8 mb 0.00 in0.0 mm 0.00 in0.0 mm 0.00 in0.0 mm
08:00 AM -6.6°F-21.4°C -10.4°F-23.6°C 83% 2.0 mph NNW3.2 kmh NNW -- 30.41 in1029.8 mb 0.00 in0.0 mm 0.00 in0.0 mm 0.00 in0.0 mm
08:02 AM -6.6°F-21.4°C -10.4°F-23.6°C 83% 2.0 mph WNW3.2 kmh WNW -- 30.42 in1030.1 mb 0.00 in0.0 mm 0.00 in0.0 mm 0.00 in0.0 mm
08:03 AM -6.6°F-21.4°C -10.4°F-23.6°C 83% 2.0 mph W3.2 kmh W -- 30.42 in1030.1 mb 0.00 in0.0 mm 0.00 in0.0 mm 0.00 in0.0 mm
08:04 AM -6.6°F-21.4°C -10.4°F-23.6°C 83% 2.0 mph W3.2 kmh W -- 30.41 in1029.8 mb 0.00 in0.0 mm 0.00 in0.0 mm 0.00 in0.0 mm
08:06 AM -6.6°F-21.4°C -10.4°F-23.6°C 83% 1.0 mph WSW1.6 kmh WSW -- 30.41 in1029.8 mb 0.00 in0.0 mm 0.00 in0.0 mm 0.00 in0.0 mm
08:07 AM -6.6°F-21.4°C -10.4°F-23.6°C 83% 2.0 mph WSW3.2 kmh WSW -- 30.41 in1029.8 mb 0.00 in0.0 mm 0.00 in0.0 mm 0.00 in0.0 mm
08:08 AM -6.6°F-21.4°C -10.4°F-23.6°C 83% 1.0 mph SW1.6 kmh SW -- 30.41 in1029.8 mb 0.00 in0.0 mm 0.00 in0.0 mm 0.00 in0.0 mm
08:11 AM -6.6°F-21.4°C -10.4°F-23.6°C 83% Calm Calm -- 30.41 in1029.8 mb 0.00 in0.0 mm 0.00 in0.0 mm 0.00 in0.0 mm
08:17 AM -6.6°F-21.4°C -10.4°F-23.6°C 83% Calm Calm -- 30.41 in1029.8 mb 0.00 in0.0 mm 0.00 in0.0 mm 0.00 in0.0 mm
08:19 AM -6.6°F-21.4°C -10.4°F-23.6°C 83% Calm Calm -- 30.42 in1030.1 mb 0.00 in0.0 mm 0.00 in0.0 mm 0.00 in0.0 mm
08:20 AM -6.6°F-21.4°C -10.4°F-23.6°C 83% Calm Calm -- 30.41 in1029.8 mb 0.00 in0.0 mm 0.00 in0.0 mm 0.00 in0.0 mm
08:22 AM -6.9°F-21.6°C -10.7°F-23.7°C 83% Calm Calm -- 30.41 in1029.8 mb 0.00 in0.0 mm 0.00 in0.0 mm 0.00 in0.0 mm
08:23 AM -6.9°F-21.6°C -10.7°F-23.7°C 83% Calm Calm -- 30.41 in1029.8 mb 0.00 in0.0 mm 0.00 in0.0 mm 0.00 in0.0 mm
08:27 AM -6.9°F-21.6°C -10.7°F-23.7°C 83% Calm Calm -- 30.41 in1029.8 mb 0.00 in0.0 mm 0.00 in0.0 mm 0.00 in0.0 mm
08:29 AM -7.0°F-21.7°C -10.9°F-23.8°C 83% Calm Calm -- 30.41 in1029.8 mb 0.00 in0.0 mm 0.00 in0.0 mm 0.00 in0.0 mm
08:31 AM -7.0°F-21.7°C -10.9°F-23.8°C 83% Calm Calm -- 30.41 in1029.8 mb 0.00 in0.0 mm 0.00 in0.0 mm 0.00 in0.0 mm
08:36 AM -7.1°F-21.7°C -10.9°F-23.8°C 83% Calm Calm -- 30.41 in1029.8 mb 0.00 in0.0 mm 0.00 in0.0 mm 0.00 in0.0 mm
08:42 AM -7.2°F-21.8°C -10.8°F-23.8°C 84% Calm Calm -- 30.42 in1030.1 mb 0.00 in0.0 mm 0.00 in0.0 mm 0.00 in0.0 mm
08:43 AM -7.1°F-21.7°C -10.9°F-23.8°C 83% Calm Calm -- 30.42 in1030.1 mb 0.00 in0.0 mm 0.00 in0.0 mm 0.00 in0.0 mm
08:45 AM -7.1°F-21.7°C -10.9°F-23.8°C 83% Calm Calm -- 30.41 in1029.8 mb 0.00 in0.0 mm 0.00 in0.0 mm 0.00 in0.0 mm
08:49 AM -7.0°F-21.7°C -10.9°F-23.8°C 83% Calm Calm -- 30.41 in1029.8 mb 0.00 in0.0 mm 0.00 in0.0 mm 0.00 in0.0 mm
08:51 AM -7.0°F-21.7°C -10.9°F-23.8°C 83% Calm Calm -- 30.41 in1029.8 mb 0.00 in0.0 mm 0.00 in0.0 mm 0.00 in0.0 mm
08:54 AM -7.0°F-21.7°C -10.9°F-23.8°C 83% 2.0 mph NNW3.2 kmh NNW -- 30.41 in1029.8 mb 0.00 in0.0 mm 0.00 in0.0 mm 0.00 in0.0 mm
08:55 AM -7.0°F-21.7°C -10.9°F-23.8°C 83% 1.0 mph NNW1.6 kmh NNW -- 30.41 in1029.8 mb 0.00 in0.0 mm 0.00 in0.0 mm 0.00 in0.0 mm
08:56 AM -7.0°F-21.7°C -10.9°F-23.8°C 83% 1.0 mph WNW1.6 kmh WNW -- 30.41 in1029.8 mb 0.00 in0.0 mm 0.00 in0.0 mm 0.00 in0.0 mm
08:58 AM -7.0°F-21.7°C -10.9°F-23.8°C 83% Calm Calm -- 30.42 in1030.1 mb 0.00 in0.0 mm 0.00 in0.0 mm 0.00 in0.0 mm
08:59 AM -7.0°F-21.7°C -10.9°F-23.8°C 83% Calm Calm -- 30.41 in1029.8 mb 0.00 in0.0 mm 0.00 in0.0 mm 0.00 in0.0 mm
09:00 AM -6.9°F-21.6°C -10.7°F-23.7°C 83% Calm Calm -- 30.41 in1029.8 mb 0.00 in0.0 mm 0.00 in0.0 mm 0.00 in0.0 mm
09:01 AM -6.9°F-21.6°C -10.7°F-23.7°C 83% Calm Calm -- 30.41 in1029.8 mb 0.00 in0.0 mm 0.00 in0.0 mm 0.00 in0.0 mm
09:04 AM -6.6°F-21.4°C -10.4°F-23.6°C 83% Calm Calm -- 30.41 in1029.8 mb 0.00 in0.0 mm 0.00 in0.0 mm 0.00 in0.0 mm
09:05 AM -6.6°F-21.4°C -10.4°F-23.6°C 83% Calm Calm -- 30.41 in1029.8 mb 0.00 in0.0 mm 0.00 in0.0 mm 0.00 in0.0 mm
09:06 AM -6.5°F-21.4°C -10.4°F-23.6°C 83% Calm Calm -- 30.41 in1029.8 mb 0.00 in0.0 mm 0.00 in0.0 mm 0.00 in0.0 mm
09:07 AM -6.5°F-21.4°C -10.4°F-23.6°C 83% Calm Calm -- 30.42 in1030.1 mb 0.00 in0.0 mm 0.00 in0.0 mm 0.00 in0.0 mm
09:08 AM -6.5°F-21.4°C -10.4°F-23.6°C 83% Calm Calm -- 30.41 in1029.8 mb 0.00 in0.0 mm 0.00 in0.0 mm 0.00 in0.0 mm
09:10 AM -6.3°F-21.3°C -10.2°F-23.4°C 83% Calm Calm -- 30.41 in1029.8 mb 0.00 in0.0 mm 0.00 in0.0 mm 0.00 in0.0 mm
09:12 AM -6.1°F-21.2°C -10.0°F-23.3°C 83% Calm Calm -- 30.42 in1030.1 mb 0.00 in0.0 mm 0.00 in0.0 mm 0.00 in0.0 mm
09:15 AM -5.8°F-21.0°C -9.7°F-23.2°C 83% 1.0 mph W1.6 kmh W -- 30.41 in1029.8 mb 0.00 in0.0 mm 0.00 in0.0 mm 0.00 in0.0 mm
09:16 AM -5.5°F-20.8°C -9.8°F-23.2°C 81% Calm Calm -- 30.41 in1029.8 mb 0.00 in0.0 mm 0.00 in0.0 mm 0.00 in0.0 mm
09:19 AM -5.4°F-20.8°C -9.8°F-23.2°C 81% Calm Calm -- 30.41 in1029.8 mb 0.00 in0.0 mm 0.00 in0.0 mm 0.00 in0.0 mm
09:23 AM -5.3°F-20.7°C -9.6°F-23.1°C 81% Calm Calm -- 30.41 in1029.8 mb 0.00 in0.0 mm 0.00 in0.0 mm 0.00 in0.0 mm
09:25 AM -5.0°F-20.6°C -9.5°F-23.1°C 81% Calm Calm -- 30.41 in1029.8 mb 0.00 in0.0 mm 0.00 in0.0 mm 0.00 in0.0 mm
09:26 AM -4.9°F-20.5°C -9.3°F-22.9°C 81% Calm Calm -- 30.41 in1029.8 mb 0.00 in0.0 mm 0.00 in0.0 mm 0.00 in0.0 mm
09:27 AM -4.9°F-20.5°C -9.3°F-22.9°C 81% Calm Calm -- 30.42 in1030.1 mb 0.00 in0.0 mm 0.00 in0.0 mm 0.00 in0.0 mm
09:28 AM -4.9°F-20.5°C -9.3°F-22.9°C 81% Calm Calm -- 30.41 in1029.8 mb 0.00 in0.0 mm 0.00 in0.0 mm 0.00 in0.0 mm
09:29 AM -4.9°F-20.5°C -9.3°F-22.9°C 81% 1.0 mph WSW1.6 kmh WSW -- 30.41 in1029.8 mb 0.00 in0.0 mm 0.00 in0.0 mm 0.00 in0.0 mm
09:30 AM -4.9°F-20.5°C -9.3°F-22.9°C 81% Calm Calm -- 30.41 in1029.8 mb 0.00 in0.0 mm 0.00 in0.0 mm 0.00 in0.0 mm
09:31 AM -4.6°F-20.3°C -8.9°F-22.7°C 81% Calm Calm -- 30.41 in1029.8 mb 0.00 in0.0 mm 0.00 in0.0 mm 0.00 in0.0 mm
09:32 AM -4.5°F-20.3°C -8.9°F-22.7°C 81% Calm Calm -- 30.41 in1029.8 mb 0.00 in0.0 mm 0.00 in0.0 mm 0.00 in0.0 mm
09:33 AM -4.4°F-20.2°C -8.8°F-22.7°C 81% Calm Calm -- 30.41 in1029.8 mb 0.00 in0.0 mm 0.00 in0.0 mm 0.00 in0.0 mm
09:34 AM -4.1°F-20.1°C -8.6°F-22.6°C 81% Calm Calm -- 30.41 in1029.8 mb 0.00 in0.0 mm 0.00 in0.0 mm 0.00 in0.0 mm
09:35 AM -4.0°F-20.0°C -8.4°F-22.4°C 81% Calm Calm -- 30.41 in1029.8 mb 0.00 in0.0 mm 0.00 in0.0 mm 0.00 in0.0 mm
09:36 AM -3.7°F-19.8°C -8.6°F-22.6°C 79% Calm Calm -- 30.41 in1029.8 mb 0.00 in0.0 mm 0.00 in0.0 mm 0.00 in0.0 mm
09:37 AM -3.5°F-19.7°C -8.4°F-22.4°C 79% 1.0 mph SW1.6 kmh SW -- 30.41 in1029.8 mb 0.00 in0.0 mm 0.00 in0.0 mm 0.00 in0.0 mm
09:38 AM -3.5°F-19.7°C -8.6°F-22.6°C 78% 1.0 mph SW1.6 kmh SW -- 30.41 in1029.8 mb 0.00 in0.0 mm 0.00 in0.0 mm 0.00 in0.0 mm
09:39 AM -3.5°F-19.7°C -8.6°F-22.6°C 78% 1.0 mph WSW1.6 kmh WSW -- 30.41 in1029.8 mb 0.00 in0.0 mm 0.00 in0.0 mm 0.00 in0.0 mm
09:40 AM -3.7°F-19.8°C -8.8°F-22.7°C 78% 2.0 mph WSW3.2 kmh WSW -- 30.41 in1029.8 mb 0.00 in0.0 mm 0.00 in0.0 mm 0.00 in0.0 mm
09:41 AM -3.7°F-19.8°C -8.8°F-22.7°C 78% 2.0 mph NNW3.2 kmh NNW -- 30.41 in1029.8 mb 0.00 in0.0 mm 0.00 in0.0 mm 0.00 in0.0 mm
09:42 AM -3.7°F-19.8°C -8.8°F-22.7°C 78% 2.0 mph NW3.2 kmh NW -- 30.41 in1029.8 mb 0.00 in0.0 mm 0.00 in0.0 mm 0.00 in0.0 mm
09:43 AM -3.7°F-19.8°C -8.8°F-22.7°C 78% 2.0 mph WNW3.2 kmh WNW -- 30.41 in1029.8 mb 0.00 in0.0 mm 0.00 in0.0 mm 0.00 in0.0 mm
09:44 AM -3.7°F-19.8°C -8.8°F-22.7°C 78% 2.0 mph W3.2 kmh W -- 30.41 in1029.8 mb 0.00 in0.0 mm 0.00 in0.0 mm 0.00 in0.0 mm
09:45 AM -3.7°F-19.8°C -9.4°F-23.0°C 76% 1.0 mph W1.6 kmh W -- 30.41 in1029.8 mb 0.00 in0.0 mm 0.00 in0.0 mm 0.00 in0.0 mm
09:46 AM -3.5°F-19.7°C -9.2°F-22.9°C 76% 1.0 mph W1.6 kmh W -- 30.41 in1029.8 mb 0.00 in0.0 mm 0.00 in0.0 mm 0.00 in0.0 mm
09:47 AM -3.5°F-19.7°C -9.2°F-22.9°C 76% Calm Calm -- 30.41 in1029.8 mb 0.00 in0.0 mm 0.00 in0.0 mm 0.00 in0.0 mm
09:48 AM -3.2°F-19.6°C -9.0°F-22.8°C 76% 1.0 mph WSW1.6 kmh WSW -- 30.41 in1029.8 mb 0.00 in0.0 mm 0.00 in0.0 mm 0.00 in0.0 mm
09:49 AM -3.0°F-19.4°C -8.7°F-22.6°C 76% Calm Calm -- 30.41 in1029.8 mb 0.00 in0.0 mm 0.00 in0.0 mm 0.00 in0.0 mm
09:50 AM -2.9°F-19.4°C -8.9°F-22.7°C 75% Calm Calm -- 30.41 in1029.8 mb 0.00 in0.0 mm 0.00 in0.0 mm 0.00 in0.0 mm
09:51 AM -2.9°F-19.4°C -8.9°F-22.7°C 75% Calm Calm -- 30.41 in1029.8 mb 0.00 in0.0 mm 0.00 in0.0 mm 0.00 in0.0 mm
09:52 AM -2.7°F-19.3°C -8.8°F-22.7°C 75% Calm Calm -- 30.41 in1029.8 mb 0.00 in0.0 mm 0.00 in0.0 mm 0.00 in0.0 mm
09:53 AM -2.4°F-19.1°C -8.4°F-22.4°C 75% Calm Calm -- 30.41 in1029.8 mb 0.00 in0.0 mm 0.00 in0.0 mm 0.00 in0.0 mm
09:54 AM -2.0°F-18.9°C -8.1°F-22.3°C 75% Calm Calm -- 30.41 in1029.8 mb 0.00 in0.0 mm 0.00 in0.0 mm 0.00 in0.0 mm
09:56 AM -1.7°F-18.7°C -7.7°F-22.1°C 75% Calm Calm -- 30.41 in1029.8 mb 0.00 in0.0 mm 0.00 in0.0 mm 0.00 in0.0 mm
09:57 AM -1.7°F-18.7°C -7.7°F-22.1°C 75% Calm Calm -- 30.41 in1029.8 mb 0.00 in0.0 mm 0.00 in0.0 mm 0.00 in0.0 mm
09:59 AM -1.7°F-18.7°C -7.7°F-22.1°C 75% 1.0 mph NW1.6 kmh NW -- 30.41 in1029.8 mb 0.00 in0.0 mm 0.00 in0.0 mm 0.00 in0.0 mm
10:02 AM -1.7°F-18.7°C -8.0°F-22.2°C 74% 1.0 mph NW1.6 kmh NW -- 30.41 in1029.8 mb 0.00 in0.0 mm 0.00 in0.0 mm 0.00 in0.0 mm
10:03 AM -1.5°F-18.6°C -7.8°F-22.1°C 74% 1.0 mph NW1.6 kmh NW -- 30.41 in1029.8 mb 0.00 in0.0 mm 0.00 in0.0 mm 0.00 in0.0 mm
10:05 AM -2.0°F-18.9°C -8.6°F-22.6°C 73% Calm Calm -- 30.41 in1029.8 mb 0.00 in0.0 mm 0.00 in0.0 mm 0.00 in0.0 mm
10:06 AM -2.2°F-19.0°C -8.5°F-22.5°C 74% Calm Calm -- 30.41 in1029.8 mb 0.00 in0.0 mm 0.00 in0.0 mm 0.00 in0.0 mm
10:07 AM -2.4°F-19.1°C -8.7°F-22.6°C 74% Calm Calm -- 30.41 in1029.8 mb 0.00 in0.0 mm 0.00 in0.0 mm 0.00 in0.0 mm
10:08 AM -2.2°F-19.0°C -8.5°F-22.5°C 74% 1.0 mph NW1.6 kmh NW -- 30.41 in1029.8 mb 0.00 in0.0 mm 0.00 in0.0 mm 0.00 in0.0 mm
10:10 AM -2.2°F-19.0°C -8.5°F-22.5°C 74% Calm Calm -- 30.41 in1029.8 mb 0.00 in0.0 mm 0.00 in0.0 mm 0.00 in0.0 mm
10:11 AM -2.4°F-19.1°C -8.7°F-22.6°C 74% Calm Calm -- 30.41 in1029.8 mb 0.00 in0.0 mm 0.00 in0.0 mm 0.00 in0.0 mm
10:14 AM -2.5°F-19.2°C -8.9°F-22.7°C 74% Calm Calm -- 30.41 in1029.8 mb 0.00 in0.0 mm 0.00 in0.0 mm 0.00 in0.0 mm
10:15 AM -2.7°F-19.3°C -9.0°F-22.8°C 74% Calm Calm -- 30.41 in1029.8 mb 0.00 in0.0 mm 0.00 in0.0 mm 0.00 in0.0 mm
10:16 AM -2.9°F-19.4°C -9.2°F-22.9°C 74% 1.0 mph WSW1.6 kmh WSW -- 30.41 in1029.8 mb 0.00 in0.0 mm 0.00 in0.0 mm 0.00 in0.0 mm
10:18 AM -2.9°F-19.4°C -9.2°F-22.9°C 74% 2.0 mph SW3.2 kmh SW -- 30.41 in1029.8 mb 0.00 in0.0 mm 0.00 in0.0 mm 0.00 in0.0 mm
10:19 AM -2.5°F-19.2°C -8.9°F-22.7°C 74% 1.0 mph W1.6 kmh W -- 30.41 in1029.8 mb 0.00 in0.0 mm 0.00 in0.0 mm 0.00 in0.0 mm
10:20 AM -2.4°F-19.1°C -8.7°F-22.6°C 74% 1.0 mph WSW1.6 kmh WSW -- 30.41 in1029.8 mb 0.00 in0.0 mm 0.00 in0.0 mm 0.00 in0.0 mm
10:21 AM -2.2°F-19.0°C -8.5°F-22.5°C 74% 2.0 mph W3.2 kmh W -- 30.41 in1029.8 mb 0.00 in0.0 mm 0.00 in0.0 mm 0.00 in0.0 mm
10:22 AM -1.7°F-18.7°C -8.3°F-22.4°C 73% 2.0 mph W3.2 kmh W -- 30.41 in1029.8 mb 0.00 in0.0 mm 0.00 in0.0 mm 0.00 in0.0 mm
10:23 AM -1.7°F-18.7°C -8.3°F-22.4°C 73% 2.0 mph WSW3.2 kmh WSW -- 30.41 in1029.8 mb 0.00 in0.0 mm 0.00 in0.0 mm 0.00 in0.0 mm
10:24 AM -1.7°F-18.7°C -8.3°F-22.4°C 73% Calm Calm -- 30.41 in1029.8 mb 0.00 in0.0 mm 0.00 in0.0 mm 0.00 in0.0 mm
10:28 AM -1.7°F-18.7°C -8.3°F-22.4°C 73% 2.0 mph W3.2 kmh W -- 30.41 in1029.8 mb 0.00 in0.0 mm 0.00 in0.0 mm 0.00 in0.0 mm
10:29 AM -1.7°F-18.7°C -8.3°F-22.4°C 73% 2.0 mph WNW3.2 kmh WNW -- 30.41 in1029.8 mb 0.00 in0.0 mm 0.00 in0.0 mm 0.00 in0.0 mm
10:30 AM -1.7°F-18.7°C -8.3°F-22.4°C 73% 1.0 mph WNW1.6 kmh WNW -- 30.41 in1029.8 mb 0.00 in0.0 mm 0.00 in0.0 mm 0.00 in0.0 mm
10:33 AM -1.5°F-18.6°C -8.1°F-22.3°C 73% 2.0 mph WNW3.2 kmh WNW -- 30.41 in1029.8 mb 0.00 in0.0 mm 0.00 in0.0 mm 0.00 in0.0 mm
10:34 AM -1.2°F-18.4°C -7.7°F-22.1°C 73% 1.0 mph W1.6 kmh W -- 30.41 in1029.8 mb 0.00 in0.0 mm 0.00 in0.0 mm 0.00 in0.0 mm
10:35 AM -1.1°F-18.4°C -7.7°F-22.1°C 73% 2.0 mph W3.2 kmh W -- 30.41 in1029.8 mb 0.00 in0.0 mm 0.00 in0.0 mm 0.00 in0.0 mm
10:36 AM -1.1°F-18.4°C -8.3°F-22.4°C 71% 2.0 mph WNW3.2 kmh WNW -- 30.41 in1029.8 mb 0.00 in0.0 mm 0.00 in0.0 mm 0.00 in0.0 mm
10:37 AM -1.1°F-18.4°C -8.3°F-22.4°C 71% 2.0 mph W3.2 kmh W -- 30.41 in1029.8 mb 0.00 in0.0 mm 0.00 in0.0 mm 0.00 in0.0 mm
10:38 AM -1.1°F-18.4°C -8.3°F-22.4°C 71% 1.0 mph WNW1.6 kmh WNW -- 30.41 in1029.8 mb 0.00 in0.0 mm 0.00 in0.0 mm 0.00 in0.0 mm
10:39 AM -1.1°F-18.4°C -8.3°F-22.4°C 71% 3.0 mph W4.8 kmh W -- 30.41 in1029.8 mb 0.00 in0.0 mm 0.00 in0.0 mm 0.00 in0.0 mm
10:40 AM -0.9°F-18.3°C -8.1°F-22.3°C 71% 2.0 mph W3.2 kmh W -- 30.41 in1029.8 mb 0.00 in0.0 mm 0.00 in0.0 mm 0.00 in0.0 mm
10:41 AM -0.8°F-18.2°C -8.0°F-22.2°C 71% 2.0 mph W3.2 kmh W -- 30.41 in1029.8 mb 0.00 in0.0 mm 0.00 in0.0 mm 0.00 in0.0 mm
10:42 AM -0.8°F-18.2°C -8.0°F-22.2°C 71% 3.0 mph W4.8 kmh W -- 30.41 in1029.8 mb 0.00 in0.0 mm 0.00 in0.0 mm 0.00 in0.0 mm
10:43 AM -0.9°F-18.3°C -8.1°F-22.3°C 71% 1.0 mph W1.6 kmh W -- 30.41 in1029.8 mb 0.00 in0.0 mm 0.00 in0.0 mm 0.00 in0.0 mm
10:44 AM -0.9°F-18.3°C -8.1°F-22.3°C 71% 1.0 mph WNW1.6 kmh WNW -- 30.41 in1029.8 mb 0.00 in0.0 mm 0.00 in0.0 mm 0.00 in0.0 mm
10:45 AM -0.9°F-18.3°C -8.1°F-22.3°C 71% 2.0 mph WNW3.2 kmh WNW -- 30.41 in1029.8 mb 0.00 in0.0 mm 0.00 in0.0 mm 0.00 in0.0 mm
10:47 AM -0.8°F-18.2°C -8.0°F-22.2°C 71% Calm Calm -- 30.41 in1029.8 mb 0.00 in0.0 mm 0.00 in0.0 mm 0.00 in0.0 mm
10:49 AM -0.8°F-18.2°C -8.0°F-22.2°C 71% 1.0 mph W1.6 kmh W -- 30.41 in1029.8 mb 0.00 in0.0 mm 0.00 in0.0 mm 0.00 in0.0 mm
10:51 AM -0.6°F-18.1°C -7.8°F-22.1°C 71% 1.0 mph WNW1.6 kmh WNW -- 30.41 in1029.8 mb 0.00 in0.0 mm 0.00 in0.0 mm 0.00 in0.0 mm
10:52 AM -0.6°F-18.1°C -7.5°F-21.9°C 72% Calm Calm -- 30.41 in1029.8 mb 0.00 in0.0 mm 0.00 in0.0 mm 0.00 in0.0 mm
10:53 AM -0.9°F-18.3°C -8.1°F-22.3°C 71% 1.0 mph W1.6 kmh W -- 30.41 in1029.8 mb 0.00 in0.0 mm 0.00 in0.0 mm 0.00 in0.0 mm
10:54 AM -0.8°F-18.2°C -8.0°F-22.2°C 71% 1.0 mph W1.6 kmh W -- 30.41 in1029.8 mb 0.00 in0.0 mm 0.00 in0.0 mm 0.00 in0.0 mm
10:56 AM -0.8°F-18.2°C -8.0°F-22.2°C 71% 3.0 mph WSW4.8 kmh WSW -- 30.41 in1029.8 mb 0.00 in0.0 mm 0.00 in0.0 mm 0.00 in0.0 mm
10:57 AM 0.3°F-17.6°C -7.8°F-22.1°C 68% 2.0 mph W3.2 kmh W -- 30.41 in1029.8 mb 0.00 in0.0 mm 0.00 in0.0 mm 0.00 in0.0 mm
10:58 AM 0.5°F-17.5°C -8.3°F-22.4°C 66% 2.0 mph W3.2 kmh W -- 30.41 in1029.8 mb 0.00 in0.0 mm 0.00 in0.0 mm 0.00 in0.0 mm
11:01 AM 0.5°F-17.5°C -8.3°F-22.4°C 66% 2.0 mph W3.2 kmh W -- 30.40 in1029.5 mb 0.00 in0.0 mm 0.00 in0.0 mm 0.00 in0.0 mm
11:02 AM 0.3°F-17.6°C -8.4°F-22.4°C 66% 3.0 mph W4.8 kmh W -- 30.41 in1029.8 mb 0.00 in0.0 mm 0.00 in0.0 mm 0.00 in0.0 mm
11:03 AM 0.3°F-17.6°C -7.8°F-22.1°C 68% 3.0 mph W4.8 kmh W -- 30.41 in1029.8 mb 0.00 in0.0 mm 0.00 in0.0 mm 0.00 in0.0 mm
11:04 AM 0.3°F-17.6°C -7.8°F-22.1°C 68% 2.0 mph W3.2 kmh W -- 30.41 in1029.8 mb 0.00 in0.0 mm 0.00 in0.0 mm 0.00 in0.0 mm
11:06 AM 0.3°F-17.6°C -7.8°F-22.1°C 68% 3.0 mph W4.8 kmh W -- 30.41 in1029.8 mb 0.00 in0.0 mm 0.00 in0.0 mm 0.00 in0.0 mm
11:07 AM 0.5°F-17.5°C -7.7°F-22.1°C 68% 3.0 mph W4.8 kmh W -- 30.41 in1029.8 mb 0.00 in0.0 mm 0.00 in0.0 mm 0.00 in0.0 mm
11:08 AM 0.7°F-17.4°C -8.1°F-22.3°C 66% 2.0 mph W3.2 kmh W -- 30.41 in1029.8 mb 0.00 in0.0 mm 0.00 in0.0 mm 0.00 in0.0 mm
11:09 AM 0.3°F-17.6°C -8.4°F-22.4°C 66% 2.0 mph WSW3.2 kmh WSW -- 30.41 in1029.8 mb 0.00 in0.0 mm 0.00 in0.0 mm 0.00 in0.0 mm
11:10 AM 0.0°F-17.8°C -8.8°F-22.7°C 66% 1.0 mph WSW1.6 kmh WSW -- 30.41 in1029.8 mb 0.00 in0.0 mm 0.00 in0.0 mm 0.00 in0.0 mm
11:11 AM 0.3°F-17.6°C -8.4°F-22.4°C 66% 2.0 mph SW3.2 kmh SW -- 30.41 in1029.8 mb 0.00 in0.0 mm 0.00 in0.0 mm 0.00 in0.0 mm
11:12 AM 0.7°F-17.4°C -8.1°F-22.3°C 66% 1.0 mph WNW1.6 kmh WNW -- 30.40 in1029.5 mb 0.00 in0.0 mm 0.00 in0.0 mm 0.00 in0.0 mm
11:13 AM 0.9°F-17.3°C -8.2°F-22.3°C 65% 2.0 mph WSW3.2 kmh WSW -- 30.41 in1029.8 mb 0.00 in0.0 mm 0.00 in0.0 mm 0.00 in0.0 mm
11:14 AM 0.7°F-17.4°C -8.4°F-22.4°C 65% 2.0 mph W3.2 kmh W -- 30.41 in1029.8 mb 0.00 in0.0 mm 0.00 in0.0 mm 0.00 in0.0 mm
11:15 AM 0.7°F-17.4°C -9.1°F-22.8°C 63% 2.0 mph W3.2 kmh W -- 30.41 in1029.8 mb 0.00 in0.0 mm 0.00 in0.0 mm 0.00 in0.0 mm
11:16 AM 0.9°F-17.3°C -8.9°F-22.7°C 63% 2.0 mph W3.2 kmh W -- 30.41 in1029.8 mb 0.00 in0.0 mm 0.00 in0.0 mm 0.00 in0.0 mm
11:17 AM 0.9°F-17.3°C -8.2°F-22.3°C 65% 3.0 mph W4.8 kmh W -- 30.41 in1029.8 mb 0.00 in0.0 mm 0.00 in0.0 mm 0.00 in0.0 mm
11:18 AM 1.0°F-17.2°C -8.1°F-22.3°C 65% 2.0 mph W3.2 kmh W -- 30.40 in1029.5 mb 0.00 in0.0 mm 0.00 in0.0 mm 0.00 in0.0 mm
11:19 AM 1.0°F-17.2°C -8.1°F-22.3°C 65% 2.0 mph W3.2 kmh W -- 30.41 in1029.8 mb 0.00 in0.0 mm 0.00 in0.0 mm 0.00 in0.0 mm
11:20 AM 1.0°F-17.2°C -8.1°F-22.3°C 65% 2.0 mph W3.2 kmh W -- 30.40 in1029.5 mb 0.00 in0.0 mm 0.00 in0.0 mm 0.00 in0.0 mm
11:21 AM 1.0°F-17.2°C -8.1°F-22.3°C 65% 2.0 mph W3.2 kmh W -- 30.41 in1029.8 mb 0.00 in0.0 mm 0.00 in0.0 mm 0.00 in0.0 mm
11:22 AM 1.0°F-17.2°C -8.1°F-22.3°C 65% 2.0 mph W3.2 kmh W -- 30.40 in1029.5 mb 0.00 in0.0 mm 0.00 in0.0 mm 0.00 in0.0 mm
11:23 AM 1.3°F-17.1°C -8.5°F-22.5°C 63% 2.0 mph W3.2 kmh W -- 30.41 in1029.8 mb 0.00 in0.0 mm 0.00 in0.0 mm 0.00 in0.0 mm
11:25 AM 1.5°F-16.9°C -8.9°F-22.7°C 61% 2.0 mph W3.2 kmh W -- 30.41 in1029.8 mb 0.00 in0.0 mm 0.00 in0.0 mm 0.00 in0.0 mm
11:26 AM 1.3°F-17.1°C -9.2°F-22.9°C 61% 2.0 mph W3.2 kmh W -- 30.41 in1029.8 mb 0.00 in0.0 mm 0.00 in0.0 mm 0.00 in0.0 mm
11:27 AM 1.3°F-17.1°C -9.2°F-22.9°C 61% Calm Calm -- 30.41 in1029.8 mb 0.00 in0.0 mm 0.00 in0.0 mm 0.00 in0.0 mm
11:28 AM 1.7°F-16.8°C -8.7°F-22.6°C 61% Calm Calm -- 30.41 in1029.8 mb 0.00 in0.0 mm 0.00 in0.0 mm 0.00 in0.0 mm
11:29 AM 1.9°F-16.7°C -8.5°F-22.5°C 61% 2.0 mph W3.2 kmh W -- 30.41 in1029.8 mb 0.00 in0.0 mm 0.00 in0.0 mm 0.00 in0.0 mm
11:30 AM 2.0°F-16.7°C -8.5°F-22.5°C 61% 2.0 mph SW3.2 kmh SW -- 30.41 in1029.8 mb 0.00 in0.0 mm 0.00 in0.0 mm 0.00 in0.0 mm
11:31 AM 1.3°F-17.1°C -9.2°F-22.9°C 61% 2.0 mph W3.2 kmh W -- 30.41 in1029.8 mb 0.00 in0.0 mm 0.00 in0.0 mm 0.00 in0.0 mm
11:32 AM 1.9°F-16.7°C -8.5°F-22.5°C 61% 2.0 mph W3.2 kmh W -- 30.41 in1029.8 mb 0.00 in0.0 mm 0.00 in0.0 mm 0.00 in0.0 mm
11:33 AM 2.0°F-16.7°C -8.5°F-22.5°C 61% 2.0 mph WSW3.2 kmh WSW -- 30.41 in1029.8 mb 0.00 in0.0 mm 0.00 in0.0 mm 0.00 in0.0 mm
11:34 AM 2.7°F-16.3°C -8.2°F-22.3°C 60% Calm Calm -- 30.41 in1029.8 mb 0.00 in0.0 mm 0.00 in0.0 mm 0.00 in0.0 mm
11:36 AM 6.8°F-14.0°C -6.1°F-21.2°C 55% 1.0 mph SE1.6 kmh SE -- 30.41 in1029.8 mb 0.00 in0.0 mm 0.00 in0.0 mm 0.00 in0.0 mm
11:37 AM 7.0°F-13.9°C -6.7°F-21.5°C 53% 1.0 mph E1.6 kmh E -- 30.40 in1029.5 mb 0.00 in0.0 mm 0.00 in0.0 mm 0.00 in0.0 mm
11:38 AM 7.1°F-13.8°C -7.3°F-21.8°C 51% Calm Calm -- 30.40 in1029.5 mb 0.00 in0.0 mm 0.00 in0.0 mm 0.00 in0.0 mm
11:39 AM 7.0°F-13.9°C -7.5°F-21.9°C 51% Calm Calm -- 30.41 in1029.8 mb 0.00 in0.0 mm 0.00 in0.0 mm 0.00 in0.0 mm
11:40 AM 6.3°F-14.3°C -7.0°F-21.7°C 54% 2.0 mph WSW3.2 kmh WSW -- 30.40 in1029.5 mb 0.00 in0.0 mm 0.00 in0.0 mm 0.00 in0.0 mm
11:41 AM 7.0°F-13.9°C -6.3°F-21.3°C 54% 2.0 mph NNW3.2 kmh NNW -- 30.41 in1029.8 mb 0.00 in0.0 mm 0.00 in0.0 mm 0.00 in0.0 mm
11:42 AM 7.0°F-13.9°C -6.3°F-21.3°C 54% 1.0 mph WNW1.6 kmh WNW -- 30.41 in1029.8 mb 0.00 in0.0 mm 0.00 in0.0 mm 0.00 in0.0 mm
11:43 AM 6.3°F-14.3°C -7.0°F-21.7°C 54% 2.0 mph NNW3.2 kmh NNW -- 30.40 in1029.5 mb 0.00 in0.0 mm 0.00 in0.0 mm 0.00 in0.0 mm
11:44 AM 5.9°F-14.5°C -7.3°F-21.8°C 54% 1.0 mph WNW1.6 kmh WNW -- 30.40 in1029.5 mb 0.00 in0.0 mm 0.00 in0.0 mm 0.00 in0.0 mm
11:45 AM 5.6°F-14.7°C -7.6°F-22.0°C 54% 2.0 mph W3.2 kmh W -- 30.40 in1029.5 mb 0.00 in0.0 mm 0.00 in0.0 mm 0.00 in0.0 mm
11:46 AM 5.5°F-14.7°C -7.3°F-21.8°C 55% 2.0 mph W3.2 kmh W -- 30.40 in1029.5 mb 0.00 in0.0 mm 0.00 in0.0 mm 0.00 in0.0 mm
11:47 AM 5.4°F-14.8°C -7.4°F-21.9°C 55% 3.0 mph WNW4.8 kmh WNW -- 30.40 in1029.5 mb 0.00 in0.0 mm 0.00 in0.0 mm 0.00 in0.0 mm
11:48 AM 5.5°F-14.7°C -7.3°F-21.8°C 55% 3.0 mph W4.8 kmh W -- 30.40 in1029.5 mb 0.00 in0.0 mm 0.00 in0.0 mm 0.00 in0.0 mm
11:49 AM 5.9°F-14.5°C -6.9°F-21.6°C 55% 4.0 mph W6.4 kmh W -- 30.40 in1029.5 mb 0.00 in0.0 mm 0.00 in0.0 mm 0.00 in0.0 mm
11:50 AM 5.9°F-14.5°C -6.9°F-21.6°C 55% 3.0 mph W4.8 kmh W -- 30.40 in1029.5 mb 0.00 in0.0 mm 0.00 in0.0 mm 0.00 in0.0 mm
11:51 AM 5.4°F-14.8°C -7.8°F-22.1°C 54% 2.0 mph W3.2 kmh W -- 30.41 in1029.8 mb 0.00 in0.0 mm 0.00 in0.0 mm 0.00 in0.0 mm
11:52 AM 4.5°F-15.3°C -8.3°F-22.4°C 55% 2.0 mph WNW3.2 kmh WNW -- 30.40 in1029.5 mb 0.00 in0.0 mm 0.00 in0.0 mm 0.00 in0.0 mm
11:53 AM 4.8°F-15.1°C -7.9°F-22.2°C 55% 3.0 mph NW4.8 kmh NW -- 30.41 in1029.8 mb 0.00 in0.0 mm 0.00 in0.0 mm 0.00 in0.0 mm
11:54 AM 4.8°F-15.1°C -7.9°F-22.2°C 55% 2.0 mph SSW3.2 kmh SSW -- 30.41 in1029.8 mb 0.00 in0.0 mm 0.00 in0.0 mm 0.00 in0.0 mm
11:55 AM 5.1°F-14.9°C -7.6°F-22.0°C 55% 3.0 mph WNW4.8 kmh WNW -- 30.40 in1029.5 mb 0.00 in0.0 mm 0.00 in0.0 mm 0.00 in0.0 mm
11:56 AM 5.0°F-15.0°C -7.8°F-22.1°C 55% 3.0 mph NW4.8 kmh NW -- 30.40 in1029.5 mb 0.00 in0.0 mm 0.00 in0.0 mm 0.00 in0.0 mm
11:57 AM 5.1°F-14.9°C -7.6°F-22.0°C 55% 3.0 mph NW4.8 kmh NW -- 30.40 in1029.5 mb 0.00 in0.0 mm 0.00 in0.0 mm 0.00 in0.0 mm
11:58 AM 5.5°F-14.7°C -7.6°F-22.0°C 54% 5.0 mph W8.0 kmh W -- 30.40 in1029.5 mb 0.00 in0.0 mm 0.00 in0.0 mm 0.00 in0.0 mm
11:59 AM 5.6°F-14.7°C -7.6°F-22.0°C 54% 4.0 mph W6.4 kmh W -- 30.40 in1029.5 mb 0.00 in0.0 mm 0.00 in0.0 mm 0.00 in0.0 mm
12:00 PM 5.6°F-14.7°C -8.0°F-22.2°C 53% 2.0 mph W3.2 kmh W -- 30.41 in1029.8 mb 0.00 in0.0 mm 0.00 in0.0 mm 0.00 in0.0 mm
12:01 PM 4.5°F-15.3°C -8.6°F-22.6°C 54% 2.0 mph W3.2 kmh W -- 30.41 in1029.8 mb 0.00 in0.0 mm 0.00 in0.0 mm 0.00 in0.0 mm
12:02 PM 4.5°F-15.3°C -8.3°F-22.4°C 55% 2.0 mph NW3.2 kmh NW -- 30.40 in1029.5 mb 0.00 in0.0 mm 0.00 in0.0 mm 0.00 in0.0 mm
12:03 PM 4.5°F-15.3°C -8.3°F-22.4°C 55% 2.0 mph WNW3.2 kmh WNW -- 30.40 in1029.5 mb 0.00 in0.0 mm 0.00 in0.0 mm 0.00 in0.0 mm
12:04 PM 5.0°F-15.0°C -7.8°F-22.1°C 55% 2.0 mph 3.2 kmh -- 30.40 in1029.5 mb 0.00 in0.0 mm 0.00 in0.0 mm 0.00 in0.0 mm
12:05 PM 5.4°F-14.8°C -7.4°F-21.9°C 55% 2.0 mph NNW3.2 kmh NNW -- 30.41 in1029.8 mb 0.00 in0.0 mm 0.00 in0.0 mm 0.00 in0.0 mm
12:06 PM 5.4°F-14.8°C -7.4°F-21.9°C 55% 3.0 mph NNW4.8 kmh NNW -- 30.41 in1029.8 mb 0.00 in0.0 mm 0.00 in0.0 mm 0.00 in0.0 mm
12:07 PM 5.4°F-14.8°C -7.8°F-22.1°C 54% 4.0 mph NW6.4 kmh NW -- 30.41 in1029.8 mb 0.00 in0.0 mm 0.00 in0.0 mm 0.00 in0.0 mm
12:08 PM 5.4°F-14.8°C -7.8°F-22.1°C 54% 2.0 mph NNW3.2 kmh NNW -- 30.40 in1029.5 mb 0.00 in0.0 mm 0.00 in0.0 mm 0.00 in0.0 mm
12:09 PM 5.6°F-14.7°C -7.6°F-22.0°C 54% 3.0 mph NNW4.8 kmh NNW -- 30.40 in1029.5 mb 0.00 in0.0 mm 0.00 in0.0 mm 0.00 in0.0 mm
12:10 PM 5.6°F-14.7°C -7.6°F-22.0°C 54% 3.0 mph NNW4.8 kmh NNW -- 30.41 in1029.8 mb 0.00 in0.0 mm 0.00 in0.0 mm 0.00 in0.0 mm
12:11 PM 5.5°F-14.7°C -8.0°F-22.2°C 53% 3.0 mph NNW4.8 kmh NNW -- 30.41 in1029.8 mb 0.00 in0.0 mm 0.00 in0.0 mm 0.00 in0.0 mm
12:12 PM 5.4°F-14.8°C -8.2°F-22.3°C 53% 3.0 mph NNW4.8 kmh NNW -- 30.41 in1029.8 mb 0.00 in0.0 mm 0.00 in0.0 mm 0.00 in0.0 mm
12:13 PM 5.4°F-14.8°C -8.2°F-22.3°C 53% 2.0 mph 3.2 kmh -- 30.40 in1029.5 mb 0.00 in0.0 mm 0.00 in0.0 mm 0.00 in0.0 mm
12:14 PM 5.4°F-14.8°C -8.2°F-22.3°C 53% 3.0 mph 4.8 kmh -- 30.40 in1029.5 mb 0.00 in0.0 mm 0.00 in0.0 mm 0.00 in0.0 mm
12:15 PM 5.6°F-14.7°C -8.0°F-22.2°C 53% 3.0 mph NNW4.8 kmh NNW -- 30.40 in1029.5 mb 0.00 in0.0 mm 0.00 in0.0 mm 0.00 in0.0 mm
12:16 PM 5.6°F-14.7°C -8.0°F-22.2°C 53% 2.0 mph NNW3.2 kmh NNW -- 30.40 in1029.5 mb 0.00 in0.0 mm 0.00 in0.0 mm 0.00 in0.0 mm
12:17 PM 5.6°F-14.7°C -8.0°F-22.2°C 53% 4.0 mph NNW6.4 kmh NNW -- 30.40 in1029.5 mb 0.00 in0.0 mm 0.00 in0.0 mm 0.00 in0.0 mm
12:19 PM 5.5°F-14.7°C -8.0°F-22.2°C 53% 3.0 mph NW4.8 kmh NW -- 30.40 in1029.5 mb 0.00 in0.0 mm 0.00 in0.0 mm 0.00 in0.0 mm
12:20 PM 5.4°F-14.8°C -8.2°F-22.3°C 53% 3.0 mph NW4.8 kmh NW -- 30.40 in1029.5 mb 0.00 in0.0 mm 0.00 in0.0 mm 0.00 in0.0 mm
12:21 PM 5.4°F-14.8°C -8.2°F-22.3°C 53% 3.0 mph NNW4.8 kmh NNW -- 30.40 in1029.5 mb 0.00 in0.0 mm 0.00 in0.0 mm 0.00 in0.0 mm
12:23 PM 5.0°F-15.0°C -8.1°F-22.3°C 54% 3.0 mph NNW4.8 kmh NNW -- 30.40 in1029.5 mb 0.00 in0.0 mm 0.00 in0.0 mm 0.00 in0.0 mm
12:25 PM 5.1°F-14.9°C -8.0°F-22.2°C 54% 3.0 mph NNW4.8 kmh NNW -- 30.40 in1029.5 mb 0.00 in0.0 mm 0.00 in0.0 mm 0.00 in0.0 mm
12:26 PM 5.1°F-14.9°C -8.0°F-22.2°C 54% 3.0 mph NW4.8 kmh NW -- 30.40 in1029.5 mb 0.00 in0.0 mm 0.00 in0.0 mm 0.00 in0.0 mm
12:27 PM 5.1°F-14.9°C -8.0°F-22.2°C 54% 4.0 mph NNW6.4 kmh NNW -- 30.40 in1029.5 mb 0.00 in0.0 mm 0.00 in0.0 mm 0.00 in0.0 mm
12:28 PM 5.1°F-14.9°C -8.0°F-22.2°C 54% 4.0 mph NW6.4 kmh NW -- 30.40 in1029.5 mb 0.00 in0.0 mm 0.00 in0.0 mm 0.00 in0.0 mm
12:29 PM 5.1°F-14.9°C -8.0°F-22.2°C 54% 4.0 mph 6.4 kmh -- 30.40 in1029.5 mb 0.00 in0.0 mm 0.00 in0.0 mm 0.00 in0.0 mm
12:30 PM 5.5°F-14.7°C -7.6°F-22.0°C 54% 3.0 mph NW4.8 kmh NW -- 30.40 in1029.5 mb 0.00 in0.0 mm 0.00 in0.0 mm 0.00 in0.0 mm
12:31 PM 5.4°F-14.8°C -7.8°F-22.1°C 54% 2.0 mph NW3.2 kmh NW -- 30.40 in1029.5 mb 0.00 in0.0 mm 0.00 in0.0 mm 0.00 in0.0 mm
12:32 PM 5.4°F-14.8°C -7.8°F-22.1°C 54% 3.0 mph NNW4.8 kmh NNW -- 30.40 in1029.5 mb 0.00 in0.0 mm 0.00 in0.0 mm 0.00 in0.0 mm
12:33 PM 5.1°F-14.9°C -8.0°F-22.2°C 54% 2.0 mph W3.2 kmh W -- 30.40 in1029.5 mb 0.00 in0.0 mm 0.00 in0.0 mm 0.00 in0.0 mm
12:34 PM 5.1°F-14.9°C -7.6°F-22.0°C 55% 2.0 mph NW3.2 kmh NW -- 30.40 in1029.5 mb 0.00 in0.0 mm 0.00 in0.0 mm 0.00 in0.0 mm
12:35 PM 5.4°F-14.8°C -7.4°F-21.9°C 55% 2.0 mph NW3.2 kmh NW -- 30.40 in1029.5 mb 0.00 in0.0 mm 0.00 in0.0 mm 0.00 in0.0 mm
12:36 PM 5.5°F-14.7°C -7.3°F-21.8°C 55% 3.0 mph NNW4.8 kmh NNW -- 30.40 in1029.5 mb 0.00 in0.0 mm 0.00 in0.0 mm 0.00 in0.0 mm
12:37 PM 5.6°F-14.7°C -7.3°F-21.8°C 55% 3.0 mph NNW4.8 kmh NNW -- 30.40 in1029.5 mb 0.00 in0.0 mm 0.00 in0.0 mm 0.00 in0.0 mm
12:38 PM 5.6°F-14.7°C -8.0°F-22.2°C 53% 3.0 mph NNW4.8 kmh NNW -- 30.39 in1029.1 mb 0.00 in0.0 mm 0.00 in0.0 mm 0.00 in0.0 mm
12:39 PM 5.6°F-14.7°C -7.6°F-22.0°C 54% 3.0 mph NNW4.8 kmh NNW -- 30.39 in1029.1 mb 0.00 in0.0 mm 0.00 in0.0 mm 0.00 in0.0 mm
12:40 PM 5.5°F-14.7°C -6.9°F-21.6°C 56% 2.0 mph NW3.2 kmh NW -- 30.40 in1029.5 mb 0.00 in0.0 mm 0.00 in0.0 mm 0.00 in0.0 mm
12:41 PM 5.6°F-14.7°C -6.2°F-21.2°C 58% 1.0 mph W1.6 kmh W -- 30.40 in1029.5 mb 0.00 in0.0 mm 0.00 in0.0 mm 0.00 in0.0 mm
12:42 PM 5.6°F-14.7°C -6.2°F-21.2°C 58% 3.0 mph WNW4.8 kmh WNW -- 30.40 in1029.5 mb 0.00 in0.0 mm 0.00 in0.0 mm 0.00 in0.0 mm
12:43 PM 5.5°F-14.7°C -6.9°F-21.6°C 56% 3.0 mph W4.8 kmh W -- 30.40 in1029.5 mb 0.00 in0.0 mm 0.00 in0.0 mm 0.00 in0.0 mm
12:44 PM 5.5°F-14.7°C -6.9°F-21.6°C 56% 1.0 mph W1.6 kmh W -- 30.40 in1029.5 mb 0.00 in0.0 mm 0.00 in0.0 mm 0.00 in0.0 mm
12:45 PM 5.6°F-14.7°C -6.2°F-21.2°C 58% 4.0 mph W6.4 kmh W -- 30.40 in1029.5 mb 0.00 in0.0 mm 0.00 in0.0 mm 0.00 in0.0 mm
12:46 PM 5.6°F-14.7°C -6.9°F-21.6°C 56% 3.0 mph W4.8 kmh W -- 30.40 in1029.5 mb 0.00 in0.0 mm 0.00 in0.0 mm 0.00 in0.0 mm
12:47 PM 5.5°F-14.7°C -7.3°F-21.8°C 55% 3.0 mph W4.8 kmh W -- 30.40 in1029.5 mb 0.00 in0.0 mm 0.00 in0.0 mm 0.00 in0.0 mm
12:48 PM 5.6°F-14.7°C -7.3°F-21.8°C 55% 3.0 mph WNW4.8 kmh WNW -- 30.39 in1029.1 mb 0.00 in0.0 mm 0.00 in0.0 mm 0.00 in0.0 mm
12:49 PM 5.9°F-14.5°C -6.9°F-21.6°C 55% 4.0 mph W6.4 kmh W -- 30.39 in1029.1 mb 0.00 in0.0 mm 0.00 in0.0 mm 0.00 in0.0 mm
12:50 PM 5.6°F-14.7°C -7.3°F-21.8°C 55% 4.0 mph W6.4 kmh W -- 30.40 in1029.5 mb 0.00 in0.0 mm 0.00 in0.0 mm 0.00 in0.0 mm
12:52 PM 5.9°F-14.5°C -6.9°F-21.6°C 55% 4.0 mph W6.4 kmh W -- 30.40 in1029.5 mb 0.00 in0.0 mm 0.00 in0.0 mm 0.00 in0.0 mm
12:53 PM 5.9°F-14.5°C -6.9°F-21.6°C 55% 4.0 mph W6.4 kmh W -- 30.39 in1029.1 mb 0.00 in0.0 mm 0.00 in0.0 mm 0.00 in0.0 mm
12:54 PM 5.6°F-14.7°C -7.3°F-21.8°C 55% 2.0 mph W3.2 kmh W -- 30.39 in1029.1 mb 0.00 in0.0 mm 0.00 in0.0 mm 0.00 in0.0 mm
12:55 PM 5.5°F-14.7°C -7.3°F-21.8°C 55% 4.0 mph W6.4 kmh W -- 30.39 in1029.1 mb 0.00 in0.0 mm 0.00 in0.0 mm 0.00 in0.0 mm
12:56 PM 5.5°F-14.7°C -7.3°F-21.8°C 55% 3.0 mph W4.8 kmh W -- 30.40 in1029.5 mb 0.00 in0.0 mm 0.00 in0.0 mm 0.00 in0.0 mm
12:57 PM 5.5°F-14.7°C -7.3°F-21.8°C 55% 5.0 mph W8.0 kmh W -- 30.39 in1029.1 mb 0.00 in0.0 mm 0.00 in0.0 mm 0.00 in0.0 mm
12:58 PM 5.5°F-14.7°C -7.3°F-21.8°C 55% 4.0 mph WNW6.4 kmh WNW -- 30.40 in1029.5 mb 0.00 in0.0 mm 0.00 in0.0 mm 0.00 in0.0 mm
12:59 PM 5.5°F-14.7°C -7.3°F-21.8°C 55% 3.0 mph W4.8 kmh W -- 30.39 in1029.1 mb 0.00 in0.0 mm 0.00 in0.0 mm 0.00 in0.0 mm
01:00 PM 5.4°F-14.8°C -7.4°F-21.9°C 55% 4.0 mph W6.4 kmh W -- 30.39 in1029.1 mb 0.00 in0.0 mm 0.00 in0.0 mm 0.00 in0.0 mm
01:01 PM 5.4°F-14.8°C -7.8°F-22.1°C 54% 5.0 mph W8.0 kmh W -- 30.39 in1029.1 mb 0.00 in0.0 mm 0.00 in0.0 mm 0.00 in0.0 mm
01:02 PM 5.7°F-14.6°C -7.5°F-21.9°C 54% 3.0 mph W4.8 kmh W -- 30.39 in1029.1 mb 0.00 in0.0 mm 0.00 in0.0 mm 0.00 in0.0 mm
01:03 PM 5.4°F-14.8°C -7.4°F-21.9°C 55% 5.0 mph W8.0 kmh W -- 30.39 in1029.1 mb 0.00 in0.0 mm 0.00 in0.0 mm 0.00 in0.0 mm
01:05 PM 5.4°F-14.8°C -7.4°F-21.9°C 55% 2.0 mph 3.2 kmh -- 30.39 in1029.1 mb 0.00 in0.0 mm 0.00 in0.0 mm 0.00 in0.0 mm
01:06 PM 5.4°F-14.8°C -7.4°F-21.9°C 55% 3.0 mph W4.8 kmh W -- 30.40 in1029.5 mb 0.00 in0.0 mm 0.00 in0.0 mm 0.00 in0.0 mm
01:07 PM 5.4°F-14.8°C -7.1°F-21.7°C 56% 3.0 mph W4.8 kmh W -- 30.40 in1029.5 mb 0.00 in0.0 mm 0.00 in0.0 mm 0.00 in0.0 mm
01:08 PM 5.4°F-14.8°C -7.4°F-21.9°C 55% 3.0 mph W4.8 kmh W -- 30.39 in1029.1 mb 0.00 in0.0 mm 0.00 in0.0 mm 0.00 in0.0 mm
01:09 PM 4.8°F-15.1°C -7.9°F-22.2°C 55% 3.0 mph SW4.8 kmh SW -- 30.39 in1029.1 mb 0.00 in0.0 mm 0.00 in0.0 mm 0.00 in0.0 mm
01:10 PM 4.5°F-15.3°C -8.3°F-22.4°C 55% 2.0 mph SW3.2 kmh SW -- 30.39 in1029.1 mb 0.00 in0.0 mm 0.00 in0.0 mm 0.00 in0.0 mm
01:11 PM 4.3°F-15.4°C -8.4°F-22.4°C 55% 3.0 mph SSW4.8 kmh SSW -- 30.39 in1029.1 mb 0.00 in0.0 mm 0.00 in0.0 mm 0.00 in0.0 mm
01:12 PM 4.3°F-15.4°C -8.4°F-22.4°C 55% 2.0 mph SSW3.2 kmh SSW -- 30.39 in1029.1 mb 0.00 in0.0 mm 0.00 in0.0 mm 0.00 in0.0 mm
01:13 PM 4.3°F-15.4°C -8.4°F-22.4°C 55% 3.0 mph SSW4.8 kmh SSW -- 30.39 in1029.1 mb 0.00 in0.0 mm 0.00 in0.0 mm 0.00 in0.0 mm
01:14 PM 3.7°F-15.7°C -8.6°F-22.6°C 56% 3.0 mph SSW4.8 kmh SSW -- 30.38 in1028.8 mb 0.00 in0.0 mm 0.00 in0.0 mm 0.00 in0.0 mm
01:15 PM 3.5°F-15.8°C -8.7°F-22.6°C 56% 4.0 mph SSW6.4 kmh SSW -- 30.39 in1029.1 mb 0.00 in0.0 mm 0.00 in0.0 mm 0.00 in0.0 mm
01:16 PM 3.5°F-15.8°C -8.7°F-22.6°C 56% 4.0 mph SW6.4 kmh SW -- 30.39 in1029.1 mb 0.00 in0.0 mm 0.00 in0.0 mm 0.00 in0.0 mm
01:17 PM 4.5°F-15.3°C -7.9°F-22.2°C 56% 5.0 mph W8.0 kmh W -- 30.39 in1029.1 mb 0.00 in0.0 mm 0.00 in0.0 mm 0.00 in0.0 mm
01:18 PM 4.3°F-15.4°C -8.4°F-22.4°C 55% 5.0 mph SW8.0 kmh SW -- 30.39 in1029.1 mb 0.00 in0.0 mm 0.00 in0.0 mm 0.00 in0.0 mm
01:19 PM 4.0°F-15.6°C -8.8°F-22.7°C 55% 4.0 mph W6.4 kmh W -- 30.39 in1029.1 mb 0.00 in0.0 mm 0.00 in0.0 mm 0.00 in0.0 mm
01:20 PM 4.3°F-15.4°C -8.4°F-22.4°C 55% 2.0 mph W3.2 kmh W -- 30.38 in1028.8 mb 0.00 in0.0 mm 0.00 in0.0 mm 0.00 in0.0 mm
01:21 PM 4.3°F-15.4°C -8.4°F-22.4°C 55% 3.0 mph W4.8 kmh W -- 30.38 in1028.8 mb 0.00 in0.0 mm 0.00 in0.0 mm 0.00 in0.0 mm
01:22 PM 4.8°F-15.1°C -7.9°F-22.2°C 55% 4.0 mph W6.4 kmh W -- 30.39 in1029.1 mb 0.00 in0.0 mm 0.00 in0.0 mm 0.00 in0.0 mm
01:23 PM 4.3°F-15.4°C -8.4°F-22.4°C 55% 3.0 mph W4.8 kmh W -- 30.38 in1028.8 mb 0.00 in0.0 mm 0.00 in0.0 mm 0.00 in0.0 mm
01:24 PM 4.0°F-15.6°C -8.8°F-22.7°C 55% 3.0 mph SW4.8 kmh SW -- 30.38 in1028.8 mb 0.00 in0.0 mm 0.00 in0.0 mm 0.00 in0.0 mm
01:25 PM 3.7°F-15.7°C -8.6°F-22.6°C 56% 3.0 mph SW4.8 kmh SW -- 30.38 in1028.8 mb 0.00 in0.0 mm 0.00 in0.0 mm 0.00 in0.0 mm
01:26 PM 3.1°F-16.1°C -8.5°F-22.5°C 58% 3.0 mph SW4.8 kmh SW -- 30.38 in1028.8 mb 0.00 in0.0 mm 0.00 in0.0 mm 0.00 in0.0 mm
01:27 PM 3.0°F-16.1°C -8.2°F-22.3°C 59% 3.0 mph W4.8 kmh W -- 30.38 in1028.8 mb 0.00 in0.0 mm 0.00 in0.0 mm 0.00 in0.0 mm
01:28 PM 3.4°F-15.9°C -7.8°F-22.1°C 59% 2.0 mph W3.2 kmh W -- 30.38 in1028.8 mb 0.00 in0.0 mm 0.00 in0.0 mm 0.00 in0.0 mm
01:29 PM 4.5°F-15.3°C -7.2°F-21.8°C 58% 1.0 mph W1.6 kmh W -- 30.38 in1028.8 mb 0.00 in0.0 mm 0.00 in0.0 mm 0.00 in0.0 mm
01:30 PM 4.5°F-15.3°C -7.2°F-21.8°C 58% Calm Calm -- 30.38 in1028.8 mb 0.00 in0.0 mm 0.00 in0.0 mm 0.00 in0.0 mm
01:31 PM 5.5°F-14.7°C -6.2°F-21.2°C 58% 2.0 mph S3.2 kmh S -- 30.38 in1028.8 mb 0.00 in0.0 mm 0.00 in0.0 mm 0.00 in0.0 mm
01:32 PM 4.3°F-15.4°C -8.1°F-22.3°C 56% 3.0 mph SW4.8 kmh SW -- 30.38 in1028.8 mb 0.00 in0.0 mm 0.00 in0.0 mm 0.00 in0.0 mm
01:33 PM 3.9°F-15.6°C -8.4°F-22.4°C 56% 3.0 mph SW4.8 kmh SW -- 30.38 in1028.8 mb 0.00 in0.0 mm 0.00 in0.0 mm 0.00 in0.0 mm
01:34 PM 4.3°F-15.4°C -7.3°F-21.8°C 58% 1.0 mph W1.6 kmh W -- 30.38 in1028.8 mb 0.00 in0.0 mm 0.00 in0.0 mm 0.00 in0.0 mm
01:35 PM 4.5°F-15.3°C -7.2°F-21.8°C 58% 3.0 mph SSW4.8 kmh SSW -- 30.38 in1028.8 mb 0.00 in0.0 mm 0.00 in0.0 mm 0.00 in0.0 mm
01:36 PM 4.8°F-15.1°C -7.6°F-22.0°C 56% 1.0 mph SSW1.6 kmh SSW -- 30.38 in1028.8 mb 0.00 in0.0 mm 0.00 in0.0 mm 0.00 in0.0 mm
01:37 PM 5.1°F-14.9°C -7.6°F-22.0°C 55% 3.0 mph S4.8 kmh S -- 30.38 in1028.8 mb 0.00 in0.0 mm 0.00 in0.0 mm 0.00 in0.0 mm
01:38 PM 5.4°F-14.8°C -7.8°F-22.1°C 54% 3.0 mph SSW4.8 kmh SSW -- 30.38 in1028.8 mb 0.00 in0.0 mm 0.00 in0.0 mm 0.00 in0.0 mm
01:39 PM 5.1°F-14.9°C -8.4°F-22.4°C 53% 4.0 mph SSE6.4 kmh SSE -- 30.38 in1028.8 mb 0.00 in0.0 mm 0.00 in0.0 mm 0.00 in0.0 mm
01:40 PM 4.8°F-15.1°C -8.7°F-22.6°C 53% 3.0 mph S4.8 kmh S -- 30.38 in1028.8 mb 0.00 in0.0 mm 0.00 in0.0 mm 0.00 in0.0 mm
01:41 PM 4.8°F-15.1°C -8.7°F-22.6°C 53% 1.0 mph SSW1.6 kmh SSW -- 30.38 in1028.8 mb 0.00 in0.0 mm 0.00 in0.0 mm 0.00 in0.0 mm
01:42 PM 4.8°F-15.1°C -8.3°F-22.4°C 54% 1.0 mph W1.6 kmh W -- 30.38 in1028.8 mb 0.00 in0.0 mm 0.00 in0.0 mm 0.00 in0.0 mm
01:43 PM 5.9°F-14.5°C -7.3°F-21.8°C 54% 2.0 mph ESE3.2 kmh ESE -- 30.38 in1028.8 mb 0.00 in0.0 mm 0.00 in0.0 mm 0.00 in0.0 mm
01:44 PM 6.3°F-14.3°C -7.4°F-21.9°C 53% 1.0 mph ESE1.6 kmh ESE -- 30.38 in1028.8 mb 0.00 in0.0 mm 0.00 in0.0 mm 0.00 in0.0 mm
01:45 PM 7.5°F-13.6°C -6.2°F-21.2°C 53% 4.0 mph E6.4 kmh E -- 30.38 in1028.8 mb 0.00 in0.0 mm 0.00 in0.0 mm 0.00 in0.0 mm
01:46 PM 7.9°F-13.4°C -7.1°F-21.7°C 50% 3.0 mph SE4.8 kmh SE -- 30.38 in1028.8 mb 0.00 in0.0 mm 0.00 in0.0 mm 0.00 in0.0 mm
01:47 PM 7.0°F-13.9°C -7.9°F-22.2°C 50% 2.0 mph SE3.2 kmh SE -- 30.38 in1028.8 mb 0.00 in0.0 mm 0.00 in0.0 mm 0.00 in0.0 mm
01:48 PM 6.3°F-14.3°C -8.5°F-22.5°C 50% 4.0 mph ESE6.4 kmh ESE -- 30.38 in1028.8 mb 0.00 in0.0 mm 0.00 in0.0 mm 0.00 in0.0 mm
01:49 PM 5.9°F-14.5°C -8.9°F-22.7°C 50% 4.0 mph S6.4 kmh S -- 30.38 in1028.8 mb 0.00 in0.0 mm 0.00 in0.0 mm 0.00 in0.0 mm
01:50 PM 5.1°F-14.9°C -8.4°F-22.4°C 53% 4.0 mph SSW6.4 kmh SSW -- 30.37 in1028.4 mb 0.00 in0.0 mm 0.00 in0.0 mm 0.00 in0.0 mm
01:51 PM 4.5°F-15.3°C -9.0°F-22.8°C 53% 2.0 mph S3.2 kmh S -- 30.38 in1028.8 mb 0.00 in0.0 mm 0.00 in0.0 mm 0.00 in0.0 mm
01:52 PM 4.5°F-15.3°C -9.0°F-22.8°C 53% 1.0 mph W1.6 kmh W -- 30.37 in1028.4 mb 0.00 in0.0 mm 0.00 in0.0 mm 0.00 in0.0 mm
01:53 PM 5.4°F-14.8°C -7.4°F-21.9°C 55% 6.0 mph SSW9.7 kmh SSW -- 30.38 in1028.8 mb 0.00 in0.0 mm 0.00 in0.0 mm 0.00 in0.0 mm
01:54 PM 5.1°F-14.9°C -8.4°F-22.4°C 53% 4.0 mph SW6.4 kmh SW -- 30.38 in1028.8 mb 0.00 in0.0 mm 0.00 in0.0 mm 0.00 in0.0 mm
01:55 PM 5.0°F-15.0°C -8.5°F-22.5°C 53% 4.0 mph SW6.4 kmh SW -- 30.38 in1028.8 mb 0.00 in0.0 mm 0.00 in0.0 mm 0.00 in0.0 mm
01:56 PM 4.5°F-15.3°C -9.0°F-22.8°C 53% 1.0 mph SSW1.6 kmh SSW -- 30.38 in1028.8 mb 0.00 in0.0 mm 0.00 in0.0 mm 0.00 in0.0 mm
01:57 PM 4.8°F-15.1°C -8.3°F-22.4°C 54% 1.0 mph W1.6 kmh W -- 30.38 in1028.8 mb 0.00 in0.0 mm 0.00 in0.0 mm 0.00 in0.0 mm
01:58 PM 5.1°F-14.9°C -8.0°F-22.2°C 54% 2.0 mph W3.2 kmh W -- 30.38 in1028.8 mb 0.00 in0.0 mm 0.00 in0.0 mm 0.00 in0.0 mm
01:59 PM 5.0°F-15.0°C -8.5°F-22.5°C 53% 3.0 mph SW4.8 kmh SW -- 30.38 in1028.8 mb 0.00 in0.0 mm 0.00 in0.0 mm 0.00 in0.0 mm
02:00 PM 4.3°F-15.4°C -9.2°F-22.9°C 53% 4.0 mph SSE6.4 kmh SSE -- 30.38 in1028.8 mb 0.00 in0.0 mm 0.00 in0.0 mm 0.00 in0.0 mm
02:01 PM 4.0°F-15.6°C -9.2°F-22.9°C 54% 3.0 mph SE4.8 kmh SE -- 30.38 in1028.8 mb 0.00 in0.0 mm 0.00 in0.0 mm 0.00 in0.0 mm
02:02 PM 4.5°F-15.3°C -8.6°F-22.6°C 54% 2.0 mph SE3.2 kmh SE -- 30.38 in1028.8 mb 0.00 in0.0 mm 0.00 in0.0 mm 0.00 in0.0 mm
02:03 PM 4.5°F-15.3°C -8.6°F-22.6°C 54% 4.0 mph S6.4 kmh S -- 30.38 in1028.8 mb 0.00 in0.0 mm 0.00 in0.0 mm 0.00 in0.0 mm
02:04 PM 4.5°F-15.3°C -8.6°F-22.6°C 54% 2.0 mph ESE3.2 kmh ESE -- 30.38 in1028.8 mb 0.00 in0.0 mm 0.00 in0.0 mm 0.00 in0.0 mm
02:05 PM 4.5°F-15.3°C -8.6°F-22.6°C 54% 4.0 mph SSW6.4 kmh SSW -- 30.38 in1028.8 mb 0.00 in0.0 mm 0.00 in0.0 mm 0.00 in0.0 mm
02:06 PM 4.0°F-15.6°C -9.2°F-22.9°C 54% 3.0 mph SSW4.8 kmh SSW -- 30.38 in1028.8 mb 0.00 in0.0 mm 0.00 in0.0 mm 0.00 in0.0 mm
02:07 PM 4.0°F-15.6°C -9.2°F-22.9°C 54% 3.0 mph SSE4.8 kmh SSE -- 30.38 in1028.8 mb 0.00 in0.0 mm 0.00 in0.0 mm 0.00 in0.0 mm
02:08 PM 4.8°F-15.1°C -8.3°F-22.4°C 54% 3.0 mph ESE4.8 kmh ESE -- 30.38 in1028.8 mb 0.00 in0.0 mm 0.00 in0.0 mm 0.00 in0.0 mm
02:09 PM 5.0°F-15.0°C -8.1°F-22.3°C 54% 3.0 mph SSE4.8 kmh SSE -- 30.38 in1028.8 mb 0.00 in0.0 mm 0.00 in0.0 mm 0.00 in0.0 mm
02:10 PM 5.4°F-14.8°C -8.2°F-22.3°C 53% 3.0 mph ESE4.8 kmh ESE -- 30.37 in1028.4 mb 0.00 in0.0 mm 0.00 in0.0 mm 0.00 in0.0 mm
02:11 PM 5.0°F-15.0°C -8.5°F-22.5°C 53% 5.0 mph SE8.0 kmh SE -- 30.38 in1028.8 mb 0.00 in0.0 mm 0.00 in0.0 mm 0.00 in0.0 mm
02:12 PM 4.8°F-15.1°C -8.7°F-22.6°C 53% 2.0 mph SSW3.2 kmh SSW -- 30.38 in1028.8 mb 0.00 in0.0 mm 0.00 in0.0 mm 0.00 in0.0 mm
02:13 PM 4.3°F-15.4°C -8.8°F-22.7°C 54% 4.0 mph SSE6.4 kmh SSE -- 30.38 in1028.8 mb 0.00 in0.0 mm 0.00 in0.0 mm 0.00 in0.0 mm
02:14 PM 4.0°F-15.6°C -9.2°F-22.9°C 54% 3.0 mph SSE4.8 kmh SSE -- 30.38 in1028.8 mb 0.00 in0.0 mm 0.00 in0.0 mm 0.00 in0.0 mm
02:15 PM 4.5°F-15.3°C -8.3°F-22.4°C 55% 6.0 mph SSW9.7 kmh SSW -- 30.38 in1028.8 mb 0.00 in0.0 mm 0.00 in0.0 mm 0.00 in0.0 mm
02:16 PM 4.5°F-15.3°C -8.6°F-22.6°C 54% 2.0 mph SSW3.2 kmh SSW -- 30.37 in1028.4 mb 0.00 in0.0 mm 0.00 in0.0 mm 0.00 in0.0 mm
02:17 PM 4.5°F-15.3°C -8.6°F-22.6°C 54% 5.0 mph WSW8.0 kmh WSW -- 30.37 in1028.4 mb 0.00 in0.0 mm 0.00 in0.0 mm 0.00 in0.0 mm
02:18 PM 4.8°F-15.1°C -8.3°F-22.4°C 54% 3.0 mph W4.8 kmh W -- 30.37 in1028.4 mb 0.00 in0.0 mm 0.00 in0.0 mm 0.00 in0.0 mm
02:19 PM 5.0°F-15.0°C -8.1°F-22.3°C 54% 2.0 mph W3.2 kmh W -- 30.37 in1028.4 mb 0.00 in0.0 mm 0.00 in0.0 mm 0.00 in0.0 mm
02:20 PM 5.0°F-15.0°C -8.1°F-22.3°C 54% 4.0 mph SW6.4 kmh SW -- 30.38 in1028.8 mb 0.00 in0.0 mm 0.00 in0.0 mm 0.00 in0.0 mm
02:21 PM 5.4°F-14.8°C -7.4°F-21.9°C 55% 4.0 mph W6.4 kmh W -- 30.37 in1028.4 mb 0.00 in0.0 mm 0.00 in0.0 mm 0.00 in0.0 mm
02:22 PM 5.1°F-14.9°C -8.0°F-22.2°C 54% 4.0 mph SW6.4 kmh SW -- 30.38 in1028.8 mb 0.00 in0.0 mm 0.00 in0.0 mm 0.00 in0.0 mm
02:23 PM 5.1°F-14.9°C -8.0°F-22.2°C 54% 4.0 mph W6.4 kmh W -- 30.37 in1028.4 mb 0.00 in0.0 mm 0.00 in0.0 mm 0.00 in0.0 mm
02:24 PM 5.1°F-14.9°C -8.0°F-22.2°C 54% 3.0 mph SW4.8 kmh SW -- 30.38 in1028.8 mb 0.00 in0.0 mm 0.00 in0.0 mm 0.00 in0.0 mm
02:25 PM 5.1°F-14.9°C -8.0°F-22.2°C 54% 3.0 mph W4.8 kmh W -- 30.37 in1028.4 mb 0.00 in0.0 mm 0.00 in0.0 mm 0.00 in0.0 mm
02:26 PM 5.4°F-14.8°C -7.8°F-22.1°C 54% 2.0 mph WSW3.2 kmh WSW -- 30.38 in1028.8 mb 0.00 in0.0 mm 0.00 in0.0 mm 0.00 in0.0 mm
02:27 PM 5.0°F-15.0°C -7.8°F-22.1°C 55% 1.0 mph S1.6 kmh S -- 30.37 in1028.4 mb 0.00 in0.0 mm 0.00 in0.0 mm 0.00 in0.0 mm
02:28 PM 4.5°F-15.3°C -8.3°F-22.4°C 55% 3.0 mph SW4.8 kmh SW -- 30.37 in1028.4 mb 0.00 in0.0 mm 0.00 in0.0 mm 0.00 in0.0 mm
02:29 PM 4.0°F-15.6°C -8.8°F-22.7°C 55% 5.0 mph SSW8.0 kmh SSW -- 30.37 in1028.4 mb 0.00 in0.0 mm 0.00 in0.0 mm 0.00 in0.0 mm
02:30 PM 4.3°F-15.4°C -8.4°F-22.4°C 55% 4.0 mph W6.4 kmh W -- 30.37 in1028.4 mb 0.00 in0.0 mm 0.00 in0.0 mm 0.00 in0.0 mm
02:31 PM 4.0°F-15.6°C -8.8°F-22.7°C 55% 3.0 mph SW4.8 kmh SW -- 30.37 in1028.4 mb 0.00 in0.0 mm 0.00 in0.0 mm 0.00 in0.0 mm
02:32 PM 3.7°F-15.7°C -8.9°F-22.7°C 55% 3.0 mph SSW4.8 kmh SSW -- 30.37 in1028.4 mb 0.00 in0.0 mm 0.00 in0.0 mm 0.00 in0.0 mm
02:33 PM 3.7°F-15.7°C -8.6°F-22.6°C 56% 1.0 mph SSW1.6 kmh SSW -- 30.37 in1028.4 mb 0.00 in0.0 mm 0.00 in0.0 mm 0.00 in0.0 mm
02:34 PM 4.0°F-15.6°C -7.7°F-22.1°C 58% 2.0 mph W3.2 kmh W -- 30.37 in1028.4 mb 0.00 in0.0 mm 0.00 in0.0 mm 0.00 in0.0 mm
02:35 PM 4.3°F-15.4°C -7.3°F-21.8°C 58% 1.0 mph SW1.6 kmh SW -- 30.37 in1028.4 mb 0.00 in0.0 mm 0.00 in0.0 mm 0.00 in0.0 mm
02:36 PM 4.3°F-15.4°C -8.1°F-22.3°C 56% 2.0 mph S3.2 kmh S -- 30.37 in1028.4 mb 0.00 in0.0 mm 0.00 in0.0 mm 0.00 in0.0 mm
02:37 PM 4.8°F-15.1°C -7.6°F-22.0°C 56% 2.0 mph WSW3.2 kmh WSW -- 30.37 in1028.4 mb 0.00 in0.0 mm 0.00 in0.0 mm 0.00 in0.0 mm
02:38 PM 4.8°F-15.1°C -7.6°F-22.0°C 56% 4.0 mph W6.4 kmh W -- 30.37 in1028.4 mb 0.00 in0.0 mm 0.00 in0.0 mm 0.00 in0.0 mm
02:39 PM 5.5°F-14.7°C -7.3°F-21.8°C 55% 2.0 mph ESE3.2 kmh ESE -- 30.37 in1028.4 mb 0.00 in0.0 mm 0.00 in0.0 mm 0.00 in0.0 mm
02:40 PM 6.5°F-14.2°C -7.2°F-21.8°C 53% 3.0 mph ESE4.8 kmh ESE -- 30.36 in1028.1 mb 0.00 in0.0 mm 0.00 in0.0 mm 0.00 in0.0 mm
02:41 PM 7.0°F-13.9°C -7.5°F-21.9°C 51% Calm Calm -- 30.36 in1028.1 mb 0.00 in0.0 mm 0.00 in0.0 mm 0.00 in0.0 mm
02:42 PM 7.3°F-13.7°C -6.3°F-21.3°C 53% 2.0 mph SSW3.2 kmh SSW -- 30.36 in1028.1 mb 0.00 in0.0 mm 0.00 in0.0 mm 0.00 in0.0 mm
02:43 PM 5.9°F-14.5°C -7.7°F-22.1°C 53% 2.0 mph WSW3.2 kmh WSW -- 30.37 in1028.4 mb 0.00 in0.0 mm 0.00 in0.0 mm 0.00 in0.0 mm
02:44 PM 4.8°F-15.1°C -8.3°F-22.4°C 54% 2.0 mph SW3.2 kmh SW -- 30.36 in1028.1 mb 0.00 in0.0 mm 0.00 in0.0 mm 0.00 in0.0 mm
02:45 PM 4.5°F-15.3°C -8.3°F-22.4°C 55% Calm Calm -- 30.36 in1028.1 mb 0.00 in0.0 mm 0.00 in0.0 mm 0.00 in0.0 mm
02:46 PM 5.6°F-14.7°C -6.9°F-21.6°C 56% 1.0 mph W1.6 kmh W -- 30.36 in1028.1 mb 0.00 in0.0 mm 0.00 in0.0 mm 0.00 in0.0 mm
02:47 PM 6.1°F-14.4°C -6.4°F-21.3°C 56% 4.0 mph SW6.4 kmh SW -- 30.36 in1028.1 mb 0.00 in0.0 mm 0.00 in0.0 mm 0.00 in0.0 mm
02:48 PM 5.5°F-14.7°C -7.3°F-21.8°C 55% 2.0 mph SSW3.2 kmh SSW -- 30.36 in1028.1 mb 0.00 in0.0 mm 0.00 in0.0 mm 0.00 in0.0 mm
02:49 PM 5.0°F-15.0°C -7.8°F-22.1°C 55% 2.0 mph WSW3.2 kmh WSW -- 30.36 in1028.1 mb 0.00 in0.0 mm 0.00 in0.0 mm 0.00 in0.0 mm
02:50 PM 5.4°F-14.8°C -7.4°F-21.9°C 55% 2.0 mph NW3.2 kmh NW -- 30.36 in1028.1 mb 0.00 in0.0 mm 0.00 in0.0 mm 0.00 in0.0 mm
02:51 PM 6.1°F-14.4°C -6.8°F-21.6°C 55% 3.0 mph NW4.8 kmh NW -- 30.36 in1028.1 mb 0.00 in0.0 mm 0.00 in0.0 mm 0.00 in0.0 mm
02:52 PM 6.1°F-14.4°C -6.8°F-21.6°C 55% 2.0 mph NW3.2 kmh NW -- 30.36 in1028.1 mb 0.00 in0.0 mm 0.00 in0.0 mm 0.00 in0.0 mm
02:53 PM 6.1°F-14.4°C -6.8°F-21.6°C 55% 2.0 mph W3.2 kmh W -- 30.36 in1028.1 mb 0.00 in0.0 mm 0.00 in0.0 mm 0.00 in0.0 mm
02:54 PM 5.0°F-15.0°C -7.8°F-22.1°C 55% 2.0 mph WSW3.2 kmh WSW -- 30.36 in1028.1 mb 0.00 in0.0 mm 0.00 in0.0 mm 0.00 in0.0 mm
02:55 PM 4.5°F-15.3°C -8.3°F-22.4°C 55% 1.0 mph SSW1.6 kmh SSW -- 30.36 in1028.1 mb 0.00 in0.0 mm 0.00 in0.0 mm 0.00 in0.0 mm
02:56 PM 4.8°F-15.1°C -7.6°F-22.0°C 56% 2.0 mph W3.2 kmh W -- 30.36 in1028.1 mb 0.00 in0.0 mm 0.00 in0.0 mm 0.00 in0.0 mm
02:57 PM 4.8°F-15.1°C -7.9°F-22.2°C 55% 2.0 mph W3.2 kmh W -- 30.37 in1028.4 mb 0.00 in0.0 mm 0.00 in0.0 mm 0.00 in0.0 mm
02:58 PM 5.0°F-15.0°C -7.8°F-22.1°C 55% 3.0 mph W4.8 kmh W -- 30.36 in1028.1 mb 0.00 in0.0 mm 0.00 in0.0 mm 0.00 in0.0 mm
02:59 PM 5.0°F-15.0°C -7.8°F-22.1°C 55% 2.0 mph WSW3.2 kmh WSW -- 30.36 in1028.1 mb 0.00 in0.0 mm 0.00 in0.0 mm 0.00 in0.0 mm
03:00 PM 4.5°F-15.3°C -8.3°F-22.4°C 55% 2.0 mph WSW3.2 kmh WSW -- 30.36 in1028.1 mb 0.00 in0.0 mm 0.00 in0.0 mm 0.00 in0.0 mm
03:01 PM 5.0°F-15.0°C -7.8°F-22.1°C 55% 2.0 mph W3.2 kmh W -- 30.36 in1028.1 mb 0.00 in0.0 mm 0.00 in0.0 mm 0.00 in0.0 mm
03:02 PM 5.4°F-14.8°C -7.4°F-21.9°C 55% 3.0 mph W4.8 kmh W -- 30.36 in1028.1 mb 0.00 in0.0 mm 0.00 in0.0 mm 0.00 in0.0 mm
03:03 PM 5.1°F-14.9°C -7.6°F-22.0°C 55% 3.0 mph SW4.8 kmh SW -- 30.36 in1028.1 mb 0.00 in0.0 mm 0.00 in0.0 mm 0.00 in0.0 mm
03:04 PM 5.1°F-14.9°C -7.6°F-22.0°C 55% 3.0 mph SSW4.8 kmh SSW -- 30.36 in1028.1 mb 0.00 in0.0 mm 0.00 in0.0 mm 0.00 in0.0 mm
03:05 PM 4.5°F-15.3°C -8.3°F-22.4°C 55% 2.0 mph W3.2 kmh W -- 30.36 in1028.1 mb 0.00 in0.0 mm 0.00 in0.0 mm 0.00 in0.0 mm
03:06 PM 4.5°F-15.3°C -8.3°F-22.4°C 55% 4.0 mph W6.4 kmh W -- 30.36 in1028.1 mb 0.00 in0.0 mm 0.00 in0.0 mm 0.00 in0.0 mm
03:07 PM 4.8°F-15.1°C -7.9°F-22.2°C 55% 3.0 mph W4.8 kmh W -- 30.35 in1027.8 mb 0.00 in0.0 mm 0.00 in0.0 mm 0.00 in0.0 mm
03:09 PM 4.8°F-15.1°C -8.3°F-22.4°C 54% 1.0 mph WSW1.6 kmh WSW -- 30.36 in1028.1 mb 0.00 in0.0 mm 0.00 in0.0 mm 0.00 in0.0 mm
03:10 PM 5.0°F-15.0°C -7.8°F-22.1°C 55% Calm Calm -- 30.36 in1028.1 mb 0.00 in0.0 mm 0.00 in0.0 mm 0.00 in0.0 mm
03:11 PM 4.8°F-15.1°C -7.9°F-22.2°C 55% 1.0 mph SSW1.6 kmh SSW -- 30.35 in1027.8 mb 0.00 in0.0 mm 0.00 in0.0 mm 0.00 in0.0 mm
03:12 PM 4.8°F-15.1°C -7.6°F-22.0°C 56% 1.0 mph SW1.6 kmh SW -- 30.35 in1027.8 mb 0.00 in0.0 mm 0.00 in0.0 mm 0.00 in0.0 mm
03:14 PM 5.4°F-14.8°C -7.1°F-21.7°C 56% 4.0 mph NW6.4 kmh NW -- 30.36 in1028.1 mb 0.00 in0.0 mm 0.00 in0.0 mm 0.00 in0.0 mm
03:15 PM 5.6°F-14.7°C -7.3°F-21.8°C 55% 2.0 mph WNW3.2 kmh WNW -- 30.35 in1027.8 mb 0.00 in0.0 mm 0.00 in0.0 mm 0.00 in0.0 mm
03:16 PM 6.1°F-14.4°C -6.8°F-21.6°C 55% Calm Calm -- 30.35 in1027.8 mb 0.00 in0.0 mm 0.00 in0.0 mm 0.00 in0.0 mm
03:17 PM 6.5°F-14.2°C -6.4°F-21.3°C 55% 1.0 mph WNW1.6 kmh WNW -- 30.35 in1027.8 mb 0.00 in0.0 mm 0.00 in0.0 mm 0.00 in0.0 mm
03:18 PM 6.8°F-14.0°C -6.1°F-21.2°C 55% Calm Calm -- 30.36 in1028.1 mb 0.00 in0.0 mm 0.00 in0.0 mm 0.00 in0.0 mm
03:19 PM 6.5°F-14.2°C -6.4°F-21.3°C 55% 3.0 mph W4.8 kmh W -- 30.35 in1027.8 mb 0.00 in0.0 mm 0.00 in0.0 mm 0.00 in0.0 mm
03:20 PM 6.3°F-14.3°C -7.4°F-21.9°C 53% 3.0 mph W4.8 kmh W -- 30.36 in1028.1 mb 0.00 in0.0 mm 0.00 in0.0 mm 0.00 in0.0 mm
03:21 PM 5.9°F-14.5°C -7.7°F-22.1°C 53% 2.0 mph W3.2 kmh W -- 30.35 in1027.8 mb 0.00 in0.0 mm 0.00 in0.0 mm 0.00 in0.0 mm
03:22 PM 5.1°F-14.9°C -8.0°F-22.2°C 54% 2.0 mph WSW3.2 kmh WSW -- 30.36 in1028.1 mb 0.00 in0.0 mm 0.00 in0.0 mm 0.00 in0.0 mm
03:23 PM 5.1°F-14.9°C -8.0°F-22.2°C 54% Calm Calm -- 30.35 in1027.8 mb 0.00 in0.0 mm 0.00 in0.0 mm 0.00 in0.0 mm
03:24 PM 5.0°F-15.0°C -7.8°F-22.1°C 55% 3.0 mph W4.8 kmh W -- 30.35 in1027.8 mb 0.00 in0.0 mm 0.00 in0.0 mm 0.00 in0.0 mm
03:25 PM 5.4°F-14.8°C -7.4°F-21.9°C 55% 3.0 mph W4.8 kmh W -- 30.35 in1027.8 mb 0.00 in0.0 mm 0.00 in0.0 mm 0.00 in0.0 mm
03:26 PM 5.5°F-14.7°C -7.6°F-22.0°C 54% 3.0 mph W4.8 kmh W -- 30.35 in1027.8 mb 0.00 in0.0 mm 0.00 in0.0 mm 0.00 in0.0 mm
03:28 PM 5.5°F-14.7°C -8.0°F-22.2°C 53% 1.0 mph WSW1.6 kmh WSW -- 30.35 in1027.8 mb 0.00 in0.0 mm 0.00 in0.0 mm 0.00 in0.0 mm
03:29 PM 5.5°F-14.7°C -8.0°F-22.2°C 53% 1.0 mph W1.6 kmh W -- 30.35 in1027.8 mb 0.00 in0.0 mm 0.00 in0.0 mm 0.00 in0.0 mm
03:30 PM 5.5°F-14.7°C -8.0°F-22.2°C 53% 2.0 mph S3.2 kmh S -- 30.35 in1027.8 mb 0.00 in0.0 mm 0.00 in0.0 mm 0.00 in0.0 mm
03:31 PM 4.5°F-15.3°C -9.0°F-22.8°C 53% 2.0 mph SSW3.2 kmh SSW -- 30.35 in1027.8 mb 0.00 in0.0 mm 0.00 in0.0 mm 0.00 in0.0 mm
03:32 PM 4.5°F-15.3°C -8.3°F-22.4°C 55% 1.0 mph SSE1.6 kmh SSE -- 30.35 in1027.8 mb 0.00 in0.0 mm 0.00 in0.0 mm 0.00 in0.0 mm
03:33 PM 4.8°F-15.1°C -7.9°F-22.2°C 55% Calm Calm -- 30.35 in1027.8 mb 0.00 in0.0 mm 0.00 in0.0 mm 0.00 in0.0 mm
03:34 PM 4.5°F-15.3°C -8.3°F-22.4°C 55% 2.0 mph SW3.2 kmh SW -- 30.35 in1027.8 mb 0.00 in0.0 mm 0.00 in0.0 mm 0.00 in0.0 mm
03:35 PM 4.3°F-15.4°C -8.4°F-22.4°C 55% 2.0 mph SSW3.2 kmh SSW -- 30.35 in1027.8 mb 0.00 in0.0 mm 0.00 in0.0 mm 0.00 in0.0 mm
03:36 PM 4.5°F-15.3°C -8.3°F-22.4°C 55% 2.0 mph S3.2 kmh S -- 30.35 in1027.8 mb 0.00 in0.0 mm 0.00 in0.0 mm 0.00 in0.0 mm
03:37 PM 4.8°F-15.1°C -7.9°F-22.2°C 55% 3.0 mph WSW4.8 kmh WSW -- 30.35 in1027.8 mb 0.00 in0.0 mm 0.00 in0.0 mm 0.00 in0.0 mm
03:38 PM 5.4°F-14.8°C -7.4°F-21.9°C 55% 2.0 mph W3.2 kmh W -- 30.35 in1027.8 mb 0.00 in0.0 mm 0.00 in0.0 mm 0.00 in0.0 mm
03:39 PM 5.1°F-14.9°C -7.6°F-22.0°C 55% 3.0 mph W4.8 kmh W -- 30.35 in1027.8 mb 0.00 in0.0 mm 0.00 in0.0 mm 0.00 in0.0 mm
03:40 PM 5.4°F-14.8°C -7.4°F-21.9°C 55% 4.0 mph WSW6.4 kmh WSW -- 30.35 in1027.8 mb 0.00 in0.0 mm 0.00 in0.0 mm 0.00 in0.0 mm
03:41 PM 5.6°F-14.7°C -7.3°F-21.8°C 55% 4.0 mph SW6.4 kmh SW -- 30.35 in1027.8 mb 0.00 in0.0 mm 0.00 in0.0 mm 0.00 in0.0 mm
03:42 PM 5.0°F-15.0°C -8.1°F-22.3°C 54% 4.0 mph SSW6.4 kmh SSW -- 30.35 in1027.8 mb 0.00 in0.0 mm 0.00 in0.0 mm 0.00 in0.0 mm
03:43 PM 4.8°F-15.1°C -8.3°F-22.4°C 54% 5.0 mph SW8.0 kmh SW -- 30.35 in1027.8 mb 0.00 in0.0 mm 0.00 in0.0 mm 0.00 in0.0 mm
03:44 PM 5.0°F-15.0°C -8.1°F-22.3°C 54% 4.0 mph SSW6.4 kmh SSW -- 30.35 in1027.8 mb 0.00 in0.0 mm 0.00 in0.0 mm 0.00 in0.0 mm
03:45 PM 4.8°F-15.1°C -8.3°F-22.4°C 54% 5.0 mph SSE8.0 kmh SSE -- 30.35 in1027.8 mb 0.00 in0.0 mm 0.00 in0.0 mm 0.00 in0.0 mm
03:46 PM 4.5°F-15.3°C -8.6°F-22.6°C 54% 4.0 mph SSE6.4 kmh SSE -- 30.35 in1027.8 mb 0.00 in0.0 mm 0.00 in0.0 mm 0.00 in0.0 mm
03:47 PM 4.0°F-15.6°C -9.2°F-22.9°C 54% 4.0 mph S6.4 kmh S -- 30.35 in1027.8 mb 0.00 in0.0 mm 0.00 in0.0 mm 0.00 in0.0 mm
03:48 PM 4.0°F-15.6°C -9.2°F-22.9°C 54% 3.0 mph SSE4.8 kmh SSE -- 30.35 in1027.8 mb 0.00 in0.0 mm 0.00 in0.0 mm 0.00 in0.0 mm
03:49 PM 4.3°F-15.4°C -8.4°F-22.4°C 55% 5.0 mph SSW8.0 kmh SSW -- 30.35 in1027.8 mb 0.00 in0.0 mm 0.00 in0.0 mm 0.00 in0.0 mm
03:50 PM 4.3°F-15.4°C -8.4°F-22.4°C 55% 4.0 mph S6.4 kmh S -- 30.35 in1027.8 mb 0.00 in0.0 mm 0.00 in0.0 mm 0.00 in0.0 mm
03:51 PM 4.3°F-15.4°C -8.4°F-22.4°C 55% 3.0 mph SSW4.8 kmh SSW -- 30.35 in1027.8 mb 0.00 in0.0 mm 0.00 in0.0 mm 0.00 in0.0 mm
03:52 PM 4.5°F-15.3°C -8.3°F-22.4°C 55% 2.0 mph SW3.2 kmh SW -- 30.35 in1027.8 mb 0.00 in0.0 mm 0.00 in0.0 mm 0.00 in0.0 mm
03:53 PM 4.5°F-15.3°C -8.3°F-22.4°C 55% 7.0 mph SE11.3 kmh SE -- 30.34 in1027.4 mb 0.00 in0.0 mm 0.00 in0.0 mm 0.00 in0.0 mm
03:54 PM 4.0°F-15.6°C -8.8°F-22.7°C 55% 5.0 mph SSE8.0 kmh SSE -- 30.35 in1027.8 mb 0.00 in0.0 mm 0.00 in0.0 mm 0.00 in0.0 mm
03:55 PM 4.0°F-15.6°C -8.8°F-22.7°C 55% 3.0 mph S4.8 kmh S -- 30.35 in1027.8 mb 0.00 in0.0 mm 0.00 in0.0 mm 0.00 in0.0 mm
03:56 PM 4.3°F-15.4°C -8.4°F-22.4°C 55% 4.0 mph ESE6.4 kmh ESE -- 30.35 in1027.8 mb 0.00 in0.0 mm 0.00 in0.0 mm 0.00 in0.0 mm
03:57 PM 4.5°F-15.3°C -8.6°F-22.6°C 54% 2.0 mph ESE3.2 kmh ESE -- 30.34 in1027.4 mb 0.00 in0.0 mm 0.00 in0.0 mm 0.00 in0.0 mm
03:58 PM 4.5°F-15.3°C -8.6°F-22.6°C 54% 5.0 mph S8.0 kmh S -- 30.35 in1027.8 mb 0.00 in0.0 mm 0.00 in0.0 mm 0.00 in0.0 mm
03:59 PM 4.3°F-15.4°C -8.8°F-22.7°C 54% 4.0 mph S6.4 kmh S -- 30.34 in1027.4 mb 0.00 in0.0 mm 0.00 in0.0 mm 0.00 in0.0 mm
04:00 PM 4.0°F-15.6°C -9.2°F-22.9°C 54% 4.0 mph S6.4 kmh S -- 30.35 in1027.8 mb 0.00 in0.0 mm 0.00 in0.0 mm 0.00 in0.0 mm
04:01 PM 3.9°F-15.6°C -8.8°F-22.7°C 55% 3.0 mph SSE4.8 kmh SSE -- 30.35 in1027.8 mb 0.00 in0.0 mm 0.00 in0.0 mm 0.00 in0.0 mm
04:02 PM 3.7°F-15.7°C -8.9°F-22.7°C 55% 2.0 mph E3.2 kmh E -- 30.35 in1027.8 mb 0.00 in0.0 mm 0.00 in0.0 mm 0.00 in0.0 mm
04:03 PM 3.4°F-15.9°C -9.3°F-22.9°C 55% 4.0 mph SSE6.4 kmh SSE -- 30.34 in1027.4 mb 0.00 in0.0 mm 0.00 in0.0 mm 0.00 in0.0 mm
04:04 PM 3.5°F-15.8°C -9.1°F-22.8°C 55% 4.0 mph SE6.4 kmh SE -- 30.35 in1027.8 mb 0.00 in0.0 mm 0.00 in0.0 mm 0.00 in0.0 mm
04:05 PM 3.5°F-15.8°C -9.1°F-22.8°C 55% 4.0 mph S6.4 kmh S -- 30.35 in1027.8 mb 0.00 in0.0 mm 0.00 in0.0 mm 0.00 in0.0 mm
04:06 PM 3.9°F-15.6°C -8.8°F-22.7°C 55% 3.0 mph ESE4.8 kmh ESE -- 30.35 in1027.8 mb 0.00 in0.0 mm 0.00 in0.0 mm 0.00 in0.0 mm
04:07 PM 3.7°F-15.7°C -8.9°F-22.7°C 55% 6.0 mph SE9.7 kmh SE -- 30.34 in1027.4 mb 0.00 in0.0 mm 0.00 in0.0 mm 0.00 in0.0 mm
04:08 PM 3.9°F-15.6°C -8.8°F-22.7°C 55% 4.0 mph S6.4 kmh S -- 30.35 in1027.8 mb 0.00 in0.0 mm 0.00 in0.0 mm 0.00 in0.0 mm
04:09 PM 3.9°F-15.6°C -8.8°F-22.7°C 55% 6.0 mph ESE9.7 kmh ESE -- 30.34 in1027.4 mb 0.00 in0.0 mm 0.00 in0.0 mm 0.00 in0.0 mm
04:10 PM 3.9°F-15.6°C -8.8°F-22.7°C 55% 3.0 mph ESE4.8 kmh ESE -- 30.35 in1027.8 mb 0.00 in0.0 mm 0.00 in0.0 mm 0.00 in0.0 mm
04:11 PM 3.9°F-15.6°C -8.8°F-22.7°C 55% 4.0 mph ESE6.4 kmh ESE -- 30.35 in1027.8 mb 0.00 in0.0 mm 0.00 in0.0 mm 0.00 in0.0 mm
04:12 PM 3.9°F-15.6°C -8.4°F-22.4°C 56% 4.0 mph S6.4 kmh S -- 30.34 in1027.4 mb 0.00 in0.0 mm 0.00 in0.0 mm 0.00 in0.0 mm
04:13 PM 3.5°F-15.8°C -9.1°F-22.8°C 55% 4.0 mph ESE6.4 kmh ESE -- 30.34 in1027.4 mb 0.00 in0.0 mm 0.00 in0.0 mm 0.00 in0.0 mm
04:14 PM 3.4°F-15.9°C -9.3°F-22.9°C 55% 3.0 mph SSE4.8 kmh SSE -- 30.34 in1027.4 mb 0.00 in0.0 mm 0.00 in0.0 mm 0.00 in0.0 mm
04:15 PM 3.4°F-15.9°C -9.3°F-22.9°C 55% 5.0 mph S8.0 kmh S -- 30.34 in1027.4 mb 0.00 in0.0 mm 0.00 in0.0 mm 0.00 in0.0 mm
04:16 PM 3.4°F-15.9°C -9.3°F-22.9°C 55% 5.0 mph SE8.0 kmh SE -- 30.34 in1027.4 mb 0.00 in0.0 mm 0.00 in0.0 mm 0.00 in0.0 mm
04:17 PM 3.1°F-16.1°C -9.6°F-23.1°C 55% 4.0 mph SSE6.4 kmh SSE -- 30.35 in1027.8 mb 0.00 in0.0 mm 0.00 in0.0 mm 0.00 in0.0 mm
04:18 PM 3.1°F-16.1°C -9.6°F-23.1°C 55% 4.0 mph S6.4 kmh S -- 30.35 in1027.8 mb 0.00 in0.0 mm 0.00 in0.0 mm 0.00 in0.0 mm
04:19 PM 3.1°F-16.1°C -9.6°F-23.1°C 55% 5.0 mph SSE8.0 kmh SSE -- 30.34 in1027.4 mb 0.00 in0.0 mm 0.00 in0.0 mm 0.00 in0.0 mm
04:20 PM 3.0°F-16.1°C -9.6°F-23.1°C 55% 5.0 mph S8.0 kmh S -- 30.34 in1027.4 mb 0.00 in0.0 mm 0.00 in0.0 mm 0.00 in0.0 mm
04:21 PM 2.7°F-16.3°C -10.0°F-23.3°C 55% 5.0 mph SSE8.0 kmh SSE -- 30.35 in1027.8 mb 0.00 in0.0 mm 0.00 in0.0 mm 0.00 in0.0 mm
04:22 PM 3.0°F-16.1°C -9.3°F-22.9°C 56% 5.0 mph SSE8.0 kmh SSE -- 30.35 in1027.8 mb 0.00 in0.0 mm 0.00 in0.0 mm 0.00 in0.0 mm
04:23 PM 3.1°F-16.1°C -9.3°F-22.9°C 56% 5.0 mph ESE8.0 kmh ESE -- 30.34 in1027.4 mb 0.00 in0.0 mm 0.00 in0.0 mm 0.00 in0.0 mm
04:24 PM 3.0°F-16.1°C -9.3°F-22.9°C 56% 5.0 mph ESE8.0 kmh ESE -- 30.34 in1027.4 mb 0.00 in0.0 mm 0.00 in0.0 mm 0.00 in0.0 mm
04:25 PM 3.0°F-16.1°C -9.3°F-22.9°C 56% 4.0 mph SSE6.4 kmh SSE -- 30.35 in1027.8 mb 0.00 in0.0 mm 0.00 in0.0 mm 0.00 in0.0 mm
04:26 PM 3.0°F-16.1°C -9.3°F-22.9°C 56% 4.0 mph S6.4 kmh S -- 30.35 in1027.8 mb 0.00 in0.0 mm 0.00 in0.0 mm 0.00 in0.0 mm
04:27 PM 3.0°F-16.1°C -9.3°F-22.9°C 56% 3.0 mph S4.8 kmh S -- 30.34 in1027.4 mb 0.00 in0.0 mm 0.00 in0.0 mm 0.00 in0.0 mm
04:28 PM 3.0°F-16.1°C -9.3°F-22.9°C 56% 4.0 mph SSE6.4 kmh SSE -- 30.34 in1027.4 mb 0.00 in0.0 mm 0.00 in0.0 mm 0.00 in0.0 mm
04:29 PM 2.7°F-16.3°C -8.9°F-22.7°C 58% 4.0 mph S6.4 kmh S -- 30.34 in1027.4 mb 0.00 in0.0 mm 0.00 in0.0 mm 0.00 in0.0 mm
04:30 PM 2.7°F-16.3°C -8.9°F-22.7°C 58% 5.0 mph S8.0 kmh S -- 30.34 in1027.4 mb 0.00 in0.0 mm 0.00 in0.0 mm 0.00 in0.0 mm
04:31 PM 2.5°F-16.4°C -9.0°F-22.8°C 58% 5.0 mph S8.0 kmh S -- 30.34 in1027.4 mb 0.00 in0.0 mm 0.00 in0.0 mm 0.00 in0.0 mm
04:32 PM 2.5°F-16.4°C -9.0°F-22.8°C 58% 5.0 mph SSE8.0 kmh SSE -- 30.34 in1027.4 mb 0.00 in0.0 mm 0.00 in0.0 mm 0.00 in0.0 mm
04:33 PM 2.5°F-16.4°C -8.7°F-22.6°C 59% 5.0 mph S8.0 kmh S -- 30.34 in1027.4 mb 0.00 in0.0 mm 0.00 in0.0 mm 0.00 in0.0 mm
04:34 PM 2.5°F-16.4°C -8.7°F-22.6°C 59% 5.0 mph ESE8.0 kmh ESE -- 30.34 in1027.4 mb 0.00 in0.0 mm 0.00 in0.0 mm 0.00 in0.0 mm
04:36 PM 2.5°F-16.4°C -8.7°F-22.6°C 59% 5.0 mph S8.0 kmh S -- 30.34 in1027.4 mb 0.00 in0.0 mm 0.00 in0.0 mm 0.00 in0.0 mm
04:37 PM 2.7°F-16.3°C -8.5°F-22.5°C 59% 6.0 mph S9.7 kmh S -- 30.34 in1027.4 mb 0.00 in0.0 mm 0.00 in0.0 mm 0.00 in0.0 mm
04:38 PM 2.7°F-16.3°C -8.5°F-22.5°C 59% 5.0 mph S8.0 kmh S -- 30.34 in1027.4 mb 0.00 in0.0 mm 0.00 in0.0 mm 0.00 in0.0 mm
04:39 PM 2.7°F-16.3°C -8.5°F-22.5°C 59% 4.0 mph S6.4 kmh S -- 30.34 in1027.4 mb 0.00 in0.0 mm 0.00 in0.0 mm 0.00 in0.0 mm
04:40 PM 2.2°F-16.6°C -9.0°F-22.8°C 59% 4.0 mph SSE6.4 kmh SSE -- 30.34 in1027.4 mb 0.00 in0.0 mm 0.00 in0.0 mm 0.00 in0.0 mm
04:41 PM 2.2°F-16.6°C -9.0°F-22.8°C 59% 4.0 mph S6.4 kmh S -- 30.34 in1027.4 mb 0.00 in0.0 mm 0.00 in0.0 mm 0.00 in0.0 mm
04:42 PM 2.7°F-16.3°C -8.5°F-22.5°C 59% 4.0 mph S6.4 kmh S -- 30.34 in1027.4 mb 0.00 in0.0 mm 0.00 in0.0 mm 0.00 in0.0 mm
04:43 PM 2.7°F-16.3°C -8.5°F-22.5°C 59% 3.0 mph S4.8 kmh S -- 30.34 in1027.4 mb 0.00 in0.0 mm 0.00 in0.0 mm 0.00 in0.0 mm
04:44 PM 2.5°F-16.4°C -8.7°F-22.6°C 59% 5.0 mph SSE8.0 kmh SSE -- 30.34 in1027.4 mb 0.00 in0.0 mm 0.00 in0.0 mm 0.00 in0.0 mm
04:45 PM 2.5°F-16.4°C -8.7°F-22.6°C 59% 4.0 mph S6.4 kmh S -- 30.34 in1027.4 mb 0.00 in0.0 mm 0.00 in0.0 mm 0.00 in0.0 mm
04:47 PM 2.5°F-16.4°C -8.7°F-22.6°C 59% 3.0 mph SSW4.8 kmh SSW -- 30.34 in1027.4 mb 0.00 in0.0 mm 0.00 in0.0 mm 0.00 in0.0 mm
04:48 PM 2.5°F-16.4°C -8.7°F-22.6°C 59% 2.0 mph SSE3.2 kmh SSE -- 30.34 in1027.4 mb 0.00 in0.0 mm 0.00 in0.0 mm 0.00 in0.0 mm
04:49 PM 2.5°F-16.4°C -8.7°F-22.6°C 59% 3.0 mph S4.8 kmh S -- 30.34 in1027.4 mb 0.00 in0.0 mm 0.00 in0.0 mm 0.00 in0.0 mm
04:50 PM 2.7°F-16.3°C -8.5°F-22.5°C 59% 3.0 mph SSE4.8 kmh SSE -- 30.34 in1027.4 mb 0.00 in0.0 mm 0.00 in0.0 mm 0.00 in0.0 mm
04:51 PM 2.7°F-16.3°C -8.5°F-22.5°C 59% 5.0 mph SSE8.0 kmh SSE -- 30.34 in1027.4 mb 0.00 in0.0 mm 0.00 in0.0 mm 0.00 in0.0 mm
04:53 PM 2.7°F-16.3°C -8.5°F-22.5°C 59% 2.0 mph SSE3.2 kmh SSE -- 30.34 in1027.4 mb 0.00 in0.0 mm 0.00 in0.0 mm 0.00 in0.0 mm
04:54 PM 2.7°F-16.3°C -8.5°F-22.5°C 59% 5.0 mph SSE8.0 kmh SSE -- 30.34 in1027.4 mb 0.00 in0.0 mm 0.00 in0.0 mm 0.00 in0.0 mm
04:55 PM 2.7°F-16.3°C -8.5°F-22.5°C 59% 3.0 mph SE4.8 kmh SE -- 30.34 in1027.4 mb 0.00 in0.0 mm 0.00 in0.0 mm 0.00 in0.0 mm
04:57 PM 2.7°F-16.3°C -8.5°F-22.5°C 59% 6.0 mph SSW9.7 kmh SSW -- 30.34 in1027.4 mb 0.00 in0.0 mm 0.00 in0.0 mm 0.00 in0.0 mm
04:58 PM 2.7°F-16.3°C -8.5°F-22.5°C 59% 3.0 mph SE4.8 kmh SE -- 30.34 in1027.4 mb 0.00 in0.0 mm 0.00 in0.0 mm 0.00 in0.0 mm
04:59 PM 2.5°F-16.4°C -8.7°F-22.6°C 59% 4.0 mph S6.4 kmh S -- 30.34 in1027.4 mb 0.00 in0.0 mm 0.00 in0.0 mm 0.00 in0.0 mm
05:00 PM 2.5°F-16.4°C -8.7°F-22.6°C 59% 3.0 mph S4.8 kmh S -- 30.34 in1027.4 mb 0.00 in0.0 mm 0.00 in0.0 mm 0.00 in0.0 mm
05:01 PM 2.5°F-16.4°C -8.7°F-22.6°C 59% 4.0 mph SSE6.4 kmh SSE -- 30.34 in1027.4 mb 0.00 in0.0 mm 0.00 in0.0 mm 0.00 in0.0 mm
05:02 PM 2.5°F-16.4°C -8.7°F-22.6°C 59% 4.0 mph ESE6.4 kmh ESE -- 30.34 in1027.4 mb 0.00 in0.0 mm 0.00 in0.0 mm 0.00 in0.0 mm
05:03 PM 2.5°F-16.4°C -8.7°F-22.6°C 59% 2.0 mph S3.2 kmh S -- 30.34 in1027.4 mb 0.00 in0.0 mm 0.00 in0.0 mm 0.00 in0.0 mm
05:04 PM 2.7°F-16.3°C -8.5°F-22.5°C 59% 2.0 mph SSW3.2 kmh SSW -- 30.34 in1027.4 mb 0.00 in0.0 mm 0.00 in0.0 mm 0.00 in0.0 mm
05:05 PM 2.7°F-16.3°C -8.5°F-22.5°C 59% 3.0 mph S4.8 kmh S -- 30.34 in1027.4 mb 0.00 in0.0 mm 0.00 in0.0 mm 0.00 in0.0 mm
05:06 PM 2.7°F-16.3°C -8.5°F-22.5°C 59% 3.0 mph SSW4.8 kmh SSW -- 30.34 in1027.4 mb 0.00 in0.0 mm 0.00 in0.0 mm 0.00 in0.0 mm
05:07 PM 2.5°F-16.4°C -8.3°F-22.4°C 60% 4.0 mph SSW6.4 kmh SSW -- 30.34 in1027.4 mb 0.00 in0.0 mm 0.00 in0.0 mm 0.00 in0.0 mm
05:08 PM 2.5°F-16.4°C -8.3°F-22.4°C 60% 5.0 mph SSW8.0 kmh SSW -- 30.34 in1027.4 mb 0.00 in0.0 mm 0.00 in0.0 mm 0.00 in0.0 mm
05:09 PM 2.5°F-16.4°C -8.3°F-22.4°C 60% 2.0 mph S3.2 kmh S -- 30.34 in1027.4 mb 0.00 in0.0 mm 0.00 in0.0 mm 0.00 in0.0 mm
05:10 PM 2.0°F-16.7°C -8.9°F-22.7°C 60% 3.0 mph SSE4.8 kmh SSE -- 30.34 in1027.4 mb 0.00 in0.0 mm 0.00 in0.0 mm 0.00 in0.0 mm
05:11 PM 2.0°F-16.7°C -8.9°F-22.7°C 60% 3.0 mph SE4.8 kmh SE -- 30.34 in1027.4 mb 0.00 in0.0 mm 0.00 in0.0 mm 0.00 in0.0 mm
05:12 PM 2.2°F-16.6°C -8.7°F-22.6°C 60% 4.0 mph SSW6.4 kmh SSW -- 30.33 in1027.1 mb 0.00 in0.0 mm 0.00 in0.0 mm 0.00 in0.0 mm
05:13 PM 1.9°F-16.7°C -8.9°F-22.7°C 60% 5.0 mph S8.0 kmh S -- 30.34 in1027.4 mb 0.00 in0.0 mm 0.00 in0.0 mm 0.00 in0.0 mm
05:14 PM 1.9°F-16.7°C -8.9°F-22.7°C 60% 4.0 mph S6.4 kmh S -- 30.33 in1027.1 mb 0.00 in0.0 mm 0.00 in0.0 mm 0.00 in0.0 mm
05:15 PM 2.0°F-16.7°C -8.9°F-22.7°C 60% 4.0 mph SSW6.4 kmh SSW -- 30.34 in1027.4 mb 0.00 in0.0 mm 0.00 in0.0 mm 0.00 in0.0 mm
05:16 PM 2.5°F-16.4°C -8.3°F-22.4°C 60% 3.0 mph SSW4.8 kmh SSW -- 30.34 in1027.4 mb 0.00 in0.0 mm 0.00 in0.0 mm 0.00 in0.0 mm
05:17 PM 2.5°F-16.4°C -8.3°F-22.4°C 60% 5.0 mph SSE8.0 kmh SSE -- 30.34 in1027.4 mb 0.00 in0.0 mm 0.00 in0.0 mm 0.00 in0.0 mm
05:18 PM 2.5°F-16.4°C -8.3°F-22.4°C 60% 4.0 mph S6.4 kmh S -- 30.34 in1027.4 mb 0.00 in0.0 mm 0.00 in0.0 mm 0.00 in0.0 mm
05:19 PM 2.0°F-16.7°C -8.9°F-22.7°C 60% 4.0 mph S6.4 kmh S -- 30.34 in1027.4 mb 0.00 in0.0 mm 0.00 in0.0 mm 0.00 in0.0 mm
05:20 PM 2.2°F-16.6°C -8.7°F-22.6°C 60% 5.0 mph SSE8.0 kmh SSE -- 30.34 in1027.4 mb 0.00 in0.0 mm 0.00 in0.0 mm 0.00 in0.0 mm
05:21 PM 1.7°F-16.8°C -9.0°F-22.8°C 60% 4.0 mph SSE6.4 kmh SSE -- 30.34 in1027.4 mb 0.00 in0.0 mm 0.00 in0.0 mm 0.00 in0.0 mm
05:22 PM 1.5°F-16.9°C -9.2°F-22.9°C 60% 4.0 mph S6.4 kmh S -- 30.34 in1027.4 mb 0.00 in0.0 mm 0.00 in0.0 mm 0.00 in0.0 mm
05:23 PM 1.7°F-16.8°C -9.0°F-22.8°C 60% 4.0 mph S6.4 kmh S -- 30.34 in1027.4 mb 0.00 in0.0 mm 0.00 in0.0 mm 0.00 in0.0 mm
05:24 PM 1.9°F-16.7°C -8.9°F-22.7°C 60% 4.0 mph S6.4 kmh S -- 30.34 in1027.4 mb 0.00 in0.0 mm 0.00 in0.0 mm 0.00 in0.0 mm
05:25 PM 1.9°F-16.7°C -8.9°F-22.7°C 60% 6.0 mph SSE9.7 kmh SSE -- 30.34 in1027.4 mb 0.00 in0.0 mm 0.00 in0.0 mm 0.00 in0.0 mm
05:26 PM 1.9°F-16.7°C -8.9°F-22.7°C 60% 3.0 mph SW4.8 kmh SW -- 30.34 in1027.4 mb 0.00 in0.0 mm 0.00 in0.0 mm 0.00 in0.0 mm
05:27 PM 1.9°F-16.7°C -8.9°F-22.7°C 60% 4.0 mph S6.4 kmh S -- 30.33 in1027.1 mb 0.00 in0.0 mm 0.00 in0.0 mm 0.00 in0.0 mm
05:28 PM 1.7°F-16.8°C -9.0°F-22.8°C 60% 4.0 mph S6.4 kmh S -- 30.33 in1027.1 mb 0.00 in0.0 mm 0.00 in0.0 mm 0.00 in0.0 mm
05:29 PM 1.5°F-16.9°C -9.2°F-22.9°C 60% 4.0 mph SSW6.4 kmh SSW -- 30.33 in1027.1 mb 0.00 in0.0 mm 0.00 in0.0 mm 0.00 in0.0 mm
05:30 PM 2.0°F-16.7°C -8.5°F-22.5°C 61% 3.0 mph SW4.8 kmh SW -- 30.34 in1027.4 mb 0.00 in0.0 mm 0.00 in0.0 mm 0.00 in0.0 mm
05:31 PM 1.9°F-16.7°C -8.5°F-22.5°C 61% 3.0 mph S4.8 kmh S -- 30.33 in1027.1 mb 0.00 in0.0 mm 0.00 in0.0 mm 0.00 in0.0 mm
05:32 PM 1.9°F-16.7°C -8.5°F-22.5°C 61% 4.0 mph S6.4 kmh S -- 30.33 in1027.1 mb 0.00 in0.0 mm 0.00 in0.0 mm 0.00 in0.0 mm
05:33 PM 1.7°F-16.8°C -8.7°F-22.6°C 61% 4.0 mph SSW6.4 kmh SSW -- 30.33 in1027.1 mb 0.00 in0.0 mm 0.00 in0.0 mm 0.00 in0.0 mm
05:34 PM 1.7°F-16.8°C -8.7°F-22.6°C 61% 4.0 mph SSE6.4 kmh SSE -- 30.33 in1027.1 mb 0.00 in0.0 mm 0.00 in0.0 mm 0.00 in0.0 mm
05:35 PM 1.5°F-16.9°C -8.9°F-22.7°C 61% 3.0 mph S4.8 kmh S -- 30.33 in1027.1 mb 0.00 in0.0 mm 0.00 in0.0 mm 0.00 in0.0 mm
05:36 PM 1.5°F-16.9°C -8.9°F-22.7°C 61% 3.0 mph S4.8 kmh S -- 30.34 in1027.4 mb 0.00 in0.0 mm 0.00 in0.0 mm 0.00 in0.0 mm
05:37 PM 1.5°F-16.9°C -8.9°F-22.7°C 61% 4.0 mph S6.4 kmh S -- 30.33 in1027.1 mb 0.00 in0.0 mm 0.00 in0.0 mm 0.00 in0.0 mm
05:38 PM 1.3°F-17.1°C -9.2°F-22.9°C 61% 6.0 mph SSE9.7 kmh SSE -- 30.33 in1027.1 mb 0.00 in0.0 mm 0.00 in0.0 mm 0.00 in0.0 mm
05:39 PM 1.2°F-17.1°C -9.2°F-22.9°C 61% 5.0 mph S8.0 kmh S -- 30.33 in1027.1 mb 0.00 in0.0 mm 0.00 in0.0 mm 0.00 in0.0 mm
05:40 PM 1.2°F-17.1°C -9.2°F-22.9°C 61% 2.0 mph S3.2 kmh S -- 30.33 in1027.1 mb 0.00 in0.0 mm 0.00 in0.0 mm 0.00 in0.0 mm
05:41 PM 1.3°F-17.1°C -9.2°F-22.9°C 61% 3.0 mph S4.8 kmh S -- 30.33 in1027.1 mb 0.00 in0.0 mm 0.00 in0.0 mm 0.00 in0.0 mm
05:42 PM 1.4°F-17.0°C -9.0°F-22.8°C 61% 4.0 mph SSE6.4 kmh SSE -- 30.33 in1027.1 mb 0.00 in0.0 mm 0.00 in0.0 mm 0.00 in0.0 mm
05:43 PM 1.2°F-17.1°C -9.2°F-22.9°C 61% 4.0 mph S6.4 kmh S -- 30.33 in1027.1 mb 0.00 in0.0 mm 0.00 in0.0 mm 0.00 in0.0 mm
05:44 PM 1.2°F-17.1°C -9.2°F-22.9°C 61% 3.0 mph SSE4.8 kmh SSE -- 30.33 in1027.1 mb 0.00 in0.0 mm 0.00 in0.0 mm 0.00 in0.0 mm
05:45 PM 1.2°F-17.1°C -9.2°F-22.9°C 61% 2.0 mph SSE3.2 kmh SSE -- 30.33 in1027.1 mb 0.00 in0.0 mm 0.00 in0.0 mm 0.00 in0.0 mm
05:46 PM 1.5°F-16.9°C -8.9°F-22.7°C 61% 4.0 mph SSE6.4 kmh SSE -- 30.33 in1027.1 mb 0.00 in0.0 mm 0.00 in0.0 mm 0.00 in0.0 mm
05:47 PM 1.3°F-17.1°C -9.2°F-22.9°C 61% 3.0 mph SW4.8 kmh SW -- 30.33 in1027.1 mb 0.00 in0.0 mm 0.00 in0.0 mm 0.00 in0.0 mm
05:48 PM 1.2°F-17.1°C -9.2°F-22.9°C 61% 4.0 mph S6.4 kmh S -- 30.33 in1027.1 mb 0.00 in0.0 mm 0.00 in0.0 mm 0.00 in0.0 mm
05:49 PM 1.2°F-17.1°C -9.2°F-22.9°C 61% 4.0 mph SSE6.4 kmh SSE -- 30.33 in1027.1 mb 0.00 in0.0 mm 0.00 in0.0 mm 0.00 in0.0 mm
05:50 PM 1.2°F-17.1°C -9.2°F-22.9°C 61% 4.0 mph SSW6.4 kmh SSW -- 30.33 in1027.1 mb 0.00 in0.0 mm 0.00 in0.0 mm 0.00 in0.0 mm
05:51 PM 1.0°F-17.2°C -9.4°F-23.0°C 61% 4.0 mph S6.4 kmh S -- 30.33 in1027.1 mb 0.00 in0.0 mm 0.00 in0.0 mm 0.00 in0.0 mm
05:52 PM 1.0°F-17.2°C -9.4°F-23.0°C 61% 3.0 mph S4.8 kmh S -- 30.33 in1027.1 mb 0.00 in0.0 mm 0.00 in0.0 mm 0.00 in0.0 mm
05:53 PM 1.2°F-17.1°C -9.2°F-22.9°C 61% 3.0 mph S4.8 kmh S -- 30.33 in1027.1 mb 0.00 in0.0 mm 0.00 in0.0 mm 0.00 in0.0 mm
05:54 PM 1.0°F-17.2°C -9.4°F-23.0°C 61% 4.0 mph S6.4 kmh S -- 30.33 in1027.1 mb 0.00 in0.0 mm 0.00 in0.0 mm 0.00 in0.0 mm
05:55 PM 1.2°F-17.1°C -9.2°F-22.9°C 61% 4.0 mph S6.4 kmh S -- 30.32 in1026.8 mb 0.00 in0.0 mm 0.00 in0.0 mm 0.00 in0.0 mm
05:56 PM 1.2°F-17.1°C -9.2°F-22.9°C 61% 4.0 mph S6.4 kmh S -- 30.33 in1027.1 mb 0.00 in0.0 mm 0.00 in0.0 mm 0.00 in0.0 mm
05:57 PM 1.2°F-17.1°C -8.9°F-22.7°C 62% 5.0 mph SSE8.0 kmh SSE -- 30.32 in1026.8 mb 0.00 in0.0 mm 0.00 in0.0 mm 0.00 in0.0 mm
05:58 PM 1.0°F-17.2°C -9.4°F-23.0°C 61% 3.0 mph SSW4.8 kmh SSW -- 30.32 in1026.8 mb 0.00 in0.0 mm 0.00 in0.0 mm 0.00 in0.0 mm
05:59 PM 0.9°F-17.3°C -9.5°F-23.1°C 61% 3.0 mph S4.8 kmh S -- 30.33 in1027.1 mb 0.00 in0.0 mm 0.00 in0.0 mm 0.00 in0.0 mm
06:00 PM 0.9°F-17.3°C -9.5°F-23.1°C 61% 2.0 mph SSE3.2 kmh SSE -- 30.33 in1027.1 mb 0.00 in0.0 mm 0.00 in0.0 mm 0.00 in0.0 mm
06:01 PM 1.0°F-17.2°C -9.4°F-23.0°C 61% 3.0 mph SSE4.8 kmh SSE -- 30.33 in1027.1 mb 0.00 in0.0 mm 0.00 in0.0 mm 0.00 in0.0 mm
06:02 PM 1.0°F-17.2°C -9.4°F-23.0°C 61% 4.0 mph SSE6.4 kmh SSE -- 30.33 in1027.1 mb 0.00 in0.0 mm 0.00 in0.0 mm 0.00 in0.0 mm
06:03 PM 0.7°F-17.4°C -9.7°F-23.2°C 61% 3.0 mph S4.8 kmh S -- 30.33 in1027.1 mb 0.00 in0.0 mm 0.00 in0.0 mm 0.00 in0.0 mm
06:06 PM 0.7°F-17.4°C -9.7°F-23.2°C 61% 3.0 mph SSW4.8 kmh SSW -- 30.33 in1027.1 mb 0.00 in0.0 mm 0.00 in0.0 mm 0.00 in0.0 mm
06:07 PM 0.7°F-17.4°C -9.1°F-22.8°C 63% 2.0 mph S3.2 kmh S -- 30.32 in1026.8 mb 0.00 in0.0 mm 0.00 in0.0 mm 0.00 in0.0 mm
06:08 PM 0.5°F-17.5°C -9.2°F-22.9°C 63% 4.0 mph SSE6.4 kmh SSE -- 30.32 in1026.8 mb 0.00 in0.0 mm 0.00 in0.0 mm 0.00 in0.0 mm
06:09 PM 0.5°F-17.5°C -9.2°F-22.9°C 63% 3.0 mph S4.8 kmh S -- 30.33 in1027.1 mb 0.00 in0.0 mm 0.00 in0.0 mm 0.00 in0.0 mm
06:10 PM 0.5°F-17.5°C -9.2°F-22.9°C 63% 4.0 mph S6.4 kmh S -- 30.33 in1027.1 mb 0.00 in0.0 mm 0.00 in0.0 mm 0.00 in0.0 mm
06:11 PM 0.5°F-17.5°C -9.2°F-22.9°C 63% 3.0 mph S4.8 kmh S -- 30.33 in1027.1 mb 0.00 in0.0 mm 0.00 in0.0 mm 0.00 in0.0 mm
06:12 PM 0.5°F-17.5°C -9.2°F-22.9°C 63% 4.0 mph SSE6.4 kmh SSE -- 30.33 in1027.1 mb 0.00 in0.0 mm 0.00 in0.0 mm 0.00 in0.0 mm
06:14 PM 0.5°F-17.5°C -9.2°F-22.9°C 63% 2.0 mph SSE3.2 kmh SSE -- 30.33 in1027.1 mb 0.00 in0.0 mm 0.00 in0.0 mm 0.00 in0.0 mm
06:15 PM 0.5°F-17.5°C -9.2°F-22.9°C 63% 4.0 mph SSE6.4 kmh SSE -- 30.33 in1027.1 mb 0.00 in0.0 mm 0.00 in0.0 mm 0.00 in0.0 mm
06:16 PM 0.5°F-17.5°C -9.2°F-22.9°C 63% 3.0 mph SSE4.8 kmh SSE -- 30.32 in1026.8 mb 0.00 in0.0 mm 0.00 in0.0 mm 0.00 in0.0 mm
06:17 PM 0.3°F-17.6°C -9.4°F-23.0°C 63% 3.0 mph SSE4.8 kmh SSE -- 30.32 in1026.8 mb 0.00 in0.0 mm 0.00 in0.0 mm 0.00 in0.0 mm
06:18 PM 0.3°F-17.6°C -9.4°F-23.0°C 63% 3.0 mph S4.8 kmh S -- 30.32 in1026.8 mb 0.00 in0.0 mm 0.00 in0.0 mm 0.00 in0.0 mm
06:19 PM 0.1°F-17.7°C -9.6°F-23.1°C 63% 3.0 mph S4.8 kmh S -- 30.32 in1026.8 mb 0.00 in0.0 mm 0.00 in0.0 mm 0.00 in0.0 mm
06:20 PM 0.1°F-17.7°C -9.6°F-23.1°C 63% 2.0 mph SSW3.2 kmh SSW -- 30.32 in1026.8 mb 0.00 in0.0 mm 0.00 in0.0 mm 0.00 in0.0 mm
06:22 PM 0.1°F-17.7°C -9.6°F-23.1°C 63% 2.0 mph S3.2 kmh S -- 30.32 in1026.8 mb 0.00 in0.0 mm 0.00 in0.0 mm 0.00 in0.0 mm
06:25 PM 0.0°F-17.8°C -9.7°F-23.2°C 63% 2.0 mph S3.2 kmh S -- 30.32 in1026.8 mb 0.00 in0.0 mm 0.00 in0.0 mm 0.00 in0.0 mm
06:26 PM -0.2°F-17.9°C -9.9°F-23.3°C 63% 2.0 mph S3.2 kmh S -- 30.32 in1026.8 mb 0.00 in0.0 mm 0.00 in0.0 mm 0.00 in0.0 mm
06:28 PM -0.2°F-17.9°C -9.9°F-23.3°C 63% 1.0 mph S1.6 kmh S -- 30.32 in1026.8 mb 0.00 in0.0 mm 0.00 in0.0 mm 0.00 in0.0 mm
06:29 PM -0.2°F-17.9°C -9.9°F-23.3°C 63% 1.0 mph SSE1.6 kmh SSE -- 30.32 in1026.8 mb 0.00 in0.0 mm 0.00 in0.0 mm 0.00 in0.0 mm
06:30 PM -0.4°F-18.0°C -9.4°F-23.0°C 65% 2.0 mph S3.2 kmh S -- 30.32 in1026.8 mb 0.00 in0.0 mm 0.00 in0.0 mm 0.00 in0.0 mm
06:31 PM -0.4°F-18.0°C -9.4°F-23.0°C 65% 2.0 mph SSE3.2 kmh SSE -- 30.32 in1026.8 mb 0.00 in0.0 mm 0.00 in0.0 mm 0.00 in0.0 mm
06:32 PM -0.4°F-18.0°C -9.4°F-23.0°C 65% 1.0 mph SSE1.6 kmh SSE -- 30.32 in1026.8 mb 0.00 in0.0 mm 0.00 in0.0 mm 0.00 in0.0 mm
06:33 PM -0.4°F-18.0°C -9.4°F-23.0°C 65% 2.0 mph SSW3.2 kmh SSW -- 30.32 in1026.8 mb 0.00 in0.0 mm 0.00 in0.0 mm 0.00 in0.0 mm
06:34 PM -0.4°F-18.0°C -9.4°F-23.0°C 65% 1.0 mph S1.6 kmh S -- 30.32 in1026.8 mb 0.00 in0.0 mm 0.00 in0.0 mm 0.00 in0.0 mm
06:35 PM -0.4°F-18.0°C -9.4°F-23.0°C 65% Calm Calm -- 30.32 in1026.8 mb 0.00 in0.0 mm 0.00 in0.0 mm 0.00 in0.0 mm
06:41 PM -0.6°F-18.1°C -9.6°F-23.1°C 65% Calm Calm -- 30.32 in1026.8 mb 0.00 in0.0 mm 0.00 in0.0 mm 0.00 in0.0 mm
06:42 PM -0.8°F-18.2°C -9.8°F-23.2°C 65% Calm Calm -- 30.32 in1026.8 mb 0.00 in0.0 mm 0.00 in0.0 mm 0.00 in0.0 mm
06:43 PM -0.8°F-18.2°C -9.8°F-23.2°C 65% Calm Calm -- 30.31 in1026.4 mb 0.00 in0.0 mm 0.00 in0.0 mm 0.00 in0.0 mm
06:45 PM -0.6°F-18.1°C -9.6°F-23.1°C 65% Calm Calm -- 30.31 in1026.4 mb 0.00 in0.0 mm 0.00 in0.0 mm 0.00 in0.0 mm
06:46 PM 0.0°F-17.8°C -9.1°F-22.8°C 65% Calm Calm -- 30.31 in1026.4 mb 0.00 in0.0 mm 0.00 in0.0 mm 0.00 in0.0 mm
06:47 PM 0.5°F-17.5°C -9.2°F-22.9°C 63% Calm Calm -- 30.32 in1026.8 mb 0.00 in0.0 mm 0.00 in0.0 mm 0.00 in0.0 mm
06:48 PM 0.7°F-17.4°C -9.7°F-23.2°C 61% Calm Calm -- 30.32 in1026.8 mb 0.00 in0.0 mm 0.00 in0.0 mm 0.00 in0.0 mm
06:49 PM 0.7°F-17.4°C -9.7°F-23.2°C 61% Calm Calm -- 30.32 in1026.8 mb 0.00 in0.0 mm 0.00 in0.0 mm 0.00 in0.0 mm
06:50 PM 0.7°F-17.4°C -10.0°F-23.3°C 60% Calm Calm -- 30.31 in1026.4 mb 0.00 in0.0 mm 0.00 in0.0 mm 0.00 in0.0 mm
06:51 PM 0.7°F-17.4°C -10.0°F-23.3°C 60% Calm Calm -- 30.32 in1026.8 mb 0.00 in0.0 mm 0.00 in0.0 mm 0.00 in0.0 mm
06:52 PM 0.3°F-17.6°C -10.4°F-23.6°C 60% Calm Calm -- 30.32 in1026.8 mb 0.00 in0.0 mm 0.00 in0.0 mm 0.00 in0.0 mm
06:53 PM 0.1°F-17.7°C -10.6°F-23.7°C 60% Calm Calm -- 30.32 in1026.8 mb 0.00 in0.0 mm 0.00 in0.0 mm 0.00 in0.0 mm
06:54 PM -0.2°F-17.9°C -10.9°F-23.8°C 60% Calm Calm -- 30.32 in1026.8 mb 0.00 in0.0 mm 0.00 in0.0 mm 0.00 in0.0 mm
06:55 PM -0.4°F-18.0°C -11.1°F-23.9°C 60% Calm Calm -- 30.32 in1026.8 mb 0.00 in0.0 mm 0.00 in0.0 mm 0.00 in0.0 mm
06:56 PM -0.6°F-18.1°C -11.2°F-24.0°C 60% Calm Calm -- 30.32 in1026.8 mb 0.00 in0.0 mm 0.00 in0.0 mm 0.00 in0.0 mm
06:57 PM -0.8°F-18.2°C -11.4°F-24.1°C 60% Calm Calm -- 30.32 in1026.8 mb 0.00 in0.0 mm 0.00 in0.0 mm 0.00 in0.0 mm
06:58 PM -1.1°F-18.4°C -11.7°F-24.3°C 60% Calm Calm -- 30.32 in1026.8 mb 0.00 in0.0 mm 0.00 in0.0 mm 0.00 in0.0 mm
07:00 PM -1.2°F-18.4°C -11.7°F-24.3°C 60% Calm Calm -- 30.32 in1026.8 mb 0.00 in0.0 mm 0.00 in0.0 mm 0.00 in0.0 mm
07:02 PM -1.7°F-18.7°C -12.3°F-24.6°C 60% Calm Calm -- 30.32 in1026.8 mb 0.00 in0.0 mm 0.00 in0.0 mm 0.00 in0.0 mm
07:05 PM -2.7°F-19.3°C -12.9°F-24.9°C 61% Calm Calm -- 30.32 in1026.8 mb 0.00 in0.0 mm 0.00 in0.0 mm 0.00 in0.0 mm
07:07 PM -3.2°F-19.6°C -13.5°F-25.3°C 61% Calm Calm -- 30.32 in1026.8 mb 0.00 in0.0 mm 0.00 in0.0 mm 0.00 in0.0 mm
07:12 PM -4.4°F-20.2°C -13.8°F-25.4°C 63% Calm Calm -- 30.32 in1026.8 mb 0.00 in0.0 mm 0.00 in0.0 mm 0.00 in0.0 mm
07:13 PM -4.5°F-20.3°C -14.0°F-25.6°C 63% Calm Calm -- 30.32 in1026.8 mb 0.00 in0.0 mm 0.00 in0.0 mm 0.00 in0.0 mm
07:14 PM -4.9°F-20.5°C -14.3°F-25.7°C 63% Calm Calm -- 30.32 in1026.8 mb 0.00 in0.0 mm 0.00 in0.0 mm 0.00 in0.0 mm
07:15 PM -5.0°F-20.6°C -14.5°F-25.8°C 63% Calm Calm -- 30.32 in1026.8 mb 0.00 in0.0 mm 0.00 in0.0 mm 0.00 in0.0 mm
07:18 PM -6.0°F-21.1°C -14.8°F-26.0°C 65% Calm Calm -- 30.32 in1026.8 mb 0.00 in0.0 mm 0.00 in0.0 mm 0.00 in0.0 mm
07:19 PM -6.1°F-21.2°C -14.9°F-26.1°C 65% Calm Calm -- 30.31 in1026.4 mb 0.00 in0.0 mm 0.00 in0.0 mm 0.00 in0.0 mm
07:20 PM -6.3°F-21.3°C -15.1°F-26.2°C 65% Calm Calm -- 30.32 in1026.8 mb 0.00 in0.0 mm 0.00 in0.0 mm 0.00 in0.0 mm
07:21 PM -6.5°F-21.4°C -15.3°F-26.3°C 65% Calm Calm -- 30.32 in1026.8 mb 0.00 in0.0 mm 0.00 in0.0 mm 0.00 in0.0 mm
07:22 PM -7.0°F-21.7°C -15.5°F-26.4°C 66% Calm Calm -- 30.32 in1026.8 mb 0.00 in0.0 mm 0.00 in0.0 mm 0.00 in0.0 mm
07:24 PM -7.4°F-21.9°C -15.8°F-26.6°C 66% Calm Calm -- 30.32 in1026.8 mb 0.00 in0.0 mm 0.00 in0.0 mm 0.00 in0.0 mm
07:25 PM -7.5°F-21.9°C -15.8°F-26.6°C 66% Calm Calm -- 30.32 in1026.8 mb 0.00 in0.0 mm 0.00 in0.0 mm 0.00 in0.0 mm
07:26 PM -7.8°F-22.1°C -16.2°F-26.8°C 66% Calm Calm -- 30.32 in1026.8 mb 0.00 in0.0 mm 0.00 in0.0 mm 0.00 in0.0 mm
07:27 PM -8.0°F-22.2°C -16.3°F-26.8°C 66% Calm Calm -- 30.32 in1026.8 mb 0.00 in0.0 mm 0.00 in0.0 mm 0.00 in0.0 mm
07:28 PM -8.1°F-22.3°C -16.5°F-26.9°C 66% Calm Calm -- 30.32 in1026.8 mb 0.00 in0.0 mm 0.00 in0.0 mm 0.00 in0.0 mm
07:29 PM -8.5°F-22.5°C -16.9°F-27.2°C 66% Calm Calm -- 30.32 in1026.8 mb 0.00 in0.0 mm 0.00 in0.0 mm 0.00 in0.0 mm
07:30 PM -8.8°F-22.7°C -16.6°F-27.0°C 68% Calm Calm -- 30.32 in1026.8 mb 0.00 in0.0 mm 0.00 in0.0 mm 0.00 in0.0 mm
07:31 PM -9.1°F-22.8°C -16.5°F-26.9°C 69% Calm Calm -- 30.32 in1026.8 mb 0.00 in0.0 mm 0.00 in0.0 mm 0.00 in0.0 mm
07:32 PM -9.3°F-22.9°C -16.7°F-27.1°C 69% Calm Calm -- 30.32 in1026.8 mb 0.00 in0.0 mm 0.00 in0.0 mm 0.00 in0.0 mm
07:33 PM -9.8°F-23.2°C -16.9°F-27.2°C 70% Calm Calm -- 30.32 in1026.8 mb 0.00 in0.0 mm 0.00 in0.0 mm 0.00 in0.0 mm
07:35 PM -10.6°F-23.7°C -17.5°F-27.5°C 71% Calm Calm -- 30.32 in1026.8 mb 0.00 in0.0 mm 0.00 in0.0 mm 0.00 in0.0 mm
07:36 PM -11.0°F-23.9°C -17.3°F-27.4°C 73% Calm Calm -- 30.32 in1026.8 mb 0.00 in0.0 mm 0.00 in0.0 mm 0.00 in0.0 mm
07:38 PM -11.2°F-24.0°C -17.5°F-27.5°C 73% Calm Calm -- 30.32 in1026.8 mb 0.00 in0.0 mm 0.00 in0.0 mm 0.00 in0.0 mm
07:39 PM -11.3°F-24.1°C -17.7°F-27.6°C 73% Calm Calm -- 30.31 in1026.4 mb 0.00 in0.0 mm 0.00 in0.0 mm 0.00 in0.0 mm
07:40 PM -11.6°F-24.2°C -17.8°F-27.7°C 73% Calm Calm -- 30.32 in1026.8 mb 0.00 in0.0 mm 0.00 in0.0 mm 0.00 in0.0 mm
07:42 PM -11.8°F-24.3°C -17.7°F-27.6°C 74% Calm Calm -- 30.32 in1026.8 mb 0.00 in0.0 mm 0.00 in0.0 mm 0.00 in0.0 mm
07:43 PM -12.3°F-24.6°C -18.3°F-27.9°C 74% Calm Calm -- 30.32 in1026.8 mb 0.00 in0.0 mm 0.00 in0.0 mm 0.00 in0.0 mm
07:44 PM -12.5°F-24.7°C -18.2°F-27.9°C 75% Calm Calm -- 30.32 in1026.8 mb 0.00 in0.0 mm 0.00 in0.0 mm 0.00 in0.0 mm
07:45 PM -12.7°F-24.8°C -18.3°F-27.9°C 75% Calm Calm -- 30.32 in1026.8 mb 0.00 in0.0 mm 0.00 in0.0 mm 0.00 in0.0 mm
07:48 PM -12.9°F-24.9°C -18.3°F-27.9°C 76% Calm Calm -- 30.32 in1026.8 mb 0.00 in0.0 mm 0.00 in0.0 mm 0.00 in0.0 mm
07:53 PM -13.3°F-25.2°C -18.8°F-28.2°C 76% Calm Calm -- 30.32 in1026.8 mb 0.00 in0.0 mm 0.00 in0.0 mm 0.00 in0.0 mm
07:54 PM -13.5°F-25.3°C -19.0°F-28.3°C 76% Calm Calm -- 30.32 in1026.8 mb 0.00 in0.0 mm 0.00 in0.0 mm 0.00 in0.0 mm
07:55 PM -13.6°F-25.3°C -18.5°F-28.1°C 78% Calm Calm -- 30.32 in1026.8 mb 0.00 in0.0 mm 0.00 in0.0 mm 0.00 in0.0 mm
07:59 PM -14.1°F-25.6°C -19.0°F-28.3°C 78% Calm Calm -- 30.32 in1026.8 mb 0.00 in0.0 mm 0.00 in0.0 mm 0.00 in0.0 mm
08:00 PM -14.3°F-25.7°C -19.2°F-28.4°C 78% Calm Calm -- 30.32 in1026.8 mb 0.00 in0.0 mm 0.00 in0.0 mm 0.00 in0.0 mm
08:01 PM -14.6°F-25.9°C -19.5°F-28.6°C 78% Calm Calm -- 30.32 in1026.8 mb 0.00 in0.0 mm 0.00 in0.0 mm 0.00 in0.0 mm
08:02 PM -14.8°F-26.0°C -19.4°F-28.6°C 79% Calm Calm -- 30.32 in1026.8 mb 0.00 in0.0 mm 0.00 in0.0 mm 0.00 in0.0 mm
08:05 PM -15.0°F-26.1°C -19.6°F-28.7°C 79% Calm Calm -- 30.32 in1026.8 mb 0.00 in0.0 mm 0.00 in0.0 mm 0.00 in0.0 mm
08:06 PM -15.1°F-26.2°C -19.8°F-28.8°C 79% Calm Calm -- 30.32 in1026.8 mb 0.00 in0.0 mm 0.00 in0.0 mm 0.00 in0.0 mm
08:07 PM -15.2°F-26.2°C -19.8°F-28.8°C 79% Calm Calm -- 30.32 in1026.8 mb 0.00 in0.0 mm 0.00 in0.0 mm 0.00 in0.0 mm
08:08 PM -15.4°F-26.3°C -20.0°F-28.9°C 79% Calm Calm -- 30.32 in1026.8 mb 0.00 in0.0 mm 0.00 in0.0 mm 0.00 in0.0 mm
08:09 PM -15.6°F-26.4°C -20.1°F-28.9°C 79% Calm Calm -- 30.32 in1026.8 mb 0.00 in0.0 mm 0.00 in0.0 mm 0.00 in0.0 mm
08:10 PM -15.8°F-26.6°C -20.5°F-29.2°C 79% Calm Calm -- 30.32 in1026.8 mb 0.00 in0.0 mm 0.00 in0.0 mm 0.00 in0.0 mm
08:12 PM -16.1°F-26.7°C -20.4°F-29.1°C 80% Calm Calm -- 30.32 in1026.8 mb 0.00 in0.0 mm 0.00 in0.0 mm 0.00 in0.0 mm
08:13 PM -16.2°F-26.8°C -20.6°F-29.2°C 80% Calm Calm -- 30.32 in1026.8 mb 0.00 in0.0 mm 0.00 in0.0 mm 0.00 in0.0 mm
08:15 PM -16.2°F-26.8°C -20.4°F-29.1°C 81% Calm Calm -- 30.32 in1026.8 mb 0.00 in0.0 mm 0.00 in0.0 mm 0.00 in0.0 mm
08:18 PM -16.6°F-27.0°C -20.7°F-29.3°C 81% Calm Calm -- 30.32 in1026.8 mb 0.00 in0.0 mm 0.00 in0.0 mm 0.00 in0.0 mm
08:19 PM -16.7°F-27.1°C -20.9°F-29.4°C 81% Calm Calm -- 30.32 in1026.8 mb 0.00 in0.0 mm 0.00 in0.0 mm 0.00 in0.0 mm
08:20 PM -17.0°F-27.2°C -21.1°F-29.5°C 81% Calm Calm -- 30.32 in1026.8 mb 0.00 in0.0 mm 0.00 in0.0 mm 0.00 in0.0 mm
08:23 PM -17.1°F-27.3°C -21.2°F-29.6°C 81% Calm Calm -- 30.32 in1026.8 mb 0.00 in0.0 mm 0.00 in0.0 mm 0.00 in0.0 mm
08:29 PM -17.2°F-27.3°C -21.2°F-29.6°C 81% Calm Calm -- 30.32 in1026.8 mb 0.00 in0.0 mm 0.00 in0.0 mm 0.00 in0.0 mm
08:30 PM -17.7°F-27.6°C -21.8°F-29.9°C 81% Calm Calm -- 30.32 in1026.8 mb 0.00 in0.0 mm 0.00 in0.0 mm 0.00 in0.0 mm
08:31 PM -17.8°F-27.7°C -21.9°F-29.9°C 81% Calm Calm -- 30.32 in1026.8 mb 0.00 in0.0 mm 0.00 in0.0 mm 0.00 in0.0 mm
08:37 PM -18.2°F-27.9°C -22.3°F-30.2°C 81% Calm Calm -- 30.32 in1026.8 mb 0.00 in0.0 mm 0.00 in0.0 mm 0.00 in0.0 mm
08:38 PM -18.6°F-28.1°C -22.6°F-30.3°C 81% Calm Calm -- 30.32 in1026.8 mb 0.00 in0.0 mm 0.00 in0.0 mm 0.00 in0.0 mm
08:40 PM -18.7°F-28.2°C -22.3°F-30.2°C 83% Calm Calm -- 30.32 in1026.8 mb 0.00 in0.0 mm 0.00 in0.0 mm 0.00 in0.0 mm
08:44 PM -18.8°F-28.2°C -22.3°F-30.2°C 83% Calm Calm -- 30.32 in1026.8 mb 0.00 in0.0 mm 0.00 in0.0 mm 0.00 in0.0 mm
08:46 PM -19.1°F-28.4°C -22.7°F-30.4°C 83% Calm Calm -- 30.32 in1026.8 mb 0.00 in0.0 mm 0.00 in0.0 mm 0.00 in0.0 mm
08:49 PM -19.2°F-28.4°C -22.7°F-30.4°C 83% Calm Calm -- 30.32 in1026.8 mb 0.00 in0.0 mm 0.00 in0.0 mm 0.00 in0.0 mm
08:50 PM -19.2°F-28.4°C -22.7°F-30.4°C 83% Calm Calm -- 30.32 in1026.8 mb 0.00 in0.0 mm 0.00 in0.0 mm 0.00 in0.0 mm
08:51 PM -19.5°F-28.6°C -23.1°F-30.6°C 83% Calm Calm -- 30.32 in1026.8 mb 0.00 in0.0 mm 0.00 in0.0 mm 0.00 in0.0 mm
08:52 PM -19.5°F-28.6°C -23.1°F-30.6°C 83% Calm Calm -- 30.32 in1026.8 mb 0.00 in0.0 mm 0.00 in0.0 mm 0.00 in0.0 mm
08:53 PM -19.7°F-28.7°C -23.2°F-30.7°C 83% Calm Calm -- 30.32 in1026.8 mb 0.00 in0.0 mm 0.00 in0.0 mm 0.00 in0.0 mm
08:58 PM -20.0°F-28.9°C -23.6°F-30.9°C 83% Calm Calm -- 30.33 in1027.1 mb 0.00 in0.0 mm 0.00 in0.0 mm 0.00 in0.0 mm
08:59 PM -20.1°F-28.9°C -23.6°F-30.9°C 83% Calm Calm -- 30.32 in1026.8 mb 0.00 in0.0 mm 0.00 in0.0 mm 0.00 in0.0 mm
09:01 PM -20.3°F-29.1°C -23.9°F-31.1°C 83% Calm Calm -- 30.32 in1026.8 mb 0.00 in0.0 mm 0.00 in0.0 mm 0.00 in0.0 mm
09:05 PM -20.3°F-29.1°C -23.9°F-31.1°C 83% Calm Calm -- 30.33 in1027.1 mb 0.00 in0.0 mm 0.00 in0.0 mm 0.00 in0.0 mm
09:06 PM -20.5°F-29.2°C -24.1°F-31.2°C 83% Calm Calm -- 30.33 in1027.1 mb 0.00 in0.0 mm 0.00 in0.0 mm 0.00 in0.0 mm
09:08 PM -20.7°F-29.3°C -24.7°F-31.5°C 81% Calm Calm -- 30.33 in1027.1 mb 0.00 in0.0 mm 0.00 in0.0 mm 0.00 in0.0 mm
09:09 PM -20.8°F-29.3°C -24.7°F-31.5°C 81% Calm Calm -- 30.32 in1026.8 mb 0.00 in0.0 mm 0.00 in0.0 mm 0.00 in0.0 mm
09:10 PM -20.8°F-29.3°C -24.3°F-31.3°C 83% Calm Calm -- 30.32 in1026.8 mb 0.00 in0.0 mm 0.00 in0.0 mm 0.00 in0.0 mm
09:12 PM -20.8°F-29.3°C -24.3°F-31.3°C 83% Calm Calm -- 30.33 in1027.1 mb 0.00 in0.0 mm 0.00 in0.0 mm 0.00 in0.0 mm
09:14 PM -21.1°F-29.5°C -24.6°F-31.4°C 83% Calm Calm -- 30.32 in1026.8 mb 0.00 in0.0 mm 0.00 in0.0 mm 0.00 in0.0 mm
09:15 PM -21.1°F-29.5°C -24.6°F-31.4°C 83% Calm Calm -- 30.33 in1027.1 mb 0.00 in0.0 mm 0.00 in0.0 mm 0.00 in0.0 mm
09:16 PM -21.1°F-29.5°C -24.6°F-31.4°C 83% Calm Calm -- 30.32 in1026.8 mb 0.00 in0.0 mm 0.00 in0.0 mm 0.00 in0.0 mm
09:18 PM -21.2°F-29.6°C -24.8°F-31.6°C 83% Calm Calm -- 30.33 in1027.1 mb 0.00 in0.0 mm 0.00 in0.0 mm 0.00 in0.0 mm
09:19 PM -21.5°F-29.7°C -25.0°F-31.7°C 83% Calm Calm -- 30.32 in1026.8 mb 0.00 in0.0 mm 0.00 in0.0 mm 0.00 in0.0 mm
09:23 PM -21.5°F-29.7°C -25.5°F-31.9°C 81% Calm Calm -- 30.32 in1026.8 mb 0.00 in0.0 mm 0.00 in0.0 mm 0.00 in0.0 mm
09:24 PM -21.6°F-29.8°C -25.6°F-32.0°C 81% Calm Calm -- 30.33 in1027.1 mb 0.00 in0.0 mm 0.00 in0.0 mm 0.00 in0.0 mm
09:25 PM -21.6°F-29.8°C -25.6°F-32.0°C 81% Calm Calm -- 30.32 in1026.8 mb 0.00 in0.0 mm 0.00 in0.0 mm 0.00 in0.0 mm
09:26 PM -21.7°F-29.8°C -25.6°F-32.0°C 81% Calm Calm -- 30.33 in1027.1 mb 0.00 in0.0 mm 0.00 in0.0 mm 0.00 in0.0 mm
09:27 PM -21.7°F-29.8°C -25.6°F-32.0°C 81% Calm Calm -- 30.32 in1026.8 mb 0.00 in0.0 mm 0.00 in0.0 mm 0.00 in0.0 mm
09:35 PM -21.7°F-29.8°C -25.2°F-31.8°C 83% Calm Calm -- 30.32 in1026.8 mb 0.00 in0.0 mm 0.00 in0.0 mm 0.00 in0.0 mm
09:37 PM -22.0°F-30.0°C -25.5°F-31.9°C 83% Calm Calm -- 30.32 in1026.8 mb 0.00 in0.0 mm 0.00 in0.0 mm 0.00 in0.0 mm
09:39 PM -22.0°F-30.0°C -26.0°F-32.2°C 81% Calm Calm -- 30.32 in1026.8 mb 0.00 in0.0 mm 0.00 in0.0 mm 0.00 in0.0 mm
09:41 PM -22.0°F-30.0°C -25.5°F-31.9°C 83% Calm Calm -- 30.32 in1026.8 mb 0.00 in0.0 mm 0.00 in0.0 mm 0.00 in0.0 mm
09:42 PM -22.2°F-30.1°C -25.7°F-32.1°C 83% Calm Calm -- 30.32 in1026.8 mb 0.00 in0.0 mm 0.00 in0.0 mm 0.00 in0.0 mm
09:45 PM -22.4°F-30.2°C -25.9°F-32.2°C 83% Calm Calm -- 30.32 in1026.8 mb 0.00 in0.0 mm 0.00 in0.0 mm 0.00 in0.0 mm
09:47 PM -22.5°F-30.3°C -26.1°F-32.3°C 83% Calm Calm -- 30.32 in1026.8 mb 0.00 in0.0 mm 0.00 in0.0 mm 0.00 in0.0 mm
09:48 PM -22.6°F-30.3°C -26.1°F-32.3°C 83% Calm Calm -- 30.32 in1026.8 mb 0.00 in0.0 mm 0.00 in0.0 mm 0.00 in0.0 mm
09:50 PM -22.8°F-30.4°C -26.2°F-32.3°C 83% Calm Calm -- 30.32 in1026.8 mb 0.00 in0.0 mm 0.00 in0.0 mm 0.00 in0.0 mm
09:53 PM -22.6°F-30.3°C -25.6°F-32.0°C 85% Calm Calm -- 30.33 in1027.1 mb 0.00 in0.0 mm 0.00 in0.0 mm 0.00 in0.0 mm
09:54 PM -22.6°F-30.3°C -25.4°F-31.9°C 86% Calm Calm -- 30.32 in1026.8 mb 0.00 in0.0 mm 0.00 in0.0 mm 0.00 in0.0 mm
09:56 PM -22.5°F-30.3°C -25.4°F-31.9°C 86% Calm Calm -- 30.32 in1026.8 mb 0.00 in0.0 mm 0.00 in0.0 mm 0.00 in0.0 mm
09:57 PM -22.5°F-30.3°C -25.0°F-31.7°C 88% Calm Calm -- 30.32 in1026.8 mb 0.00 in0.0 mm 0.00 in0.0 mm 0.00 in0.0 mm
09:58 PM -22.6°F-30.3°C -25.0°F-31.7°C 88% Calm Calm -- 30.32 in1026.8 mb 0.00 in0.0 mm 0.00 in0.0 mm 0.00 in0.0 mm
10:00 PM -22.8°F-30.4°C -25.1°F-31.7°C 88% Calm Calm -- 30.32 in1026.8 mb 0.00 in0.0 mm 0.00 in0.0 mm 0.00 in0.0 mm
10:01 PM -22.8°F-30.4°C -25.1°F-31.7°C 88% Calm Calm -- 30.33 in1027.1 mb 0.00 in0.0 mm 0.00 in0.0 mm 0.00 in0.0 mm
10:02 PM -22.8°F-30.4°C -25.1°F-31.7°C 88% Calm Calm -- 30.32 in1026.8 mb 0.00 in0.0 mm 0.00 in0.0 mm 0.00 in0.0 mm
10:05 PM -23.0°F-30.6°C -25.9°F-32.2°C 86% Calm Calm -- 30.32 in1026.8 mb 0.00 in0.0 mm 0.00 in0.0 mm 0.00 in0.0 mm
10:06 PM -23.2°F-30.7°C -26.1°F-32.3°C 86% Calm Calm -- 30.32 in1026.8 mb 0.00 in0.0 mm 0.00 in0.0 mm 0.00 in0.0 mm
10:08 PM -23.3°F-30.7°C -26.1°F-32.3°C 86% Calm Calm -- 30.32 in1026.8 mb 0.00 in0.0 mm 0.00 in0.0 mm 0.00 in0.0 mm
10:09 PM -23.6°F-30.9°C -26.7°F-32.6°C 85% Calm Calm -- 30.33 in1027.1 mb 0.00 in0.0 mm 0.00 in0.0 mm 0.00 in0.0 mm
10:10 PM -23.7°F-30.9°C -27.1°F-32.8°C 83% Calm Calm -- 30.33 in1027.1 mb 0.00 in0.0 mm 0.00 in0.0 mm 0.00 in0.0 mm
10:11 PM -23.7°F-30.9°C -27.1°F-32.8°C 83% Calm Calm -- 30.32 in1026.8 mb 0.00 in0.0 mm 0.00 in0.0 mm 0.00 in0.0 mm
10:12 PM -24.0°F-31.1°C -27.9°F-33.3°C 81% Calm Calm -- 30.32 in1026.8 mb 0.00 in0.0 mm 0.00 in0.0 mm 0.00 in0.0 mm
10:13 PM -24.2°F-31.2°C -28.1°F-33.4°C 81% Calm Calm -- 30.33 in1027.1 mb 0.00 in0.0 mm 0.00 in0.0 mm 0.00 in0.0 mm
10:17 PM -24.5°F-31.4°C -28.4°F-33.6°C 81% Calm Calm -- 30.32 in1026.8 mb 0.00 in0.0 mm 0.00 in0.0 mm 0.00 in0.0 mm
10:18 PM -24.5°F-31.4°C -28.4°F-33.6°C 81% Calm Calm -- 30.33 in1027.1 mb 0.00 in0.0 mm 0.00 in0.0 mm 0.00 in0.0 mm
10:19 PM -24.5°F-31.4°C -28.4°F-33.6°C 81% Calm Calm -- 30.32 in1026.8 mb 0.00 in0.0 mm 0.00 in0.0 mm 0.00 in0.0 mm
10:20 PM -24.7°F-31.5°C -28.6°F-33.7°C 81% Calm Calm -- 30.32 in1026.8 mb 0.00 in0.0 mm 0.00 in0.0 mm 0.00 in0.0 mm
10:22 PM -24.9°F-31.6°C -28.6°F-33.7°C 82% Calm Calm -- 30.32 in1026.8 mb 0.00 in0.0 mm 0.00 in0.0 mm 0.00 in0.0 mm
10:23 PM -24.9°F-31.6°C -28.8°F-33.8°C 81% Calm Calm -- 30.32 in1026.8 mb 0.00 in0.0 mm 0.00 in0.0 mm 0.00 in0.0 mm
10:35 PM -24.9°F-31.6°C -28.3°F-33.5°C 83% Calm Calm -- 30.32 in1026.8 mb 0.00 in0.0 mm 0.00 in0.0 mm 0.00 in0.0 mm
10:38 PM -25.1°F-31.7°C -28.5°F-33.6°C 83% Calm Calm -- 30.32 in1026.8 mb 0.00 in0.0 mm 0.00 in0.0 mm 0.00 in0.0 mm
10:39 PM -25.3°F-31.8°C -29.1°F-33.9°C 81% Calm Calm -- 30.32 in1026.8 mb 0.00 in0.0 mm 0.00 in0.0 mm 0.00 in0.0 mm
10:40 PM -25.5°F-31.9°C -29.3°F-34.1°C 81% Calm Calm -- 30.32 in1026.8 mb 0.00 in0.0 mm 0.00 in0.0 mm 0.00 in0.0 mm
10:41 PM -25.5°F-31.9°C -29.3°F-34.1°C 81% Calm Calm -- 30.31 in1026.4 mb 0.00 in0.0 mm 0.00 in0.0 mm 0.00 in0.0 mm
10:42 PM -25.5°F-31.9°C -29.3°F-34.1°C 81% Calm Calm -- 30.32 in1026.8 mb 0.00 in0.0 mm 0.00 in0.0 mm 0.00 in0.0 mm
10:45 PM -25.3°F-31.8°C -29.1°F-33.9°C 81% Calm Calm -- 30.32 in1026.8 mb 0.00 in0.0 mm 0.00 in0.0 mm 0.00 in0.0 mm
10:46 PM -25.3°F-31.8°C -29.1°F-33.9°C 81% Calm Calm -- 30.32 in1026.8 mb 0.00 in0.0 mm 0.00 in0.0 mm 0.00 in0.0 mm
10:47 PM -25.3°F-31.8°C -29.1°F-33.9°C 81% Calm Calm -- 30.32 in1026.8 mb 0.00 in0.0 mm 0.00 in0.0 mm 0.00 in0.0 mm
10:48 PM -25.3°F-31.8°C -29.1°F-33.9°C 81% Calm Calm -- 30.32 in1026.8 mb 0.00 in0.0 mm 0.00 in0.0 mm 0.00 in0.0 mm
10:53 PM -25.5°F-31.9°C -29.3°F-34.1°C 81% Calm Calm -- 30.32 in1026.8 mb 0.00 in0.0 mm 0.00 in0.0 mm 0.00 in0.0 mm
10:57 PM -25.7°F-32.1°C -29.7°F-34.3°C 81% Calm Calm -- 30.32 in1026.8 mb 0.00 in0.0 mm 0.00 in0.0 mm 0.00 in0.0 mm
11:02 PM -25.9°F-32.2°C -29.8°F-34.3°C 81% Calm Calm -- 30.32 in1026.8 mb 0.00 in0.0 mm 0.00 in0.0 mm 0.00 in0.0 mm
11:09 PM -25.7°F-32.1°C -29.2°F-34.0°C 83% Calm Calm -- 30.33 in1027.1 mb 0.00 in0.0 mm 0.00 in0.0 mm 0.00 in0.0 mm
11:10 PM -25.9°F-32.2°C -29.4°F-34.1°C 83% Calm Calm -- 30.32 in1026.8 mb 0.00 in0.0 mm 0.00 in0.0 mm 0.00 in0.0 mm
11:11 PM -25.9°F-32.2°C -29.4°F-34.1°C 83% Calm Calm -- 30.33 in1027.1 mb 0.00 in0.0 mm 0.00 in0.0 mm 0.00 in0.0 mm
11:12 PM -25.9°F-32.2°C -29.4°F-34.1°C 83% Calm Calm -- 30.32 in1026.8 mb 0.00 in0.0 mm 0.00 in0.0 mm 0.00 in0.0 mm
11:13 PM -26.1°F-32.3°C -29.6°F-34.2°C 83% Calm Calm -- 30.33 in1027.1 mb 0.00 in0.0 mm 0.00 in0.0 mm 0.00 in0.0 mm
11:14 PM -26.2°F-32.3°C -30.0°F-34.4°C 81% Calm Calm -- 30.32 in1026.8 mb 0.00 in0.0 mm 0.00 in0.0 mm 0.00 in0.0 mm
11:15 PM -26.2°F-32.3°C -30.0°F-34.4°C 81% Calm Calm -- 30.33 in1027.1 mb 0.00 in0.0 mm 0.00 in0.0 mm 0.00 in0.0 mm
11:16 PM -26.2°F-32.3°C -30.0°F-34.4°C 81% Calm Calm -- 30.32 in1026.8 mb 0.00 in0.0 mm 0.00 in0.0 mm 0.00 in0.0 mm
11:17 PM -26.2°F-32.3°C -30.0°F-34.4°C 81% Calm Calm -- 30.33 in1027.1 mb 0.00 in0.0 mm 0.00 in0.0 mm 0.00 in0.0 mm
11:20 PM -26.5°F-32.5°C -30.4°F-34.7°C 81% Calm Calm -- 30.32 in1026.8 mb 0.00 in0.0 mm 0.00 in0.0 mm 0.00 in0.0 mm
11:21 PM -26.5°F-32.5°C -30.4°F-34.7°C 81% Calm Calm -- 30.33 in1027.1 mb 0.00 in0.0 mm 0.00 in0.0 mm 0.00 in0.0 mm
11:22 PM -26.7°F-32.6°C -30.5°F-34.7°C 81% Calm Calm -- 30.32 in1026.8 mb 0.00 in0.0 mm 0.00 in0.0 mm 0.00 in0.0 mm
11:23 PM -26.7°F-32.6°C -30.5°F-34.7°C 81% Calm Calm -- 30.33 in1027.1 mb 0.00 in0.0 mm 0.00 in0.0 mm 0.00 in0.0 mm
11:24 PM -26.7°F-32.6°C -30.5°F-34.7°C 81% Calm Calm -- 30.32 in1026.8 mb 0.00 in0.0 mm 0.00 in0.0 mm 0.00 in0.0 mm
11:25 PM -26.9°F-32.7°C -30.7°F-34.8°C 81% Calm Calm -- 30.33 in1027.1 mb 0.00 in0.0 mm 0.00 in0.0 mm 0.00 in0.0 mm
11:26 PM -26.9°F-32.7°C -30.7°F-34.8°C 81% Calm Calm -- 30.32 in1026.8 mb 0.00 in0.0 mm 0.00 in0.0 mm 0.00 in0.0 mm
11:34 PM -26.9°F-32.7°C -30.3°F-34.6°C 83% Calm Calm -- 30.32 in1026.8 mb 0.00 in0.0 mm 0.00 in0.0 mm 0.00 in0.0 mm
11:35 PM -26.9°F-32.7°C -30.3°F-34.6°C 83% Calm Calm -- 30.33 in1027.1 mb 0.00 in0.0 mm 0.00 in0.0 mm 0.00 in0.0 mm
11:37 PM -26.9°F-32.7°C -30.3°F-34.6°C 83% Calm Calm -- 30.32 in1026.8 mb 0.00 in0.0 mm 0.00 in0.0 mm 0.00 in0.0 mm
11:41 PM -26.9°F-32.7°C -30.3°F-34.6°C 83% Calm Calm -- 30.33 in1027.1 mb 0.00 in0.0 mm 0.00 in0.0 mm 0.00 in0.0 mm
11:44 PM -26.9°F-32.7°C -30.3°F-34.6°C 83% Calm Calm -- 30.32 in1026.8 mb 0.00 in0.0 mm 0.00 in0.0 mm 0.00 in0.0 mm
11:47 PM -26.9°F-32.7°C -30.3°F-34.6°C 83% Calm Calm -- 30.33 in1027.1 mb 0.00 in0.0 mm 0.00 in0.0 mm 0.00 in0.0 mm
11:49 PM -26.7°F-32.6°C -29.7°F-34.3°C 85% Calm Calm -- 30.33 in1027.1 mb 0.00 in0.0 mm 0.00 in0.0 mm 0.00 in0.0 mm
11:54 PM -26.7°F-32.6°C -30.1°F-34.5°C 83% Calm Calm -- 30.33 in1027.1 mb 0.00 in0.0 mm 0.00 in0.0 mm 0.00 in0.0 mm
11:55 PM -26.7°F-32.6°C -30.1°F-34.5°C 83% Calm Calm -- 30.32 in1026.8 mb 0.00 in0.0 mm 0.00 in0.0 mm 0.00 in0.0 mm